<?xml version="1.0" encoding="UTF-8" standalone="no" ?>
<gpx xmlns="http://www.topografix.com/GPX/1/1" xmlns:xsi="http://www.w3.org/2001/XMLSchema-instance" xsi:schemaLocation="http://www.topografix.com/GPX/1/1 http://www.topografix.com/GPX/1/1/gpx.xsd" version="1.1" creator="VisuGPX - https://www.visugpx.com">
  <metadata>
    <name>2021-09 Munster-Thann</name>
  </metadata>
  <trk>
    <name><![CDATA[2021-09-28 J2-Munster Thann par Petit et Grand Ballon]]></name>
    <extensions>
      <line xmlns="http://www.topografix.com/GPX/gpx_style/0/2">
        <color>0000FF</color>
        <opacity>0.59</opacity>
        <width>6</width>
      </line>
    </extensions>
    <trkseg>
      <trkpt lat="47.92427" lon="7.04187">
        <ele>1214.3</ele>
        <time>2021-09-28T06:44:51.000Z</time>
      </trkpt>
      <trkpt lat="47.92417" lon="7.04184">
        <ele>1214.8</ele>
        <time>2021-09-28T06:45:40.000Z</time>
      </trkpt>
      <trkpt lat="47.92407" lon="7.04182">
        <ele>1215.2</ele>
        <time>2021-09-28T06:45:48.000Z</time>
      </trkpt>
      <trkpt lat="47.92397" lon="7.04185">
        <ele>1215.5</ele>
        <time>2021-09-28T06:45:55.000Z</time>
      </trkpt>
      <trkpt lat="47.92387" lon="7.04184">
        <ele>1215.9</ele>
        <time>2021-09-28T06:46:02.000Z</time>
      </trkpt>
      <trkpt lat="47.92378" lon="7.04182">
        <ele>1216.3</ele>
        <time>2021-09-28T06:46:11.000Z</time>
      </trkpt>
      <trkpt lat="47.92368" lon="7.04179">
        <ele>1216.8</ele>
        <time>2021-09-28T06:46:19.000Z</time>
      </trkpt>
      <trkpt lat="47.92359" lon="7.04176">
        <ele>1217.3</ele>
        <time>2021-09-28T06:46:26.000Z</time>
      </trkpt>
      <trkpt lat="47.92349" lon="7.04176">
        <ele>1217.7</ele>
        <time>2021-09-28T06:46:33.000Z</time>
      </trkpt>
      <trkpt lat="47.9234" lon="7.04172">
        <ele>1218.4</ele>
        <time>2021-09-28T06:46:41.000Z</time>
      </trkpt>
      <trkpt lat="47.92331" lon="7.0417">
        <ele>1218.7</ele>
        <time>2021-09-28T06:46:48.000Z</time>
      </trkpt>
      <trkpt lat="47.92322" lon="7.04165">
        <ele>1218.6</ele>
        <time>2021-09-28T06:46:55.000Z</time>
      </trkpt>
      <trkpt lat="47.92314" lon="7.0416">
        <ele>1218.4</ele>
        <time>2021-09-28T06:47:02.000Z</time>
      </trkpt>
      <trkpt lat="47.92304" lon="7.04154">
        <ele>1218.3</ele>
        <time>2021-09-28T06:47:10.000Z</time>
      </trkpt>
      <trkpt lat="47.923" lon="7.04142">
        <ele>1218.4</ele>
        <time>2021-09-28T06:47:21.000Z</time>
      </trkpt>
      <trkpt lat="47.92291" lon="7.04137">
        <ele>1218.4</ele>
        <time>2021-09-28T06:47:35.000Z</time>
      </trkpt>
      <trkpt lat="47.92282" lon="7.0413">
        <ele>1218.4</ele>
        <time>2021-09-28T06:47:42.000Z</time>
      </trkpt>
      <trkpt lat="47.92273" lon="7.04125">
        <ele>1218.4</ele>
        <time>2021-09-28T06:47:50.000Z</time>
      </trkpt>
      <trkpt lat="47.92263" lon="7.0412">
        <ele>1218.5</ele>
        <time>2021-09-28T06:47:57.000Z</time>
      </trkpt>
      <trkpt lat="47.92254" lon="7.04115">
        <ele>1218.5</ele>
        <time>2021-09-28T06:48:04.000Z</time>
      </trkpt>
      <trkpt lat="47.92246" lon="7.04111">
        <ele>1218.5</ele>
        <time>2021-09-28T06:48:10.000Z</time>
      </trkpt>
      <trkpt lat="47.92237" lon="7.04106">
        <ele>1218.5</ele>
        <time>2021-09-28T06:48:18.000Z</time>
      </trkpt>
      <trkpt lat="47.92228" lon="7.04103">
        <ele>1218.5</ele>
        <time>2021-09-28T06:48:25.000Z</time>
      </trkpt>
      <trkpt lat="47.92219" lon="7.04099">
        <ele>1218.4</ele>
        <time>2021-09-28T06:48:32.000Z</time>
      </trkpt>
      <trkpt lat="47.9221" lon="7.04093">
        <ele>1218.5</ele>
        <time>2021-09-28T06:48:39.000Z</time>
      </trkpt>
      <trkpt lat="47.92201" lon="7.0409">
        <ele>1218.4</ele>
        <time>2021-09-28T06:48:46.000Z</time>
      </trkpt>
      <trkpt lat="47.92191" lon="7.04088">
        <ele>1218.3</ele>
        <time>2021-09-28T06:48:55.000Z</time>
      </trkpt>
      <trkpt lat="47.92183" lon="7.04083">
        <ele>1218.4</ele>
        <time>2021-09-28T06:49:02.000Z</time>
      </trkpt>
      <trkpt lat="47.92174" lon="7.04087">
        <ele>1218</ele>
        <time>2021-09-28T06:49:09.000Z</time>
      </trkpt>
      <trkpt lat="47.92165" lon="7.04091">
        <ele>1217.4</ele>
        <time>2021-09-28T06:49:18.000Z</time>
      </trkpt>
      <trkpt lat="47.92156" lon="7.04094">
        <ele>1216.9</ele>
        <time>2021-09-28T06:49:27.000Z</time>
      </trkpt>
      <trkpt lat="47.92147" lon="7.041">
        <ele>1216.4</ele>
        <time>2021-09-28T06:50:37.000Z</time>
      </trkpt>
      <trkpt lat="47.92138" lon="7.04105">
        <ele>1216.1</ele>
        <time>2021-09-28T06:50:44.000Z</time>
      </trkpt>
      <trkpt lat="47.92129" lon="7.0411">
        <ele>1215.9</ele>
        <time>2021-09-28T06:50:51.000Z</time>
      </trkpt>
      <trkpt lat="47.9212" lon="7.04117">
        <ele>1215.9</ele>
        <time>2021-09-28T06:51:00.000Z</time>
      </trkpt>
      <trkpt lat="47.92113" lon="7.04124">
        <ele>1216.1</ele>
        <time>2021-09-28T06:51:28.000Z</time>
      </trkpt>
      <trkpt lat="47.92104" lon="7.04131">
        <ele>1216.6</ele>
        <time>2021-09-28T06:51:36.000Z</time>
      </trkpt>
      <trkpt lat="47.92094" lon="7.04134">
        <ele>1217</ele>
        <time>2021-09-28T06:51:43.000Z</time>
      </trkpt>
      <trkpt lat="47.92086" lon="7.04143">
        <ele>1217.8</ele>
        <time>2021-09-28T06:51:51.000Z</time>
      </trkpt>
      <trkpt lat="47.92079" lon="7.0415">
        <ele>1218.5</ele>
        <time>2021-09-28T06:51:57.000Z</time>
      </trkpt>
      <trkpt lat="47.92069" lon="7.04151">
        <ele>1218.5</ele>
        <time>2021-09-28T06:52:06.000Z</time>
      </trkpt>
      <trkpt lat="47.92061" lon="7.04158">
        <ele>1219.2</ele>
        <time>2021-09-28T06:52:13.000Z</time>
      </trkpt>
      <trkpt lat="47.92052" lon="7.04164">
        <ele>1220</ele>
        <time>2021-09-28T06:52:20.000Z</time>
      </trkpt>
      <trkpt lat="47.92045" lon="7.04172">
        <ele>1220.7</ele>
        <time>2021-09-28T06:52:29.000Z</time>
      </trkpt>
      <trkpt lat="47.92038" lon="7.04181">
        <ele>1221.2</ele>
        <time>2021-09-28T06:52:40.000Z</time>
      </trkpt>
      <trkpt lat="47.92033" lon="7.04192">
        <ele>1222.1</ele>
        <time>2021-09-28T06:52:57.000Z</time>
      </trkpt>
      <trkpt lat="47.92026" lon="7.04202">
        <ele>1223.2</ele>
        <time>2021-09-28T06:53:10.000Z</time>
      </trkpt>
      <trkpt lat="47.92017" lon="7.04209">
        <ele>1224.5</ele>
        <time>2021-09-28T06:53:32.000Z</time>
      </trkpt>
      <trkpt lat="47.92009" lon="7.04217">
        <ele>1226.1</ele>
        <time>2021-09-28T06:53:40.000Z</time>
      </trkpt>
      <trkpt lat="47.92001" lon="7.04221">
        <ele>1227.5</ele>
        <time>2021-09-28T06:53:47.000Z</time>
      </trkpt>
      <trkpt lat="47.9199" lon="7.04226">
        <ele>1227.3</ele>
        <time>2021-09-28T06:53:56.000Z</time>
      </trkpt>
      <trkpt lat="47.91981" lon="7.04231">
        <ele>1227.3</ele>
        <time>2021-09-28T06:54:03.000Z</time>
      </trkpt>
      <trkpt lat="47.91973" lon="7.04235">
        <ele>1227.3</ele>
        <time>2021-09-28T06:54:10.000Z</time>
      </trkpt>
      <trkpt lat="47.91963" lon="7.0424">
        <ele>1227.3</ele>
        <time>2021-09-28T06:54:18.000Z</time>
      </trkpt>
      <trkpt lat="47.91954" lon="7.04241">
        <ele>1226.8</ele>
        <time>2021-09-28T06:54:27.000Z</time>
      </trkpt>
      <trkpt lat="47.91944" lon="7.04244">
        <ele>1226.6</ele>
        <time>2021-09-28T06:54:34.000Z</time>
      </trkpt>
      <trkpt lat="47.91935" lon="7.04247">
        <ele>1226.7</ele>
        <time>2021-09-28T06:54:41.000Z</time>
      </trkpt>
      <trkpt lat="47.91927" lon="7.04256">
        <ele>1226.6</ele>
        <time>2021-09-28T06:54:50.000Z</time>
      </trkpt>
      <trkpt lat="47.91919" lon="7.04264">
        <ele>1226.3</ele>
        <time>2021-09-28T06:54:57.000Z</time>
      </trkpt>
      <trkpt lat="47.91911" lon="7.04271">
        <ele>1225.7</ele>
        <time>2021-09-28T06:55:06.000Z</time>
      </trkpt>
      <trkpt lat="47.91902" lon="7.04277">
        <ele>1225.1</ele>
        <time>2021-09-28T06:55:15.000Z</time>
      </trkpt>
      <trkpt lat="47.91894" lon="7.04283">
        <ele>1224.7</ele>
        <time>2021-09-28T06:55:24.000Z</time>
      </trkpt>
      <trkpt lat="47.91886" lon="7.0429">
        <ele>1224.4</ele>
        <time>2021-09-28T06:55:31.000Z</time>
      </trkpt>
      <trkpt lat="47.91878" lon="7.04297">
        <ele>1224.2</ele>
        <time>2021-09-28T06:55:38.000Z</time>
      </trkpt>
      <trkpt lat="47.91869" lon="7.04304">
        <ele>1224.3</ele>
        <time>2021-09-28T06:55:45.000Z</time>
      </trkpt>
      <trkpt lat="47.91862" lon="7.04313">
        <ele>1224.7</ele>
        <time>2021-09-28T06:55:53.000Z</time>
      </trkpt>
      <trkpt lat="47.91854" lon="7.04321">
        <ele>1225.1</ele>
        <time>2021-09-28T06:56:01.000Z</time>
      </trkpt>
      <trkpt lat="47.91847" lon="7.0433">
        <ele>1225.8</ele>
        <time>2021-09-28T06:56:08.000Z</time>
      </trkpt>
      <trkpt lat="47.91839" lon="7.04338">
        <ele>1226</ele>
        <time>2021-09-28T06:56:15.000Z</time>
      </trkpt>
      <trkpt lat="47.91832" lon="7.04347">
        <ele>1225.7</ele>
        <time>2021-09-28T06:56:22.000Z</time>
      </trkpt>
      <trkpt lat="47.91824" lon="7.04356">
        <ele>1224.9</ele>
        <time>2021-09-28T06:56:30.000Z</time>
      </trkpt>
      <trkpt lat="47.91816" lon="7.04366">
        <ele>1224.5</ele>
        <time>2021-09-28T06:56:38.000Z</time>
      </trkpt>
      <trkpt lat="47.91808" lon="7.04374">
        <ele>1224.3</ele>
        <time>2021-09-28T06:56:46.000Z</time>
      </trkpt>
      <trkpt lat="47.918" lon="7.04383">
        <ele>1224.6</ele>
        <time>2021-09-28T06:56:55.000Z</time>
      </trkpt>
      <trkpt lat="47.91793" lon="7.04392">
        <ele>1225.1</ele>
        <time>2021-09-28T06:57:05.000Z</time>
      </trkpt>
      <trkpt lat="47.91786" lon="7.04401">
        <ele>1225.9</ele>
        <time>2021-09-28T06:57:13.000Z</time>
      </trkpt>
      <trkpt lat="47.91779" lon="7.04411">
        <ele>1227</ele>
        <time>2021-09-28T06:57:20.000Z</time>
      </trkpt>
      <trkpt lat="47.91772" lon="7.04421">
        <ele>1228.1</ele>
        <time>2021-09-28T06:57:31.000Z</time>
      </trkpt>
      <trkpt lat="47.91763" lon="7.04427">
        <ele>1228.9</ele>
        <time>2021-09-28T06:57:39.000Z</time>
      </trkpt>
      <trkpt lat="47.91754" lon="7.04435">
        <ele>1229.8</ele>
        <time>2021-09-28T06:58:06.000Z</time>
      </trkpt>
      <trkpt lat="47.91746" lon="7.04441">
        <ele>1229.8</ele>
        <time>2021-09-28T06:58:13.000Z</time>
      </trkpt>
      <trkpt lat="47.91738" lon="7.04447">
        <ele>1229.1</ele>
        <time>2021-09-28T06:58:20.000Z</time>
      </trkpt>
      <trkpt lat="47.91729" lon="7.04455">
        <ele>1228.4</ele>
        <time>2021-09-28T06:58:27.000Z</time>
      </trkpt>
      <trkpt lat="47.9172" lon="7.04461">
        <ele>1227.8</ele>
        <time>2021-09-28T06:58:34.000Z</time>
      </trkpt>
      <trkpt lat="47.91711" lon="7.04467">
        <ele>1227.2</ele>
        <time>2021-09-28T06:58:42.000Z</time>
      </trkpt>
      <trkpt lat="47.91703" lon="7.04474">
        <ele>1227.1</ele>
        <time>2021-09-28T06:59:51.000Z</time>
      </trkpt>
      <trkpt lat="47.91695" lon="7.04482">
        <ele>1227.1</ele>
        <time>2021-09-28T06:59:57.000Z</time>
      </trkpt>
      <trkpt lat="47.91686" lon="7.04488">
        <ele>1227.1</ele>
        <time>2021-09-28T07:00:05.000Z</time>
      </trkpt>
      <trkpt lat="47.91678" lon="7.04495">
        <ele>1227.2</ele>
        <time>2021-09-28T07:00:14.000Z</time>
      </trkpt>
      <trkpt lat="47.91668" lon="7.04504">
        <ele>1226.9</ele>
        <time>2021-09-28T07:00:23.000Z</time>
      </trkpt>
      <trkpt lat="47.9166" lon="7.0451">
        <ele>1225.6</ele>
        <time>2021-09-28T07:00:32.000Z</time>
      </trkpt>
      <trkpt lat="47.91652" lon="7.04516">
        <ele>1224.4</ele>
        <time>2021-09-28T07:00:50.000Z</time>
      </trkpt>
      <trkpt lat="47.91642" lon="7.0452">
        <ele>1223.1</ele>
        <time>2021-09-28T07:00:59.000Z</time>
      </trkpt>
      <trkpt lat="47.91634" lon="7.04524">
        <ele>1222</ele>
        <time>2021-09-28T07:01:07.000Z</time>
      </trkpt>
      <trkpt lat="47.91624" lon="7.04527">
        <ele>1220.8</ele>
        <time>2021-09-28T07:01:17.000Z</time>
      </trkpt>
      <trkpt lat="47.91615" lon="7.04532">
        <ele>1219.9</ele>
        <time>2021-09-28T07:01:25.000Z</time>
      </trkpt>
      <trkpt lat="47.91605" lon="7.0453">
        <ele>1218.8</ele>
        <time>2021-09-28T07:01:30.000Z</time>
      </trkpt>
      <trkpt lat="47.91596" lon="7.04532">
        <ele>1217.8</ele>
        <time>2021-09-28T07:01:37.000Z</time>
      </trkpt>
      <trkpt lat="47.91587" lon="7.04538">
        <ele>1217.2</ele>
        <time>2021-09-28T07:01:45.000Z</time>
      </trkpt>
      <trkpt lat="47.91578" lon="7.04543">
        <ele>1216.3</ele>
        <time>2021-09-28T07:01:52.000Z</time>
      </trkpt>
      <trkpt lat="47.91568" lon="7.04548">
        <ele>1215</ele>
        <time>2021-09-28T07:02:00.000Z</time>
      </trkpt>
      <trkpt lat="47.91559" lon="7.04552">
        <ele>1213.8</ele>
        <time>2021-09-28T07:02:08.000Z</time>
      </trkpt>
      <trkpt lat="47.91549" lon="7.04552">
        <ele>1212.3</ele>
        <time>2021-09-28T07:02:46.000Z</time>
      </trkpt>
      <trkpt lat="47.91541" lon="7.04559">
        <ele>1211.4</ele>
        <time>2021-09-28T07:02:53.000Z</time>
      </trkpt>
      <trkpt lat="47.91532" lon="7.04564">
        <ele>1210.4</ele>
        <time>2021-09-28T07:03:01.000Z</time>
      </trkpt>
      <trkpt lat="47.91523" lon="7.04563">
        <ele>1209</ele>
        <time>2021-09-28T07:03:11.000Z</time>
      </trkpt>
      <trkpt lat="47.91514" lon="7.04572">
        <ele>1208.3</ele>
        <time>2021-09-28T07:03:16.000Z</time>
      </trkpt>
      <trkpt lat="47.91505" lon="7.04573">
        <ele>1207</ele>
        <time>2021-09-28T07:03:23.000Z</time>
      </trkpt>
      <trkpt lat="47.91495" lon="7.04576">
        <ele>1206.2</ele>
        <time>2021-09-28T07:03:29.000Z</time>
      </trkpt>
      <trkpt lat="47.91485" lon="7.04579">
        <ele>1205.8</ele>
        <time>2021-09-28T07:03:37.000Z</time>
      </trkpt>
      <trkpt lat="47.91475" lon="7.04581">
        <ele>1205.3</ele>
        <time>2021-09-28T07:03:44.000Z</time>
      </trkpt>
      <trkpt lat="47.91466" lon="7.04587">
        <ele>1204.8</ele>
        <time>2021-09-28T07:03:52.000Z</time>
      </trkpt>
      <trkpt lat="47.91457" lon="7.04589">
        <ele>1204.2</ele>
        <time>2021-09-28T07:03:58.000Z</time>
      </trkpt>
      <trkpt lat="47.91448" lon="7.04594">
        <ele>1203.6</ele>
        <time>2021-09-28T07:04:06.000Z</time>
      </trkpt>
      <trkpt lat="47.91439" lon="7.04599">
        <ele>1203</ele>
        <time>2021-09-28T07:04:14.000Z</time>
      </trkpt>
      <trkpt lat="47.9143" lon="7.04602">
        <ele>1202.6</ele>
        <time>2021-09-28T07:04:20.000Z</time>
      </trkpt>
      <trkpt lat="47.91421" lon="7.04606">
        <ele>1202.2</ele>
        <time>2021-09-28T07:04:26.000Z</time>
      </trkpt>
      <trkpt lat="47.91412" lon="7.04615">
        <ele>1201.1</ele>
        <time>2021-09-28T07:04:34.000Z</time>
      </trkpt>
      <trkpt lat="47.91405" lon="7.04623">
        <ele>1199.8</ele>
        <time>2021-09-28T07:04:41.000Z</time>
      </trkpt>
      <trkpt lat="47.91397" lon="7.04631">
        <ele>1198.7</ele>
        <time>2021-09-28T07:04:48.000Z</time>
      </trkpt>
      <trkpt lat="47.91391" lon="7.04643">
        <ele>1198.2</ele>
        <time>2021-09-28T07:04:55.000Z</time>
      </trkpt>
      <trkpt lat="47.91384" lon="7.04654">
        <ele>1197.8</ele>
        <time>2021-09-28T07:05:02.000Z</time>
      </trkpt>
      <trkpt lat="47.91377" lon="7.04662">
        <ele>1197.3</ele>
        <time>2021-09-28T07:05:10.000Z</time>
      </trkpt>
      <trkpt lat="47.91369" lon="7.04668">
        <ele>1196.7</ele>
        <time>2021-09-28T07:05:16.000Z</time>
      </trkpt>
      <trkpt lat="47.91362" lon="7.04678">
        <ele>1195</ele>
        <time>2021-09-28T07:05:24.000Z</time>
      </trkpt>
      <trkpt lat="47.91355" lon="7.04688">
        <ele>1193.6</ele>
        <time>2021-09-28T07:05:31.000Z</time>
      </trkpt>
      <trkpt lat="47.91348" lon="7.04698">
        <ele>1192.4</ele>
        <time>2021-09-28T07:05:38.000Z</time>
      </trkpt>
      <trkpt lat="47.9134" lon="7.04707">
        <ele>1191.4</ele>
        <time>2021-09-28T07:05:46.000Z</time>
      </trkpt>
      <trkpt lat="47.91331" lon="7.04706">
        <ele>1190.3</ele>
        <time>2021-09-28T07:05:54.000Z</time>
      </trkpt>
      <trkpt lat="47.9132" lon="7.04704">
        <ele>1187.3</ele>
        <time>2021-09-28T07:06:02.000Z</time>
      </trkpt>
      <trkpt lat="47.91311" lon="7.04702">
        <ele>1184.6</ele>
        <time>2021-09-28T07:06:10.000Z</time>
      </trkpt>
      <trkpt lat="47.91302" lon="7.04702">
        <ele>1181.8</ele>
        <time>2021-09-28T07:06:18.000Z</time>
      </trkpt>
      <trkpt lat="47.91292" lon="7.04702">
        <ele>1178.8</ele>
        <time>2021-09-28T07:06:26.000Z</time>
      </trkpt>
      <trkpt lat="47.91282" lon="7.04703">
        <ele>1175.9</ele>
        <time>2021-09-28T07:06:37.000Z</time>
      </trkpt>
      <trkpt lat="47.91286" lon="7.04716">
        <ele>1177.6</ele>
        <time>2021-09-28T07:07:26.000Z</time>
      </trkpt>
      <trkpt lat="47.91285" lon="7.0473">
        <ele>1178</ele>
        <time>2021-09-28T07:07:36.000Z</time>
      </trkpt>
      <trkpt lat="47.9128" lon="7.04744">
        <ele>1177.8</ele>
        <time>2021-09-28T07:07:45.000Z</time>
      </trkpt>
      <trkpt lat="47.91276" lon="7.04756">
        <ele>1177.2</ele>
        <time>2021-09-28T07:07:53.000Z</time>
      </trkpt>
      <trkpt lat="47.91271" lon="7.04767">
        <ele>1176</ele>
        <time>2021-09-28T07:08:02.000Z</time>
      </trkpt>
      <trkpt lat="47.91267" lon="7.04779">
        <ele>1175.3</ele>
        <time>2021-09-28T07:08:09.000Z</time>
      </trkpt>
      <trkpt lat="47.91263" lon="7.04793">
        <ele>1174.7</ele>
        <time>2021-09-28T07:08:17.000Z</time>
      </trkpt>
      <trkpt lat="47.9126" lon="7.04806">
        <ele>1174.3</ele>
        <time>2021-09-28T07:08:24.000Z</time>
      </trkpt>
      <trkpt lat="47.91256" lon="7.04819">
        <ele>1174.1</ele>
        <time>2021-09-28T07:08:32.000Z</time>
      </trkpt>
      <trkpt lat="47.91253" lon="7.04832">
        <ele>1174.1</ele>
        <time>2021-09-28T07:08:39.000Z</time>
      </trkpt>
      <trkpt lat="47.91244" lon="7.04839">
        <ele>1172.4</ele>
        <time>2021-09-28T07:08:47.000Z</time>
      </trkpt>
      <trkpt lat="47.91237" lon="7.04847">
        <ele>1170.7</ele>
        <time>2021-09-28T07:08:52.000Z</time>
      </trkpt>
      <trkpt lat="47.9123" lon="7.04858">
        <ele>1169.6</ele>
        <time>2021-09-28T07:08:59.000Z</time>
      </trkpt>
      <trkpt lat="47.91223" lon="7.04867">
        <ele>1168.6</ele>
        <time>2021-09-28T07:09:05.000Z</time>
      </trkpt>
      <trkpt lat="47.91217" lon="7.04879">
        <ele>1168.3</ele>
        <time>2021-09-28T07:09:13.000Z</time>
      </trkpt>
      <trkpt lat="47.91211" lon="7.04889">
        <ele>1168</ele>
        <time>2021-09-28T07:09:21.000Z</time>
      </trkpt>
      <trkpt lat="47.91205" lon="7.04901">
        <ele>1168.3</ele>
        <time>2021-09-28T07:09:27.000Z</time>
      </trkpt>
      <trkpt lat="47.91198" lon="7.04911">
        <ele>1168.6</ele>
        <time>2021-09-28T07:09:40.000Z</time>
      </trkpt>
      <trkpt lat="47.91191" lon="7.04921">
        <ele>1169</ele>
        <time>2021-09-28T07:09:47.000Z</time>
      </trkpt>
      <trkpt lat="47.91184" lon="7.0493">
        <ele>1169.1</ele>
        <time>2021-09-28T07:09:54.000Z</time>
      </trkpt>
      <trkpt lat="47.91176" lon="7.04939">
        <ele>1169.7</ele>
        <time>2021-09-28T07:10:02.000Z</time>
      </trkpt>
      <trkpt lat="47.91171" lon="7.0495">
        <ele>1170.6</ele>
        <time>2021-09-28T07:10:09.000Z</time>
      </trkpt>
      <trkpt lat="47.91163" lon="7.04957">
        <ele>1171.4</ele>
        <time>2021-09-28T07:10:16.000Z</time>
      </trkpt>
      <trkpt lat="47.91156" lon="7.04967">
        <ele>1172.8</ele>
        <time>2021-09-28T07:10:26.000Z</time>
      </trkpt>
      <trkpt lat="47.91148" lon="7.04975">
        <ele>1174.1</ele>
        <time>2021-09-28T07:10:34.000Z</time>
      </trkpt>
      <trkpt lat="47.91141" lon="7.04984">
        <ele>1175.7</ele>
        <time>2021-09-28T07:10:41.000Z</time>
      </trkpt>
      <trkpt lat="47.91132" lon="7.04991">
        <ele>1177.5</ele>
        <time>2021-09-28T07:10:52.000Z</time>
      </trkpt>
      <trkpt lat="47.91126" lon="7.05003">
        <ele>1179.5</ele>
        <time>2021-09-28T07:11:03.000Z</time>
      </trkpt>
      <trkpt lat="47.91119" lon="7.05011">
        <ele>1180.3</ele>
        <time>2021-09-28T07:11:11.000Z</time>
      </trkpt>
      <trkpt lat="47.91112" lon="7.05021">
        <ele>1181</ele>
        <time>2021-09-28T07:11:21.000Z</time>
      </trkpt>
      <trkpt lat="47.91108" lon="7.05033">
        <ele>1181.6</ele>
        <time>2021-09-28T07:11:31.000Z</time>
      </trkpt>
      <trkpt lat="47.91099" lon="7.0504">
        <ele>1182.4</ele>
        <time>2021-09-28T07:11:39.000Z</time>
      </trkpt>
      <trkpt lat="47.91091" lon="7.0505">
        <ele>1183.1</ele>
        <time>2021-09-28T07:11:47.000Z</time>
      </trkpt>
      <trkpt lat="47.91084" lon="7.05058">
        <ele>1183.7</ele>
        <time>2021-09-28T07:11:56.000Z</time>
      </trkpt>
      <trkpt lat="47.91078" lon="7.0507">
        <ele>1183.5</ele>
        <time>2021-09-28T07:12:05.000Z</time>
      </trkpt>
      <trkpt lat="47.91071" lon="7.05079">
        <ele>1183.2</ele>
        <time>2021-09-28T07:12:26.000Z</time>
      </trkpt>
      <trkpt lat="47.9107" lon="7.05093">
        <ele>1182.6</ele>
        <time>2021-09-28T07:12:33.000Z</time>
      </trkpt>
      <trkpt lat="47.9107" lon="7.05108">
        <ele>1181.7</ele>
        <time>2021-09-28T07:12:41.000Z</time>
      </trkpt>
      <trkpt lat="47.91069" lon="7.05121">
        <ele>1180.9</ele>
        <time>2021-09-28T07:12:48.000Z</time>
      </trkpt>
      <trkpt lat="47.91068" lon="7.05135">
        <ele>1180</ele>
        <time>2021-09-28T07:12:55.000Z</time>
      </trkpt>
      <trkpt lat="47.91069" lon="7.05149">
        <ele>1179.2</ele>
        <time>2021-09-28T07:13:01.000Z</time>
      </trkpt>
      <trkpt lat="47.91067" lon="7.05164">
        <ele>1178.2</ele>
        <time>2021-09-28T07:13:09.000Z</time>
      </trkpt>
      <trkpt lat="47.91066" lon="7.05177">
        <ele>1178.2</ele>
        <time>2021-09-28T07:13:16.000Z</time>
      </trkpt>
      <trkpt lat="47.91064" lon="7.05192">
        <ele>1178.5</ele>
        <time>2021-09-28T07:13:23.000Z</time>
      </trkpt>
      <trkpt lat="47.91064" lon="7.05208">
        <ele>1179</ele>
        <time>2021-09-28T07:13:30.000Z</time>
      </trkpt>
      <trkpt lat="47.91064" lon="7.05222">
        <ele>1179.4</ele>
        <time>2021-09-28T07:13:38.000Z</time>
      </trkpt>
      <trkpt lat="47.91065" lon="7.05236">
        <ele>1179.8</ele>
        <time>2021-09-28T07:13:45.000Z</time>
      </trkpt>
      <trkpt lat="47.91066" lon="7.05249">
        <ele>1180.3</ele>
        <time>2021-09-28T07:13:53.000Z</time>
      </trkpt>
      <trkpt lat="47.91067" lon="7.05265">
        <ele>1182.2</ele>
        <time>2021-09-28T07:14:01.000Z</time>
      </trkpt>
      <trkpt lat="47.91066" lon="7.05278">
        <ele>1183.9</ele>
        <time>2021-09-28T07:14:10.000Z</time>
      </trkpt>
      <trkpt lat="47.9107" lon="7.05291">
        <ele>1186.2</ele>
        <time>2021-09-28T07:14:22.000Z</time>
      </trkpt>
      <trkpt lat="47.9107" lon="7.05306">
        <ele>1187.9</ele>
        <time>2021-09-28T07:14:34.000Z</time>
      </trkpt>
      <trkpt lat="47.9107" lon="7.0532">
        <ele>1189.8</ele>
        <time>2021-09-28T07:14:46.000Z</time>
      </trkpt>
      <trkpt lat="47.91068" lon="7.05333">
        <ele>1191.3</ele>
        <time>2021-09-28T07:14:58.000Z</time>
      </trkpt>
      <trkpt lat="47.91068" lon="7.05347">
        <ele>1192.9</ele>
        <time>2021-09-28T07:15:08.000Z</time>
      </trkpt>
      <trkpt lat="47.91068" lon="7.05361">
        <ele>1194.5</ele>
        <time>2021-09-28T07:15:17.000Z</time>
      </trkpt>
      <trkpt lat="47.91069" lon="7.05375">
        <ele>1196.3</ele>
        <time>2021-09-28T07:15:27.000Z</time>
      </trkpt>
      <trkpt lat="47.91072" lon="7.05388">
        <ele>1198.5</ele>
        <time>2021-09-28T07:15:39.000Z</time>
      </trkpt>
      <trkpt lat="47.91071" lon="7.05403">
        <ele>1200.2</ele>
        <time>2021-09-28T07:15:48.000Z</time>
      </trkpt>
      <trkpt lat="47.91073" lon="7.05416">
        <ele>1202.4</ele>
        <time>2021-09-28T07:15:58.000Z</time>
      </trkpt>
      <trkpt lat="47.91074" lon="7.0543">
        <ele>1202.5</ele>
        <time>2021-09-28T07:16:07.000Z</time>
      </trkpt>
      <trkpt lat="47.91075" lon="7.05445">
        <ele>1202.8</ele>
        <time>2021-09-28T07:16:16.000Z</time>
      </trkpt>
      <trkpt lat="47.91075" lon="7.05458">
        <ele>1202.7</ele>
        <time>2021-09-28T07:16:27.000Z</time>
      </trkpt>
      <trkpt lat="47.91077" lon="7.05473">
        <ele>1202.9</ele>
        <time>2021-09-28T07:16:34.000Z</time>
      </trkpt>
      <trkpt lat="47.91079" lon="7.05486">
        <ele>1203.3</ele>
        <time>2021-09-28T07:16:43.000Z</time>
      </trkpt>
      <trkpt lat="47.91077" lon="7.055">
        <ele>1202.8</ele>
        <time>2021-09-28T07:16:51.000Z</time>
      </trkpt>
      <trkpt lat="47.91082" lon="7.05513">
        <ele>1204.4</ele>
        <time>2021-09-28T07:17:00.000Z</time>
      </trkpt>
      <trkpt lat="47.91082" lon="7.05529">
        <ele>1205</ele>
        <time>2021-09-28T07:17:06.000Z</time>
      </trkpt>
      <trkpt lat="47.91081" lon="7.05545">
        <ele>1205.5</ele>
        <time>2021-09-28T07:17:14.000Z</time>
      </trkpt>
      <trkpt lat="47.91082" lon="7.05559">
        <ele>1206.4</ele>
        <time>2021-09-28T07:17:21.000Z</time>
      </trkpt>
      <trkpt lat="47.91082" lon="7.05572">
        <ele>1207</ele>
        <time>2021-09-28T07:17:28.000Z</time>
      </trkpt>
      <trkpt lat="47.91081" lon="7.05587">
        <ele>1207.3</ele>
        <time>2021-09-28T07:17:35.000Z</time>
      </trkpt>
      <trkpt lat="47.91079" lon="7.056">
        <ele>1207.5</ele>
        <time>2021-09-28T07:17:45.000Z</time>
      </trkpt>
      <trkpt lat="47.9108" lon="7.05613">
        <ele>1208.2</ele>
        <time>2021-09-28T07:17:56.000Z</time>
      </trkpt>
      <trkpt lat="47.91078" lon="7.05627">
        <ele>1208</ele>
        <time>2021-09-28T07:18:04.000Z</time>
      </trkpt>
      <trkpt lat="47.91079" lon="7.05642">
        <ele>1209.1</ele>
        <time>2021-09-28T07:18:11.000Z</time>
      </trkpt>
      <trkpt lat="47.91078" lon="7.05657">
        <ele>1209</ele>
        <time>2021-09-28T07:18:18.000Z</time>
      </trkpt>
      <trkpt lat="47.91079" lon="7.05672">
        <ele>1209.3</ele>
        <time>2021-09-28T07:18:26.000Z</time>
      </trkpt>
      <trkpt lat="47.91079" lon="7.05687">
        <ele>1208.2</ele>
        <time>2021-09-28T07:18:33.000Z</time>
      </trkpt>
      <trkpt lat="47.91076" lon="7.05701">
        <ele>1205.3</ele>
        <time>2021-09-28T07:18:40.000Z</time>
      </trkpt>
      <trkpt lat="47.91078" lon="7.05714">
        <ele>1205.3</ele>
        <time>2021-09-28T07:18:49.000Z</time>
      </trkpt>
      <trkpt lat="47.91081" lon="7.05728">
        <ele>1205.4</ele>
        <time>2021-09-28T07:18:58.000Z</time>
      </trkpt>
      <trkpt lat="47.91082" lon="7.05742">
        <ele>1204.7</ele>
        <time>2021-09-28T07:19:05.000Z</time>
      </trkpt>
      <trkpt lat="47.91085" lon="7.05755">
        <ele>1204.9</ele>
        <time>2021-09-28T07:19:14.000Z</time>
      </trkpt>
      <trkpt lat="47.91088" lon="7.05769">
        <ele>1204.1</ele>
        <time>2021-09-28T07:19:23.000Z</time>
      </trkpt>
      <trkpt lat="47.91094" lon="7.05781">
        <ele>1203.9</ele>
        <time>2021-09-28T07:19:31.000Z</time>
      </trkpt>
      <trkpt lat="47.91096" lon="7.05796">
        <ele>1202.7</ele>
        <time>2021-09-28T07:19:40.000Z</time>
      </trkpt>
      <trkpt lat="47.91096" lon="7.0581">
        <ele>1201.3</ele>
        <time>2021-09-28T07:19:48.000Z</time>
      </trkpt>
      <trkpt lat="47.91095" lon="7.05825">
        <ele>1199.7</ele>
        <time>2021-09-28T07:19:55.000Z</time>
      </trkpt>
      <trkpt lat="47.91095" lon="7.05839">
        <ele>1198.5</ele>
        <time>2021-09-28T07:20:02.000Z</time>
      </trkpt>
      <trkpt lat="47.91098" lon="7.05853">
        <ele>1197.6</ele>
        <time>2021-09-28T07:20:11.000Z</time>
      </trkpt>
      <trkpt lat="47.91104" lon="7.05862">
        <ele>1197.4</ele>
        <time>2021-09-28T07:20:18.000Z</time>
      </trkpt>
      <trkpt lat="47.9111" lon="7.05874">
        <ele>1196.7</ele>
        <time>2021-09-28T07:20:26.000Z</time>
      </trkpt>
      <trkpt lat="47.91117" lon="7.05885">
        <ele>1196.1</ele>
        <time>2021-09-28T07:20:34.000Z</time>
      </trkpt>
      <trkpt lat="47.91122" lon="7.05896">
        <ele>1195.3</ele>
        <time>2021-09-28T07:20:42.000Z</time>
      </trkpt>
      <trkpt lat="47.91127" lon="7.0591">
        <ele>1194.3</ele>
        <time>2021-09-28T07:20:50.000Z</time>
      </trkpt>
      <trkpt lat="47.91133" lon="7.05921">
        <ele>1193.7</ele>
        <time>2021-09-28T07:20:58.000Z</time>
      </trkpt>
      <trkpt lat="47.91137" lon="7.05933">
        <ele>1193.7</ele>
        <time>2021-09-28T07:21:03.000Z</time>
      </trkpt>
      <trkpt lat="47.91143" lon="7.05944">
        <ele>1194</ele>
        <time>2021-09-28T07:21:10.000Z</time>
      </trkpt>
      <trkpt lat="47.91151" lon="7.05953">
        <ele>1194.7</ele>
        <time>2021-09-28T07:21:18.000Z</time>
      </trkpt>
      <trkpt lat="47.91154" lon="7.05966">
        <ele>1195.2</ele>
        <time>2021-09-28T07:21:26.000Z</time>
      </trkpt>
      <trkpt lat="47.91154" lon="7.05981">
        <ele>1195.4</ele>
        <time>2021-09-28T07:21:34.000Z</time>
      </trkpt>
      <trkpt lat="47.91156" lon="7.05994">
        <ele>1195.9</ele>
        <time>2021-09-28T07:21:40.000Z</time>
      </trkpt>
      <trkpt lat="47.91154" lon="7.06007">
        <ele>1196.2</ele>
        <time>2021-09-28T07:21:49.000Z</time>
      </trkpt>
      <trkpt lat="47.91152" lon="7.06021">
        <ele>1196.5</ele>
        <time>2021-09-28T07:22:06.000Z</time>
      </trkpt>
      <trkpt lat="47.91153" lon="7.06035">
        <ele>1197.5</ele>
        <time>2021-09-28T07:22:13.000Z</time>
      </trkpt>
      <trkpt lat="47.91155" lon="7.06048">
        <ele>1199</ele>
        <time>2021-09-28T07:22:21.000Z</time>
      </trkpt>
      <trkpt lat="47.91155" lon="7.06062">
        <ele>1199.7</ele>
        <time>2021-09-28T07:22:32.000Z</time>
      </trkpt>
      <trkpt lat="47.91152" lon="7.06076">
        <ele>1199.7</ele>
        <time>2021-09-28T07:22:40.000Z</time>
      </trkpt>
      <trkpt lat="47.91149" lon="7.06089">
        <ele>1199.7</ele>
        <time>2021-09-28T07:22:48.000Z</time>
      </trkpt>
      <trkpt lat="47.91147" lon="7.06103">
        <ele>1200.1</ele>
        <time>2021-09-28T07:22:56.000Z</time>
      </trkpt>
      <trkpt lat="47.91145" lon="7.06117">
        <ele>1200.4</ele>
        <time>2021-09-28T07:23:04.000Z</time>
      </trkpt>
      <trkpt lat="47.91142" lon="7.06131">
        <ele>1200.4</ele>
        <time>2021-09-28T07:23:11.000Z</time>
      </trkpt>
      <trkpt lat="47.91138" lon="7.06146">
        <ele>1200</ele>
        <time>2021-09-28T07:23:18.000Z</time>
      </trkpt>
      <trkpt lat="47.91135" lon="7.06159">
        <ele>1199.6</ele>
        <time>2021-09-28T07:23:29.000Z</time>
      </trkpt>
      <trkpt lat="47.9113" lon="7.06173">
        <ele>1198.6</ele>
        <time>2021-09-28T07:23:37.000Z</time>
      </trkpt>
      <trkpt lat="47.91127" lon="7.06187">
        <ele>1197.8</ele>
        <time>2021-09-28T07:23:44.000Z</time>
      </trkpt>
      <trkpt lat="47.91124" lon="7.06199">
        <ele>1196.8</ele>
        <time>2021-09-28T07:23:51.000Z</time>
      </trkpt>
      <trkpt lat="47.91119" lon="7.06212">
        <ele>1195.4</ele>
        <time>2021-09-28T07:23:58.000Z</time>
      </trkpt>
      <trkpt lat="47.91115" lon="7.06224">
        <ele>1194.4</ele>
        <time>2021-09-28T07:24:06.000Z</time>
      </trkpt>
      <trkpt lat="47.91114" lon="7.06239">
        <ele>1194.4</ele>
        <time>2021-09-28T07:24:15.000Z</time>
      </trkpt>
      <trkpt lat="47.91116" lon="7.06252">
        <ele>1195.3</ele>
        <time>2021-09-28T07:24:24.000Z</time>
      </trkpt>
      <trkpt lat="47.91116" lon="7.06266">
        <ele>1196.4</ele>
        <time>2021-09-28T07:24:33.000Z</time>
      </trkpt>
      <trkpt lat="47.91114" lon="7.0628">
        <ele>1196.7</ele>
        <time>2021-09-28T07:24:41.000Z</time>
      </trkpt>
      <trkpt lat="47.91113" lon="7.06295">
        <ele>1197.3</ele>
        <time>2021-09-28T07:24:47.000Z</time>
      </trkpt>
      <trkpt lat="47.91116" lon="7.06308">
        <ele>1199.1</ele>
        <time>2021-09-28T07:24:56.000Z</time>
      </trkpt>
      <trkpt lat="47.91114" lon="7.06321">
        <ele>1199.4</ele>
        <time>2021-09-28T07:25:04.000Z</time>
      </trkpt>
      <trkpt lat="47.91112" lon="7.06336">
        <ele>1199.4</ele>
        <time>2021-09-28T07:25:12.000Z</time>
      </trkpt>
      <trkpt lat="47.91109" lon="7.06349">
        <ele>1199.6</ele>
        <time>2021-09-28T07:25:19.000Z</time>
      </trkpt>
      <trkpt lat="47.91105" lon="7.06363">
        <ele>1199.6</ele>
        <time>2021-09-28T07:25:28.000Z</time>
      </trkpt>
      <trkpt lat="47.91101" lon="7.06377">
        <ele>1199.7</ele>
        <time>2021-09-28T07:25:36.000Z</time>
      </trkpt>
      <trkpt lat="47.91096" lon="7.06389">
        <ele>1199.7</ele>
        <time>2021-09-28T07:25:44.000Z</time>
      </trkpt>
      <trkpt lat="47.91091" lon="7.064">
        <ele>1199.6</ele>
        <time>2021-09-28T07:25:51.000Z</time>
      </trkpt>
      <trkpt lat="47.91085" lon="7.06413">
        <ele>1200</ele>
        <time>2021-09-28T07:25:58.000Z</time>
      </trkpt>
      <trkpt lat="47.91079" lon="7.06424">
        <ele>1199.3</ele>
        <time>2021-09-28T07:26:05.000Z</time>
      </trkpt>
      <trkpt lat="47.91073" lon="7.06436">
        <ele>1198.5</ele>
        <time>2021-09-28T07:26:13.000Z</time>
      </trkpt>
      <trkpt lat="47.9107" lon="7.06449">
        <ele>1199</ele>
        <time>2021-09-28T07:26:19.000Z</time>
      </trkpt>
      <trkpt lat="47.91066" lon="7.06462">
        <ele>1199</ele>
        <time>2021-09-28T07:26:28.000Z</time>
      </trkpt>
      <trkpt lat="47.91059" lon="7.06472">
        <ele>1198.2</ele>
        <time>2021-09-28T07:26:36.000Z</time>
      </trkpt>
      <trkpt lat="47.91053" lon="7.06482">
        <ele>1197.4</ele>
        <time>2021-09-28T07:26:43.000Z</time>
      </trkpt>
      <trkpt lat="47.91049" lon="7.06495">
        <ele>1197.7</ele>
        <time>2021-09-28T07:26:48.000Z</time>
      </trkpt>
      <trkpt lat="47.91043" lon="7.06507">
        <ele>1197.4</ele>
        <time>2021-09-28T07:26:56.000Z</time>
      </trkpt>
      <trkpt lat="47.91039" lon="7.06518">
        <ele>1197.1</ele>
        <time>2021-09-28T07:27:02.000Z</time>
      </trkpt>
      <trkpt lat="47.91033" lon="7.06529">
        <ele>1196.4</ele>
        <time>2021-09-28T07:27:12.000Z</time>
      </trkpt>
      <trkpt lat="47.91026" lon="7.0654">
        <ele>1195.8</ele>
        <time>2021-09-28T07:27:21.000Z</time>
      </trkpt>
      <trkpt lat="47.91019" lon="7.0655">
        <ele>1195.1</ele>
        <time>2021-09-28T07:27:28.000Z</time>
      </trkpt>
      <trkpt lat="47.91012" lon="7.06561">
        <ele>1194.7</ele>
        <time>2021-09-28T07:27:36.000Z</time>
      </trkpt>
      <trkpt lat="47.91006" lon="7.06572">
        <ele>1194.7</ele>
        <time>2021-09-28T07:27:44.000Z</time>
      </trkpt>
      <trkpt lat="47.91001" lon="7.06584">
        <ele>1195.3</ele>
        <time>2021-09-28T07:27:51.000Z</time>
      </trkpt>
      <trkpt lat="47.90995" lon="7.06597">
        <ele>1194.8</ele>
        <time>2021-09-28T07:27:58.000Z</time>
      </trkpt>
      <trkpt lat="47.90989" lon="7.06607">
        <ele>1194.3</ele>
        <time>2021-09-28T07:28:05.000Z</time>
      </trkpt>
      <trkpt lat="47.90983" lon="7.06619">
        <ele>1194</ele>
        <time>2021-09-28T07:28:13.000Z</time>
      </trkpt>
      <trkpt lat="47.90975" lon="7.06628">
        <ele>1193.4</ele>
        <time>2021-09-28T07:28:21.000Z</time>
      </trkpt>
      <trkpt lat="47.90966" lon="7.06637">
        <ele>1192.7</ele>
        <time>2021-09-28T07:28:29.000Z</time>
      </trkpt>
      <trkpt lat="47.90958" lon="7.06646">
        <ele>1192.4</ele>
        <time>2021-09-28T07:28:36.000Z</time>
      </trkpt>
      <trkpt lat="47.90952" lon="7.06656">
        <ele>1192.6</ele>
        <time>2021-09-28T07:28:45.000Z</time>
      </trkpt>
      <trkpt lat="47.90945" lon="7.06665">
        <ele>1192.5</ele>
        <time>2021-09-28T07:28:56.000Z</time>
      </trkpt>
      <trkpt lat="47.90934" lon="7.06668">
        <ele>1191.3</ele>
        <time>2021-09-28T07:29:07.000Z</time>
      </trkpt>
      <trkpt lat="47.90926" lon="7.06675">
        <ele>1190.2</ele>
        <time>2021-09-28T07:29:15.000Z</time>
      </trkpt>
      <trkpt lat="47.90917" lon="7.06686">
        <ele>1189.3</ele>
        <time>2021-09-28T07:29:22.000Z</time>
      </trkpt>
      <trkpt lat="47.90911" lon="7.06695">
        <ele>1188.9</ele>
        <time>2021-09-28T07:29:27.000Z</time>
      </trkpt>
      <trkpt lat="47.90901" lon="7.06697">
        <ele>1188.1</ele>
        <time>2021-09-28T07:29:34.000Z</time>
      </trkpt>
      <trkpt lat="47.90892" lon="7.06702">
        <ele>1187.6</ele>
        <time>2021-09-28T07:29:41.000Z</time>
      </trkpt>
      <trkpt lat="47.90883" lon="7.06706">
        <ele>1187.1</ele>
        <time>2021-09-28T07:29:48.000Z</time>
      </trkpt>
      <trkpt lat="47.90876" lon="7.06714">
        <ele>1187.1</ele>
        <time>2021-09-28T07:29:56.000Z</time>
      </trkpt>
      <trkpt lat="47.90869" lon="7.06723">
        <ele>1187.2</ele>
        <time>2021-09-28T07:30:03.000Z</time>
      </trkpt>
      <trkpt lat="47.90863" lon="7.06735">
        <ele>1187.7</ele>
        <time>2021-09-28T07:30:10.000Z</time>
      </trkpt>
      <trkpt lat="47.90855" lon="7.06746">
        <ele>1188.2</ele>
        <time>2021-09-28T07:30:18.000Z</time>
      </trkpt>
      <trkpt lat="47.90848" lon="7.06756">
        <ele>1188.4</ele>
        <time>2021-09-28T07:30:26.000Z</time>
      </trkpt>
      <trkpt lat="47.90842" lon="7.06766">
        <ele>1188.3</ele>
        <time>2021-09-28T07:30:35.000Z</time>
      </trkpt>
      <trkpt lat="47.90837" lon="7.06777">
        <ele>1188.4</ele>
        <time>2021-09-28T07:30:45.000Z</time>
      </trkpt>
      <trkpt lat="47.90832" lon="7.06788">
        <ele>1188.6</ele>
        <time>2021-09-28T07:30:52.000Z</time>
      </trkpt>
      <trkpt lat="47.90826" lon="7.06801">
        <ele>1189.4</ele>
        <time>2021-09-28T07:31:03.000Z</time>
      </trkpt>
      <trkpt lat="47.90819" lon="7.06812">
        <ele>1190.3</ele>
        <time>2021-09-28T07:31:10.000Z</time>
      </trkpt>
      <trkpt lat="47.90812" lon="7.06823">
        <ele>1191.5</ele>
        <time>2021-09-28T07:31:18.000Z</time>
      </trkpt>
      <trkpt lat="47.90805" lon="7.06832">
        <ele>1192.7</ele>
        <time>2021-09-28T07:31:25.000Z</time>
      </trkpt>
      <trkpt lat="47.90799" lon="7.06845">
        <ele>1193.5</ele>
        <time>2021-09-28T07:31:33.000Z</time>
      </trkpt>
      <trkpt lat="47.90794" lon="7.06858">
        <ele>1194.1</ele>
        <time>2021-09-28T07:31:40.000Z</time>
      </trkpt>
      <trkpt lat="47.9079" lon="7.0687">
        <ele>1194.8</ele>
        <time>2021-09-28T07:31:48.000Z</time>
      </trkpt>
      <trkpt lat="47.90787" lon="7.06884">
        <ele>1195.1</ele>
        <time>2021-09-28T07:31:56.000Z</time>
      </trkpt>
      <trkpt lat="47.90784" lon="7.06896">
        <ele>1195.5</ele>
        <time>2021-09-28T07:32:03.000Z</time>
      </trkpt>
      <trkpt lat="47.90781" lon="7.06909">
        <ele>1196</ele>
        <time>2021-09-28T07:32:10.000Z</time>
      </trkpt>
      <trkpt lat="47.90777" lon="7.06921">
        <ele>1196.3</ele>
        <time>2021-09-28T07:32:17.000Z</time>
      </trkpt>
      <trkpt lat="47.90774" lon="7.06935">
        <ele>1196.3</ele>
        <time>2021-09-28T07:32:24.000Z</time>
      </trkpt>
      <trkpt lat="47.90772" lon="7.06949">
        <ele>1196.1</ele>
        <time>2021-09-28T07:32:32.000Z</time>
      </trkpt>
      <trkpt lat="47.9077" lon="7.06963">
        <ele>1195.9</ele>
        <time>2021-09-28T07:32:40.000Z</time>
      </trkpt>
      <trkpt lat="47.90767" lon="7.06978">
        <ele>1195.8</ele>
        <time>2021-09-28T07:32:48.000Z</time>
      </trkpt>
      <trkpt lat="47.90766" lon="7.06992">
        <ele>1195.6</ele>
        <time>2021-09-28T07:32:55.000Z</time>
      </trkpt>
      <trkpt lat="47.90763" lon="7.07005">
        <ele>1195.6</ele>
        <time>2021-09-28T07:33:02.000Z</time>
      </trkpt>
      <trkpt lat="47.9076" lon="7.07018">
        <ele>1195.7</ele>
        <time>2021-09-28T07:33:10.000Z</time>
      </trkpt>
      <trkpt lat="47.90758" lon="7.07032">
        <ele>1195.8</ele>
        <time>2021-09-28T07:33:17.000Z</time>
      </trkpt>
      <trkpt lat="47.90755" lon="7.07045">
        <ele>1196</ele>
        <time>2021-09-28T07:33:25.000Z</time>
      </trkpt>
      <trkpt lat="47.9075" lon="7.07058">
        <ele>1196.3</ele>
        <time>2021-09-28T07:33:32.000Z</time>
      </trkpt>
      <trkpt lat="47.90748" lon="7.07071">
        <ele>1196.7</ele>
        <time>2021-09-28T07:33:38.000Z</time>
      </trkpt>
      <trkpt lat="47.90742" lon="7.07082">
        <ele>1197.8</ele>
        <time>2021-09-28T07:33:46.000Z</time>
      </trkpt>
      <trkpt lat="47.90734" lon="7.07088">
        <ele>1199.8</ele>
        <time>2021-09-28T07:34:10.000Z</time>
      </trkpt>
      <trkpt lat="47.90733" lon="7.07074">
        <ele>1200</ele>
        <time>2021-09-28T07:34:33.000Z</time>
      </trkpt>
      <trkpt lat="47.90735" lon="7.0706">
        <ele>1199.6</ele>
        <time>2021-09-28T07:34:43.000Z</time>
      </trkpt>
      <trkpt lat="47.90735" lon="7.07046">
        <ele>1199.5</ele>
        <time>2021-09-28T07:34:52.000Z</time>
      </trkpt>
      <trkpt lat="47.90733" lon="7.0703">
        <ele>1200.1</ele>
        <time>2021-09-28T07:35:02.000Z</time>
      </trkpt>
      <trkpt lat="47.90732" lon="7.07015">
        <ele>1200.2</ele>
        <time>2021-09-28T07:35:11.000Z</time>
      </trkpt>
      <trkpt lat="47.90729" lon="7.07003">
        <ele>1200.8</ele>
        <time>2021-09-28T07:35:19.000Z</time>
      </trkpt>
      <trkpt lat="47.90724" lon="7.06991">
        <ele>1202</ele>
        <time>2021-09-28T07:35:28.000Z</time>
      </trkpt>
      <trkpt lat="47.90716" lon="7.06984">
        <ele>1203.6</ele>
        <time>2021-09-28T07:35:41.000Z</time>
      </trkpt>
      <trkpt lat="47.90706" lon="7.0698">
        <ele>1205.3</ele>
        <time>2021-09-28T07:35:55.000Z</time>
      </trkpt>
      <trkpt lat="47.907" lon="7.0697">
        <ele>1206.7</ele>
        <time>2021-09-28T07:36:06.000Z</time>
      </trkpt>
      <trkpt lat="47.90692" lon="7.06963">
        <ele>1208.2</ele>
        <time>2021-09-28T07:36:16.000Z</time>
      </trkpt>
      <trkpt lat="47.90684" lon="7.06956">
        <ele>1209.7</ele>
        <time>2021-09-28T07:36:26.000Z</time>
      </trkpt>
      <trkpt lat="47.90675" lon="7.06951">
        <ele>1211.2</ele>
        <time>2021-09-28T07:36:37.000Z</time>
      </trkpt>
      <trkpt lat="47.90671" lon="7.06964">
        <ele>1211.8</ele>
        <time>2021-09-28T07:36:46.000Z</time>
      </trkpt>
      <trkpt lat="47.90662" lon="7.06971">
        <ele>1213.4</ele>
        <time>2021-09-28T07:36:56.000Z</time>
      </trkpt>
      <trkpt lat="47.90653" lon="7.06977">
        <ele>1215.2</ele>
        <time>2021-09-28T07:37:08.000Z</time>
      </trkpt>
      <trkpt lat="47.90644" lon="7.06981">
        <ele>1217.1</ele>
        <time>2021-09-28T07:37:18.000Z</time>
      </trkpt>
      <trkpt lat="47.90636" lon="7.06987">
        <ele>1219.2</ele>
        <time>2021-09-28T07:37:30.000Z</time>
      </trkpt>
      <trkpt lat="47.90627" lon="7.0699">
        <ele>1221.3</ele>
        <time>2021-09-28T07:37:39.000Z</time>
      </trkpt>
      <trkpt lat="47.90618" lon="7.06994">
        <ele>1223.5</ele>
        <time>2021-09-28T07:37:50.000Z</time>
      </trkpt>
      <trkpt lat="47.90609" lon="7.06998">
        <ele>1225.7</ele>
        <time>2021-09-28T07:37:59.000Z</time>
      </trkpt>
      <trkpt lat="47.906" lon="7.07">
        <ele>1228.1</ele>
        <time>2021-09-28T07:38:08.000Z</time>
      </trkpt>
      <trkpt lat="47.9059" lon="7.07002">
        <ele>1230.6</ele>
        <time>2021-09-28T07:38:18.000Z</time>
      </trkpt>
      <trkpt lat="47.90581" lon="7.07005">
        <ele>1232.7</ele>
        <time>2021-09-28T07:38:28.000Z</time>
      </trkpt>
      <trkpt lat="47.90571" lon="7.07008">
        <ele>1234</ele>
        <time>2021-09-28T07:38:40.000Z</time>
      </trkpt>
      <trkpt lat="47.90562" lon="7.07013">
        <ele>1235.5</ele>
        <time>2021-09-28T07:38:54.000Z</time>
      </trkpt>
      <trkpt lat="47.90553" lon="7.07015">
        <ele>1236.8</ele>
        <time>2021-09-28T07:39:08.000Z</time>
      </trkpt>
      <trkpt lat="47.90544" lon="7.07022">
        <ele>1238.5</ele>
        <time>2021-09-28T07:39:29.000Z</time>
      </trkpt>
      <trkpt lat="47.90538" lon="7.07032">
        <ele>1240.4</ele>
        <time>2021-09-28T07:39:47.000Z</time>
      </trkpt>
      <trkpt lat="47.90528" lon="7.07034">
        <ele>1241.9</ele>
        <time>2021-09-28T07:40:04.000Z</time>
      </trkpt>
      <trkpt lat="47.9052" lon="7.0704">
        <ele>1243.7</ele>
        <time>2021-09-28T07:40:18.000Z</time>
      </trkpt>
      <trkpt lat="47.90512" lon="7.07049">
        <ele>1245.9</ele>
        <time>2021-09-28T07:40:30.000Z</time>
      </trkpt>
      <trkpt lat="47.90508" lon="7.07062">
        <ele>1248</ele>
        <time>2021-09-28T07:40:44.000Z</time>
      </trkpt>
      <trkpt lat="47.90509" lon="7.07076">
        <ele>1249.6</ele>
        <time>2021-09-28T07:40:56.000Z</time>
      </trkpt>
      <trkpt lat="47.90508" lon="7.07089">
        <ele>1251.6</ele>
        <time>2021-09-28T07:41:11.000Z</time>
      </trkpt>
      <trkpt lat="47.90504" lon="7.07102">
        <ele>1254.1</ele>
        <time>2021-09-28T07:41:25.000Z</time>
      </trkpt>
      <trkpt lat="47.90503" lon="7.07117">
        <ele>1256.3</ele>
        <time>2021-09-28T07:41:34.000Z</time>
      </trkpt>
      <trkpt lat="47.90502" lon="7.07131">
        <ele>1258.5</ele>
        <time>2021-09-28T07:41:44.000Z</time>
      </trkpt>
      <trkpt lat="47.90506" lon="7.07144">
        <ele>1259.9</ele>
        <time>2021-09-28T07:41:56.000Z</time>
      </trkpt>
      <trkpt lat="47.90504" lon="7.07159">
        <ele>1262.2</ele>
        <time>2021-09-28T07:42:08.000Z</time>
      </trkpt>
      <trkpt lat="47.90501" lon="7.07172">
        <ele>1264.4</ele>
        <time>2021-09-28T07:42:16.000Z</time>
      </trkpt>
      <trkpt lat="47.90501" lon="7.07186">
        <ele>1266</ele>
        <time>2021-09-28T07:42:27.000Z</time>
      </trkpt>
      <trkpt lat="47.90499" lon="7.072">
        <ele>1267.5</ele>
        <time>2021-09-28T07:42:39.000Z</time>
      </trkpt>
      <trkpt lat="47.90496" lon="7.07213">
        <ele>1268.1</ele>
        <time>2021-09-28T07:42:49.000Z</time>
      </trkpt>
      <trkpt lat="47.90491" lon="7.07225">
        <ele>1268.3</ele>
        <time>2021-09-28T07:43:03.000Z</time>
      </trkpt>
      <trkpt lat="47.90491" lon="7.07239">
        <ele>1269.8</ele>
        <time>2021-09-28T07:43:14.000Z</time>
      </trkpt>
      <trkpt lat="47.90491" lon="7.07252">
        <ele>1271</ele>
        <time>2021-09-28T07:43:22.000Z</time>
      </trkpt>
      <trkpt lat="47.90487" lon="7.07266">
        <ele>1271.2</ele>
        <time>2021-09-28T07:43:32.000Z</time>
      </trkpt>
      <trkpt lat="47.9048" lon="7.07274">
        <ele>1270.2</ele>
        <time>2021-09-28T07:43:42.000Z</time>
      </trkpt>
      <trkpt lat="47.90474" lon="7.07286">
        <ele>1270</ele>
        <time>2021-09-28T07:43:48.000Z</time>
      </trkpt>
      <trkpt lat="47.90469" lon="7.07297">
        <ele>1270</ele>
        <time>2021-09-28T07:43:56.000Z</time>
      </trkpt>
      <trkpt lat="47.90463" lon="7.07307">
        <ele>1269.8</ele>
        <time>2021-09-28T07:44:06.000Z</time>
      </trkpt>
      <trkpt lat="47.90459" lon="7.0732">
        <ele>1270.3</ele>
        <time>2021-09-28T07:44:15.000Z</time>
      </trkpt>
      <trkpt lat="47.90457" lon="7.07334">
        <ele>1271.3</ele>
        <time>2021-09-28T07:44:24.000Z</time>
      </trkpt>
      <trkpt lat="47.90456" lon="7.07349">
        <ele>1272.2</ele>
        <time>2021-09-28T07:44:35.000Z</time>
      </trkpt>
      <trkpt lat="47.90454" lon="7.07364">
        <ele>1273.1</ele>
        <time>2021-09-28T07:44:45.000Z</time>
      </trkpt>
      <trkpt lat="47.90453" lon="7.07379">
        <ele>1274.1</ele>
        <time>2021-09-28T07:44:51.000Z</time>
      </trkpt>
      <trkpt lat="47.90449" lon="7.07393">
        <ele>1274.8</ele>
        <time>2021-09-28T07:45:03.000Z</time>
      </trkpt>
      <trkpt lat="47.9045" lon="7.07406">
        <ele>1276</ele>
        <time>2021-09-28T07:45:11.000Z</time>
      </trkpt>
      <trkpt lat="47.90448" lon="7.0742">
        <ele>1276.8</ele>
        <time>2021-09-28T07:45:22.000Z</time>
      </trkpt>
      <trkpt lat="47.90444" lon="7.07434">
        <ele>1277.5</ele>
        <time>2021-09-28T07:45:30.000Z</time>
      </trkpt>
      <trkpt lat="47.90443" lon="7.07447">
        <ele>1278.4</ele>
        <time>2021-09-28T07:45:37.000Z</time>
      </trkpt>
      <trkpt lat="47.90439" lon="7.07461">
        <ele>1279.1</ele>
        <time>2021-09-28T07:45:44.000Z</time>
      </trkpt>
      <trkpt lat="47.90439" lon="7.07475">
        <ele>1280</ele>
        <time>2021-09-28T07:45:56.000Z</time>
      </trkpt>
      <trkpt lat="47.90437" lon="7.07489">
        <ele>1281</ele>
        <time>2021-09-28T07:46:06.000Z</time>
      </trkpt>
      <trkpt lat="47.90436" lon="7.07504">
        <ele>1282</ele>
        <time>2021-09-28T07:46:15.000Z</time>
      </trkpt>
      <trkpt lat="47.90434" lon="7.07517">
        <ele>1283.1</ele>
        <time>2021-09-28T07:46:22.000Z</time>
      </trkpt>
      <trkpt lat="47.90429" lon="7.0753">
        <ele>1284</ele>
        <time>2021-09-28T07:46:33.000Z</time>
      </trkpt>
      <trkpt lat="47.90427" lon="7.07544">
        <ele>1285.2</ele>
        <time>2021-09-28T07:46:45.000Z</time>
      </trkpt>
      <trkpt lat="47.90423" lon="7.07557">
        <ele>1286.1</ele>
        <time>2021-09-28T07:46:52.000Z</time>
      </trkpt>
      <trkpt lat="47.90422" lon="7.07572">
        <ele>1287.4</ele>
        <time>2021-09-28T07:47:00.000Z</time>
      </trkpt>
      <trkpt lat="47.90421" lon="7.07585">
        <ele>1288.8</ele>
        <time>2021-09-28T07:47:08.000Z</time>
      </trkpt>
      <trkpt lat="47.90421" lon="7.07599">
        <ele>1291.4</ele>
        <time>2021-09-28T07:47:18.000Z</time>
      </trkpt>
      <trkpt lat="47.90414" lon="7.07608">
        <ele>1292.2</ele>
        <time>2021-09-28T07:47:29.000Z</time>
      </trkpt>
      <trkpt lat="47.90411" lon="7.07622">
        <ele>1294.2</ele>
        <time>2021-09-28T07:47:40.000Z</time>
      </trkpt>
      <trkpt lat="47.90406" lon="7.07639">
        <ele>1296.3</ele>
        <time>2021-09-28T07:48:03.000Z</time>
      </trkpt>
      <trkpt lat="47.90402" lon="7.07651">
        <ele>1297.8</ele>
        <time>2021-09-28T07:48:21.000Z</time>
      </trkpt>
      <trkpt lat="47.90396" lon="7.07662">
        <ele>1298.8</ele>
        <time>2021-09-28T07:48:35.000Z</time>
      </trkpt>
      <trkpt lat="47.9039" lon="7.07673">
        <ele>1299.7</ele>
        <time>2021-09-28T07:48:49.000Z</time>
      </trkpt>
      <trkpt lat="47.90381" lon="7.07673">
        <ele>1298.1</ele>
        <time>2021-09-28T07:48:58.000Z</time>
      </trkpt>
      <trkpt lat="47.90376" lon="7.07686">
        <ele>1299.7</ele>
        <time>2021-09-28T07:49:07.000Z</time>
      </trkpt>
      <trkpt lat="47.90369" lon="7.07697">
        <ele>1300.9</ele>
        <time>2021-09-28T07:49:20.000Z</time>
      </trkpt>
      <trkpt lat="47.90363" lon="7.07707">
        <ele>1302.1</ele>
        <time>2021-09-28T07:49:41.000Z</time>
      </trkpt>
      <trkpt lat="47.90357" lon="7.07719">
        <ele>1303.9</ele>
        <time>2021-09-28T07:49:51.000Z</time>
      </trkpt>
      <trkpt lat="47.9035" lon="7.07729">
        <ele>1305.2</ele>
        <time>2021-09-28T07:50:00.000Z</time>
      </trkpt>
      <trkpt lat="47.90346" lon="7.07741">
        <ele>1307.5</ele>
        <time>2021-09-28T07:50:12.000Z</time>
      </trkpt>
      <trkpt lat="47.90339" lon="7.07752">
        <ele>1309.2</ele>
        <time>2021-09-28T07:50:25.000Z</time>
      </trkpt>
      <trkpt lat="47.90335" lon="7.07765">
        <ele>1311.1</ele>
        <time>2021-09-28T07:50:40.000Z</time>
      </trkpt>
      <trkpt lat="47.90328" lon="7.07773">
        <ele>1311.9</ele>
        <time>2021-09-28T07:50:52.000Z</time>
      </trkpt>
      <trkpt lat="47.90323" lon="7.07785">
        <ele>1313.6</ele>
        <time>2021-09-28T07:51:02.000Z</time>
      </trkpt>
      <trkpt lat="47.90318" lon="7.07797">
        <ele>1315.5</ele>
        <time>2021-09-28T07:51:14.000Z</time>
      </trkpt>
      <trkpt lat="47.90316" lon="7.07811">
        <ele>1318.1</ele>
        <time>2021-09-28T07:51:24.000Z</time>
      </trkpt>
      <trkpt lat="47.9031" lon="7.07822">
        <ele>1320</ele>
        <time>2021-09-28T07:51:39.000Z</time>
      </trkpt>
      <trkpt lat="47.90306" lon="7.07834">
        <ele>1322.1</ele>
        <time>2021-09-28T07:51:55.000Z</time>
      </trkpt>
      <trkpt lat="47.903" lon="7.07847">
        <ele>1323.4</ele>
        <time>2021-09-28T07:52:11.000Z</time>
      </trkpt>
      <trkpt lat="47.90307" lon="7.07856">
        <ele>1324.9</ele>
        <time>2021-09-28T07:52:36.000Z</time>
      </trkpt>
      <trkpt lat="47.90316" lon="7.07855">
        <ele>1325.2</ele>
        <time>2021-09-28T07:52:51.000Z</time>
      </trkpt>
      <trkpt lat="47.90323" lon="7.07864">
        <ele>1326.5</ele>
        <time>2021-09-28T07:53:04.000Z</time>
      </trkpt>
      <trkpt lat="47.90324" lon="7.07878">
        <ele>1328</ele>
        <time>2021-09-28T07:53:19.000Z</time>
      </trkpt>
      <trkpt lat="47.90324" lon="7.07892">
        <ele>1329.5</ele>
        <time>2021-09-28T07:53:32.000Z</time>
      </trkpt>
      <trkpt lat="47.90327" lon="7.07906">
        <ele>1331</ele>
        <time>2021-09-28T07:53:41.000Z</time>
      </trkpt>
      <trkpt lat="47.90334" lon="7.07916">
        <ele>1331.9</ele>
        <time>2021-09-28T07:53:50.000Z</time>
      </trkpt>
      <trkpt lat="47.90329" lon="7.07928">
        <ele>1333</ele>
        <time>2021-09-28T07:54:18.000Z</time>
      </trkpt>
      <trkpt lat="47.90337" lon="7.0794">
        <ele>1334.1</ele>
        <time>2021-09-28T07:54:26.000Z</time>
      </trkpt>
      <trkpt lat="47.90345" lon="7.07954">
        <ele>1335.2</ele>
        <time>2021-09-28T07:54:36.000Z</time>
      </trkpt>
      <trkpt lat="47.90368" lon="7.0797">
        <ele>1336</ele>
        <time>2021-09-28T07:54:42.000Z</time>
      </trkpt>
      <trkpt lat="47.90417" lon="7.08048">
        <ele>1336.7</ele>
        <time>2021-09-28T07:54:47.000Z</time>
      </trkpt>
      <trkpt lat="47.9039" lon="7.08066">
        <ele>1337.9</ele>
        <time>2021-09-28T07:54:52.000Z</time>
      </trkpt>
      <trkpt lat="47.90372" lon="7.0806">
        <ele>1338.2</ele>
        <time>2021-09-28T07:54:57.000Z</time>
      </trkpt>
      <trkpt lat="47.90368" lon="7.08045">
        <ele>1338</ele>
        <time>2021-09-28T07:55:02.000Z</time>
      </trkpt>
      <trkpt lat="47.90364" lon="7.08027">
        <ele>1337.9</ele>
        <time>2021-09-28T07:55:07.000Z</time>
      </trkpt>
      <trkpt lat="47.90364" lon="7.08006">
        <ele>1337.6</ele>
        <time>2021-09-28T07:55:12.000Z</time>
      </trkpt>
      <trkpt lat="47.90372" lon="7.08014">
        <ele>1337.4</ele>
        <time>2021-09-28T07:55:25.000Z</time>
      </trkpt>
      <trkpt lat="47.90378" lon="7.08026">
        <ele>1337.4</ele>
        <time>2021-09-28T07:55:33.000Z</time>
      </trkpt>
      <trkpt lat="47.90385" lon="7.08036">
        <ele>1337.3</ele>
        <time>2021-09-28T07:55:41.000Z</time>
      </trkpt>
      <trkpt lat="47.90391" lon="7.08048">
        <ele>1337.4</ele>
        <time>2021-09-28T07:55:49.000Z</time>
      </trkpt>
      <trkpt lat="47.90396" lon="7.08061">
        <ele>1337.6</ele>
        <time>2021-09-28T07:55:57.000Z</time>
      </trkpt>
      <trkpt lat="47.90398" lon="7.08075">
        <ele>1338</ele>
        <time>2021-09-28T07:56:06.000Z</time>
      </trkpt>
      <trkpt lat="47.90391" lon="7.08063">
        <ele>1337.8</ele>
        <time>2021-09-28T07:56:16.000Z</time>
      </trkpt>
      <trkpt lat="47.90395" lon="7.08075">
        <ele>1338</ele>
        <time>2021-09-28T07:56:22.000Z</time>
      </trkpt>
      <trkpt lat="47.90408" lon="7.08093">
        <ele>1338.6</ele>
        <time>2021-09-28T07:56:27.000Z</time>
      </trkpt>
      <trkpt lat="47.90414" lon="7.08105">
        <ele>1339.4</ele>
        <time>2021-09-28T07:56:34.000Z</time>
      </trkpt>
      <trkpt lat="47.90418" lon="7.08117">
        <ele>1340.4</ele>
        <time>2021-09-28T07:56:41.000Z</time>
      </trkpt>
      <trkpt lat="47.90422" lon="7.0813">
        <ele>1341.3</ele>
        <time>2021-09-28T07:56:50.000Z</time>
      </trkpt>
      <trkpt lat="47.90429" lon="7.0814">
        <ele>1342</ele>
        <time>2021-09-28T07:57:04.000Z</time>
      </trkpt>
      <trkpt lat="47.90438" lon="7.08141">
        <ele>1342.1</ele>
        <time>2021-09-28T07:57:18.000Z</time>
      </trkpt>
      <trkpt lat="47.90446" lon="7.08147">
        <ele>1342.6</ele>
        <time>2021-09-28T07:57:27.000Z</time>
      </trkpt>
      <trkpt lat="47.90451" lon="7.08159">
        <ele>1343.7</ele>
        <time>2021-09-28T07:57:37.000Z</time>
      </trkpt>
      <trkpt lat="47.90457" lon="7.0817">
        <ele>1344.5</ele>
        <time>2021-09-28T07:57:51.000Z</time>
      </trkpt>
      <trkpt lat="47.90465" lon="7.08177">
        <ele>1344.6</ele>
        <time>2021-09-28T07:58:07.000Z</time>
      </trkpt>
      <trkpt lat="47.90469" lon="7.0819">
        <ele>1344.8</ele>
        <time>2021-09-28T07:58:24.000Z</time>
      </trkpt>
      <trkpt lat="47.90469" lon="7.08204">
        <ele>1345</ele>
        <time>2021-09-28T07:58:37.000Z</time>
      </trkpt>
      <trkpt lat="47.90477" lon="7.08212">
        <ele>1345.5</ele>
        <time>2021-09-28T07:58:53.000Z</time>
      </trkpt>
      <trkpt lat="47.90486" lon="7.08205">
        <ele>1345.7</ele>
        <time>2021-09-28T07:59:05.000Z</time>
      </trkpt>
      <trkpt lat="47.90494" lon="7.0821">
        <ele>1346.3</ele>
        <time>2021-09-28T08:01:58.000Z</time>
      </trkpt>
      <trkpt lat="47.90501" lon="7.08219">
        <ele>1346.5</ele>
        <time>2021-09-28T08:02:16.000Z</time>
      </trkpt>
      <trkpt lat="47.90505" lon="7.08232">
        <ele>1345.4</ele>
        <time>2021-09-28T08:02:23.000Z</time>
      </trkpt>
      <trkpt lat="47.90505" lon="7.08246">
        <ele>1345.9</ele>
        <time>2021-09-28T08:02:30.000Z</time>
      </trkpt>
      <trkpt lat="47.90505" lon="7.0826">
        <ele>1345</ele>
        <time>2021-09-28T08:02:41.000Z</time>
      </trkpt>
      <trkpt lat="47.90505" lon="7.08275">
        <ele>1343.9</ele>
        <time>2021-09-28T08:02:54.000Z</time>
      </trkpt>
      <trkpt lat="47.90507" lon="7.08289">
        <ele>1341.9</ele>
        <time>2021-09-28T08:03:02.000Z</time>
      </trkpt>
      <trkpt lat="47.90511" lon="7.08301">
        <ele>1339.9</ele>
        <time>2021-09-28T08:03:09.000Z</time>
      </trkpt>
      <trkpt lat="47.90516" lon="7.08313">
        <ele>1337.3</ele>
        <time>2021-09-28T08:03:17.000Z</time>
      </trkpt>
      <trkpt lat="47.90519" lon="7.08327">
        <ele>1335.7</ele>
        <time>2021-09-28T08:03:26.000Z</time>
      </trkpt>
      <trkpt lat="47.90524" lon="7.08339">
        <ele>1333.3</ele>
        <time>2021-09-28T08:03:45.000Z</time>
      </trkpt>
      <trkpt lat="47.90531" lon="7.08349">
        <ele>1330.5</ele>
        <time>2021-09-28T08:03:58.000Z</time>
      </trkpt>
      <trkpt lat="47.90537" lon="7.0836">
        <ele>1328.4</ele>
        <time>2021-09-28T08:04:11.000Z</time>
      </trkpt>
      <trkpt lat="47.9054" lon="7.08374">
        <ele>1326.5</ele>
        <time>2021-09-28T08:04:30.000Z</time>
      </trkpt>
      <trkpt lat="47.90548" lon="7.08383">
        <ele>1324.8</ele>
        <time>2021-09-28T08:04:43.000Z</time>
      </trkpt>
      <trkpt lat="47.90544" lon="7.08396">
        <ele>1324.4</ele>
        <time>2021-09-28T08:04:54.000Z</time>
      </trkpt>
      <trkpt lat="47.90541" lon="7.0841">
        <ele>1323.6</ele>
        <time>2021-09-28T08:05:09.000Z</time>
      </trkpt>
      <trkpt lat="47.90543" lon="7.08425">
        <ele>1321.4</ele>
        <time>2021-09-28T08:05:21.000Z</time>
      </trkpt>
      <trkpt lat="47.90543" lon="7.08439">
        <ele>1318.6</ele>
        <time>2021-09-28T08:05:30.000Z</time>
      </trkpt>
      <trkpt lat="47.90546" lon="7.08452">
        <ele>1316.1</ele>
        <time>2021-09-28T08:05:39.000Z</time>
      </trkpt>
      <trkpt lat="47.90551" lon="7.08464">
        <ele>1313.9</ele>
        <time>2021-09-28T08:05:46.000Z</time>
      </trkpt>
      <trkpt lat="47.90557" lon="7.08475">
        <ele>1312.1</ele>
        <time>2021-09-28T08:05:53.000Z</time>
      </trkpt>
      <trkpt lat="47.90563" lon="7.08487">
        <ele>1310.5</ele>
        <time>2021-09-28T08:06:00.000Z</time>
      </trkpt>
      <trkpt lat="47.90567" lon="7.08499">
        <ele>1308.7</ele>
        <time>2021-09-28T08:06:09.000Z</time>
      </trkpt>
      <trkpt lat="47.90565" lon="7.08513">
        <ele>1305.3</ele>
        <time>2021-09-28T08:06:23.000Z</time>
      </trkpt>
      <trkpt lat="47.90565" lon="7.08528">
        <ele>1301.7</ele>
        <time>2021-09-28T08:06:34.000Z</time>
      </trkpt>
      <trkpt lat="47.90562" lon="7.08541">
        <ele>1298.2</ele>
        <time>2021-09-28T08:06:47.000Z</time>
      </trkpt>
      <trkpt lat="47.90559" lon="7.08555">
        <ele>1294.5</ele>
        <time>2021-09-28T08:06:59.000Z</time>
      </trkpt>
      <trkpt lat="47.90561" lon="7.08569">
        <ele>1291.4</ele>
        <time>2021-09-28T08:07:16.000Z</time>
      </trkpt>
      <trkpt lat="47.90559" lon="7.08582">
        <ele>1288</ele>
        <time>2021-09-28T08:07:28.000Z</time>
      </trkpt>
      <trkpt lat="47.9056" lon="7.08596">
        <ele>1283.8</ele>
        <time>2021-09-28T08:07:38.000Z</time>
      </trkpt>
      <trkpt lat="47.90559" lon="7.0861">
        <ele>1279.2</ele>
        <time>2021-09-28T08:07:49.000Z</time>
      </trkpt>
      <trkpt lat="47.90557" lon="7.08624">
        <ele>1274.7</ele>
        <time>2021-09-28T08:08:00.000Z</time>
      </trkpt>
      <trkpt lat="47.90557" lon="7.08638">
        <ele>1270.1</ele>
        <time>2021-09-28T08:08:12.000Z</time>
      </trkpt>
      <trkpt lat="47.90557" lon="7.08652">
        <ele>1265.7</ele>
        <time>2021-09-28T08:08:23.000Z</time>
      </trkpt>
      <trkpt lat="47.9056" lon="7.08667">
        <ele>1261.2</ele>
        <time>2021-09-28T08:08:34.000Z</time>
      </trkpt>
      <trkpt lat="47.90558" lon="7.0868">
        <ele>1258.6</ele>
        <time>2021-09-28T08:08:42.000Z</time>
      </trkpt>
      <trkpt lat="47.90557" lon="7.08694">
        <ele>1256.1</ele>
        <time>2021-09-28T08:08:51.000Z</time>
      </trkpt>
      <trkpt lat="47.90557" lon="7.08709">
        <ele>1253.5</ele>
        <time>2021-09-28T08:09:00.000Z</time>
      </trkpt>
      <trkpt lat="47.90559" lon="7.08722">
        <ele>1251.1</ele>
        <time>2021-09-28T08:09:10.000Z</time>
      </trkpt>
      <trkpt lat="47.90558" lon="7.08737">
        <ele>1248.4</ele>
        <time>2021-09-28T08:09:20.000Z</time>
      </trkpt>
      <trkpt lat="47.90558" lon="7.08751">
        <ele>1246</ele>
        <time>2021-09-28T08:09:26.000Z</time>
      </trkpt>
      <trkpt lat="47.90559" lon="7.08766">
        <ele>1244.2</ele>
        <time>2021-09-28T08:09:34.000Z</time>
      </trkpt>
      <trkpt lat="47.90559" lon="7.08781">
        <ele>1242.5</ele>
        <time>2021-09-28T08:09:42.000Z</time>
      </trkpt>
      <trkpt lat="47.90559" lon="7.08795">
        <ele>1240.9</ele>
        <time>2021-09-28T08:09:49.000Z</time>
      </trkpt>
      <trkpt lat="47.9056" lon="7.08809">
        <ele>1239.2</ele>
        <time>2021-09-28T08:09:57.000Z</time>
      </trkpt>
      <trkpt lat="47.90558" lon="7.08824">
        <ele>1237.5</ele>
        <time>2021-09-28T08:10:04.000Z</time>
      </trkpt>
      <trkpt lat="47.90557" lon="7.08837">
        <ele>1236</ele>
        <time>2021-09-28T08:10:11.000Z</time>
      </trkpt>
      <trkpt lat="47.90557" lon="7.08851">
        <ele>1234.8</ele>
        <time>2021-09-28T08:10:17.000Z</time>
      </trkpt>
      <trkpt lat="47.90556" lon="7.08865">
        <ele>1233.6</ele>
        <time>2021-09-28T08:10:25.000Z</time>
      </trkpt>
      <trkpt lat="47.90554" lon="7.08878">
        <ele>1232.4</ele>
        <time>2021-09-28T08:10:36.000Z</time>
      </trkpt>
      <trkpt lat="47.90551" lon="7.08892">
        <ele>1231.3</ele>
        <time>2021-09-28T08:10:46.000Z</time>
      </trkpt>
      <trkpt lat="47.90547" lon="7.08905">
        <ele>1230.2</ele>
        <time>2021-09-28T08:10:55.000Z</time>
      </trkpt>
      <trkpt lat="47.90543" lon="7.08918">
        <ele>1229.4</ele>
        <time>2021-09-28T08:11:05.000Z</time>
      </trkpt>
      <trkpt lat="47.9054" lon="7.08932">
        <ele>1228.3</ele>
        <time>2021-09-28T08:11:14.000Z</time>
      </trkpt>
      <trkpt lat="47.90537" lon="7.08945">
        <ele>1227.2</ele>
        <time>2021-09-28T08:11:25.000Z</time>
      </trkpt>
      <trkpt lat="47.90534" lon="7.08958">
        <ele>1226.3</ele>
        <time>2021-09-28T08:11:34.000Z</time>
      </trkpt>
      <trkpt lat="47.90528" lon="7.08971">
        <ele>1225.7</ele>
        <time>2021-09-28T08:11:42.000Z</time>
      </trkpt>
      <trkpt lat="47.90522" lon="7.08982">
        <ele>1225.2</ele>
        <time>2021-09-28T08:11:49.000Z</time>
      </trkpt>
      <trkpt lat="47.90516" lon="7.08995">
        <ele>1224.9</ele>
        <time>2021-09-28T08:11:56.000Z</time>
      </trkpt>
      <trkpt lat="47.90509" lon="7.09006">
        <ele>1225.3</ele>
        <time>2021-09-28T08:12:05.000Z</time>
      </trkpt>
      <trkpt lat="47.90504" lon="7.09017">
        <ele>1226.4</ele>
        <time>2021-09-28T08:12:13.000Z</time>
      </trkpt>
      <trkpt lat="47.90498" lon="7.09029">
        <ele>1227.3</ele>
        <time>2021-09-28T08:12:41.000Z</time>
      </trkpt>
      <trkpt lat="47.90494" lon="7.09041">
        <ele>1227.5</ele>
        <time>2021-09-28T08:12:52.000Z</time>
      </trkpt>
      <trkpt lat="47.90487" lon="7.09052">
        <ele>1227.8</ele>
        <time>2021-09-28T08:12:59.000Z</time>
      </trkpt>
      <trkpt lat="47.90482" lon="7.09062">
        <ele>1228.1</ele>
        <time>2021-09-28T08:13:06.000Z</time>
      </trkpt>
      <trkpt lat="47.90474" lon="7.09071">
        <ele>1228.5</ele>
        <time>2021-09-28T08:13:14.000Z</time>
      </trkpt>
      <trkpt lat="47.90467" lon="7.09082">
        <ele>1229.1</ele>
        <time>2021-09-28T08:13:22.000Z</time>
      </trkpt>
      <trkpt lat="47.90461" lon="7.09093">
        <ele>1230.1</ele>
        <time>2021-09-28T08:13:31.000Z</time>
      </trkpt>
      <trkpt lat="47.90456" lon="7.09106">
        <ele>1231.4</ele>
        <time>2021-09-28T08:13:40.000Z</time>
      </trkpt>
      <trkpt lat="47.90452" lon="7.09118">
        <ele>1232.9</ele>
        <time>2021-09-28T08:13:50.000Z</time>
      </trkpt>
      <trkpt lat="47.90451" lon="7.09133">
        <ele>1234.6</ele>
        <time>2021-09-28T08:13:59.000Z</time>
      </trkpt>
      <trkpt lat="47.90447" lon="7.09146">
        <ele>1236.4</ele>
        <time>2021-09-28T08:14:09.000Z</time>
      </trkpt>
      <trkpt lat="47.90443" lon="7.09159">
        <ele>1238.1</ele>
        <time>2021-09-28T08:14:17.000Z</time>
      </trkpt>
      <trkpt lat="47.90451" lon="7.09166">
        <ele>1238.5</ele>
        <time>2021-09-28T08:14:27.000Z</time>
      </trkpt>
      <trkpt lat="47.90454" lon="7.09179">
        <ele>1239.3</ele>
        <time>2021-09-28T08:14:39.000Z</time>
      </trkpt>
      <trkpt lat="47.90454" lon="7.09193">
        <ele>1240.4</ele>
        <time>2021-09-28T08:14:47.000Z</time>
      </trkpt>
      <trkpt lat="47.90454" lon="7.09207">
        <ele>1241.4</ele>
        <time>2021-09-28T08:14:57.000Z</time>
      </trkpt>
      <trkpt lat="47.90456" lon="7.09221">
        <ele>1242.4</ele>
        <time>2021-09-28T08:15:07.000Z</time>
      </trkpt>
      <trkpt lat="47.90457" lon="7.09235">
        <ele>1243.5</ele>
        <time>2021-09-28T08:15:16.000Z</time>
      </trkpt>
      <trkpt lat="47.90458" lon="7.0925">
        <ele>1244.6</ele>
        <time>2021-09-28T08:15:26.000Z</time>
      </trkpt>
      <trkpt lat="47.90459" lon="7.09264">
        <ele>1246.8</ele>
        <time>2021-09-28T08:15:35.000Z</time>
      </trkpt>
      <trkpt lat="47.9046" lon="7.09278">
        <ele>1248.9</ele>
        <time>2021-09-28T08:15:46.000Z</time>
      </trkpt>
      <trkpt lat="47.90463" lon="7.09291">
        <ele>1250.7</ele>
        <time>2021-09-28T08:15:57.000Z</time>
      </trkpt>
      <trkpt lat="47.90467" lon="7.09305">
        <ele>1252.5</ele>
        <time>2021-09-28T08:16:06.000Z</time>
      </trkpt>
      <trkpt lat="47.90469" lon="7.09319">
        <ele>1254.3</ele>
        <time>2021-09-28T08:16:15.000Z</time>
      </trkpt>
      <trkpt lat="47.90472" lon="7.09331">
        <ele>1255.7</ele>
        <time>2021-09-28T08:16:24.000Z</time>
      </trkpt>
      <trkpt lat="47.90476" lon="7.09344">
        <ele>1256.9</ele>
        <time>2021-09-28T08:16:32.000Z</time>
      </trkpt>
      <trkpt lat="47.90479" lon="7.09357">
        <ele>1258.3</ele>
        <time>2021-09-28T08:16:41.000Z</time>
      </trkpt>
      <trkpt lat="47.90479" lon="7.09372">
        <ele>1260.6</ele>
        <time>2021-09-28T08:16:53.000Z</time>
      </trkpt>
      <trkpt lat="47.90483" lon="7.09384">
        <ele>1261.9</ele>
        <time>2021-09-28T08:17:01.000Z</time>
      </trkpt>
      <trkpt lat="47.90483" lon="7.09399">
        <ele>1263.9</ele>
        <time>2021-09-28T08:17:12.000Z</time>
      </trkpt>
      <trkpt lat="47.90486" lon="7.09412">
        <ele>1265.4</ele>
        <time>2021-09-28T08:17:20.000Z</time>
      </trkpt>
      <trkpt lat="47.90491" lon="7.09424">
        <ele>1266.2</ele>
        <time>2021-09-28T08:17:32.000Z</time>
      </trkpt>
      <trkpt lat="47.90494" lon="7.09438">
        <ele>1267.7</ele>
        <time>2021-09-28T08:17:41.000Z</time>
      </trkpt>
      <trkpt lat="47.90497" lon="7.09452">
        <ele>1269</ele>
        <time>2021-09-28T08:17:50.000Z</time>
      </trkpt>
      <trkpt lat="47.905" lon="7.09465">
        <ele>1270.6</ele>
        <time>2021-09-28T08:17:59.000Z</time>
      </trkpt>
      <trkpt lat="47.90504" lon="7.09478">
        <ele>1271.9</ele>
        <time>2021-09-28T08:18:08.000Z</time>
      </trkpt>
      <trkpt lat="47.9051" lon="7.0949">
        <ele>1272.7</ele>
        <time>2021-09-28T08:18:18.000Z</time>
      </trkpt>
      <trkpt lat="47.90515" lon="7.09502">
        <ele>1273.5</ele>
        <time>2021-09-28T08:18:29.000Z</time>
      </trkpt>
      <trkpt lat="47.9052" lon="7.09515">
        <ele>1274.3</ele>
        <time>2021-09-28T08:18:38.000Z</time>
      </trkpt>
      <trkpt lat="47.90523" lon="7.09528">
        <ele>1275.4</ele>
        <time>2021-09-28T08:18:49.000Z</time>
      </trkpt>
      <trkpt lat="47.90525" lon="7.09542">
        <ele>1276.6</ele>
        <time>2021-09-28T08:18:58.000Z</time>
      </trkpt>
      <trkpt lat="47.90527" lon="7.09555">
        <ele>1277.9</ele>
        <time>2021-09-28T08:19:07.000Z</time>
      </trkpt>
      <trkpt lat="47.90528" lon="7.09569">
        <ele>1279.4</ele>
        <time>2021-09-28T08:19:16.000Z</time>
      </trkpt>
      <trkpt lat="47.90527" lon="7.09585">
        <ele>1281.4</ele>
        <time>2021-09-28T08:19:25.000Z</time>
      </trkpt>
      <trkpt lat="47.90527" lon="7.096">
        <ele>1282.7</ele>
        <time>2021-09-28T08:19:37.000Z</time>
      </trkpt>
      <trkpt lat="47.90528" lon="7.09614">
        <ele>1283.5</ele>
        <time>2021-09-28T08:19:45.000Z</time>
      </trkpt>
      <trkpt lat="47.90526" lon="7.09628">
        <ele>1285.5</ele>
        <time>2021-09-28T08:19:54.000Z</time>
      </trkpt>
      <trkpt lat="47.9052" lon="7.09639">
        <ele>1288.3</ele>
        <time>2021-09-28T08:20:03.000Z</time>
      </trkpt>
      <trkpt lat="47.90517" lon="7.09652">
        <ele>1290.4</ele>
        <time>2021-09-28T08:20:11.000Z</time>
      </trkpt>
      <trkpt lat="47.90513" lon="7.09665">
        <ele>1292.9</ele>
        <time>2021-09-28T08:20:21.000Z</time>
      </trkpt>
      <trkpt lat="47.90514" lon="7.09679">
        <ele>1294</ele>
        <time>2021-09-28T08:20:30.000Z</time>
      </trkpt>
      <trkpt lat="47.90515" lon="7.09692">
        <ele>1295</ele>
        <time>2021-09-28T08:20:38.000Z</time>
      </trkpt>
      <trkpt lat="47.90518" lon="7.09706">
        <ele>1295.4</ele>
        <time>2021-09-28T08:20:48.000Z</time>
      </trkpt>
      <trkpt lat="47.90518" lon="7.09721">
        <ele>1296.9</ele>
        <time>2021-09-28T08:20:57.000Z</time>
      </trkpt>
      <trkpt lat="47.9052" lon="7.09734">
        <ele>1297.8</ele>
        <time>2021-09-28T08:21:07.000Z</time>
      </trkpt>
      <trkpt lat="47.90522" lon="7.09748">
        <ele>1298.3</ele>
        <time>2021-09-28T08:21:17.000Z</time>
      </trkpt>
      <trkpt lat="47.90526" lon="7.09762">
        <ele>1298.5</ele>
        <time>2021-09-28T08:21:24.000Z</time>
      </trkpt>
      <trkpt lat="47.90527" lon="7.09776">
        <ele>1299.5</ele>
        <time>2021-09-28T08:21:34.000Z</time>
      </trkpt>
      <trkpt lat="47.90528" lon="7.0979">
        <ele>1300.7</ele>
        <time>2021-09-28T08:21:45.000Z</time>
      </trkpt>
      <trkpt lat="47.90529" lon="7.09803">
        <ele>1301.7</ele>
        <time>2021-09-28T08:21:56.000Z</time>
      </trkpt>
      <trkpt lat="47.9053" lon="7.09817">
        <ele>1302.6</ele>
        <time>2021-09-28T08:22:04.000Z</time>
      </trkpt>
      <trkpt lat="47.90529" lon="7.09832">
        <ele>1304.5</ele>
        <time>2021-09-28T08:22:17.000Z</time>
      </trkpt>
      <trkpt lat="47.90532" lon="7.09845">
        <ele>1304.8</ele>
        <time>2021-09-28T08:22:24.000Z</time>
      </trkpt>
      <trkpt lat="47.90531" lon="7.09859">
        <ele>1305.9</ele>
        <time>2021-09-28T08:22:33.000Z</time>
      </trkpt>
      <trkpt lat="47.90531" lon="7.09873">
        <ele>1306.9</ele>
        <time>2021-09-28T08:22:41.000Z</time>
      </trkpt>
      <trkpt lat="47.90531" lon="7.09887">
        <ele>1308.2</ele>
        <time>2021-09-28T08:22:51.000Z</time>
      </trkpt>
      <trkpt lat="47.90528" lon="7.099">
        <ele>1310.4</ele>
        <time>2021-09-28T08:23:02.000Z</time>
      </trkpt>
      <trkpt lat="47.90526" lon="7.09915">
        <ele>1312.1</ele>
        <time>2021-09-28T08:23:12.000Z</time>
      </trkpt>
      <trkpt lat="47.90523" lon="7.09928">
        <ele>1313.8</ele>
        <time>2021-09-28T08:23:21.000Z</time>
      </trkpt>
      <trkpt lat="47.9052" lon="7.09941">
        <ele>1315.4</ele>
        <time>2021-09-28T08:23:32.000Z</time>
      </trkpt>
      <trkpt lat="47.90517" lon="7.09953">
        <ele>1317</ele>
        <time>2021-09-28T08:23:41.000Z</time>
      </trkpt>
      <trkpt lat="47.90518" lon="7.09967">
        <ele>1316.9</ele>
        <time>2021-09-28T08:23:50.000Z</time>
      </trkpt>
      <trkpt lat="47.90515" lon="7.09982">
        <ele>1318.1</ele>
        <time>2021-09-28T08:24:00.000Z</time>
      </trkpt>
      <trkpt lat="47.90516" lon="7.09996">
        <ele>1318.2</ele>
        <time>2021-09-28T08:24:09.000Z</time>
      </trkpt>
      <trkpt lat="47.90517" lon="7.1001">
        <ele>1318.2</ele>
        <time>2021-09-28T08:24:18.000Z</time>
      </trkpt>
      <trkpt lat="47.90514" lon="7.10023">
        <ele>1320</ele>
        <time>2021-09-28T08:24:28.000Z</time>
      </trkpt>
      <trkpt lat="47.90513" lon="7.10036">
        <ele>1320.7</ele>
        <time>2021-09-28T08:24:37.000Z</time>
      </trkpt>
      <trkpt lat="47.90514" lon="7.1005">
        <ele>1320.9</ele>
        <time>2021-09-28T08:24:45.000Z</time>
      </trkpt>
      <trkpt lat="47.90513" lon="7.10063">
        <ele>1322</ele>
        <time>2021-09-28T08:24:54.000Z</time>
      </trkpt>
      <trkpt lat="47.90512" lon="7.10078">
        <ele>1322.8</ele>
        <time>2021-09-28T08:25:03.000Z</time>
      </trkpt>
      <trkpt lat="47.90512" lon="7.10093">
        <ele>1323.4</ele>
        <time>2021-09-28T08:25:13.000Z</time>
      </trkpt>
      <trkpt lat="47.90511" lon="7.10107">
        <ele>1324.2</ele>
        <time>2021-09-28T08:25:23.000Z</time>
      </trkpt>
      <trkpt lat="47.90508" lon="7.1012">
        <ele>1325.8</ele>
        <time>2021-09-28T08:25:32.000Z</time>
      </trkpt>
      <trkpt lat="47.90506" lon="7.10134">
        <ele>1326.9</ele>
        <time>2021-09-28T08:25:42.000Z</time>
      </trkpt>
      <trkpt lat="47.90505" lon="7.10148">
        <ele>1327.9</ele>
        <time>2021-09-28T08:25:52.000Z</time>
      </trkpt>
      <trkpt lat="47.90502" lon="7.10162">
        <ele>1329.2</ele>
        <time>2021-09-28T08:26:03.000Z</time>
      </trkpt>
      <trkpt lat="47.90499" lon="7.10176">
        <ele>1330.5</ele>
        <time>2021-09-28T08:26:12.000Z</time>
      </trkpt>
      <trkpt lat="47.90494" lon="7.10188">
        <ele>1331.9</ele>
        <time>2021-09-28T08:26:23.000Z</time>
      </trkpt>
      <trkpt lat="47.9049" lon="7.102">
        <ele>1333.2</ele>
        <time>2021-09-28T08:26:33.000Z</time>
      </trkpt>
      <trkpt lat="47.90482" lon="7.10193">
        <ele>1335.6</ele>
        <time>2021-09-28T08:26:51.000Z</time>
      </trkpt>
      <trkpt lat="47.90478" lon="7.10179">
        <ele>1336.9</ele>
        <time>2021-09-28T08:27:03.000Z</time>
      </trkpt>
      <trkpt lat="47.90471" lon="7.10172">
        <ele>1339.4</ele>
        <time>2021-09-28T08:27:16.000Z</time>
      </trkpt>
      <trkpt lat="47.90462" lon="7.10176">
        <ele>1342</ele>
        <time>2021-09-28T08:27:27.000Z</time>
      </trkpt>
      <trkpt lat="47.90452" lon="7.10176">
        <ele>1344.9</ele>
        <time>2021-09-28T08:27:35.000Z</time>
      </trkpt>
      <trkpt lat="47.90445" lon="7.10186">
        <ele>1346.5</ele>
        <time>2021-09-28T08:27:45.000Z</time>
      </trkpt>
      <trkpt lat="47.90436" lon="7.1019">
        <ele>1348.9</ele>
        <time>2021-09-28T08:27:54.000Z</time>
      </trkpt>
      <trkpt lat="47.90427" lon="7.10197">
        <ele>1350.8</ele>
        <time>2021-09-28T08:28:01.000Z</time>
      </trkpt>
      <trkpt lat="47.90421" lon="7.10208">
        <ele>1351.4</ele>
        <time>2021-09-28T08:28:09.000Z</time>
      </trkpt>
      <trkpt lat="47.90418" lon="7.10221">
        <ele>1350.9</ele>
        <time>2021-09-28T08:28:17.000Z</time>
      </trkpt>
      <trkpt lat="47.90409" lon="7.10224">
        <ele>1351.8</ele>
        <time>2021-09-28T08:28:26.000Z</time>
      </trkpt>
      <trkpt lat="47.90406" lon="7.10211">
        <ele>1353.8</ele>
        <time>2021-09-28T08:28:43.000Z</time>
      </trkpt>
      <trkpt lat="47.90408" lon="7.10198">
        <ele>1355.2</ele>
        <time>2021-09-28T08:28:54.000Z</time>
      </trkpt>
      <trkpt lat="47.9041" lon="7.10184">
        <ele>1356.5</ele>
        <time>2021-09-28T08:29:05.000Z</time>
      </trkpt>
      <trkpt lat="47.90412" lon="7.10171">
        <ele>1357.9</ele>
        <time>2021-09-28T08:29:16.000Z</time>
      </trkpt>
      <trkpt lat="47.90414" lon="7.10158">
        <ele>1358.5</ele>
        <time>2021-09-28T08:29:24.000Z</time>
      </trkpt>
      <trkpt lat="47.90414" lon="7.10144">
        <ele>1359.3</ele>
        <time>2021-09-28T08:29:33.000Z</time>
      </trkpt>
      <trkpt lat="47.90416" lon="7.10131">
        <ele>1359.9</ele>
        <time>2021-09-28T08:29:44.000Z</time>
      </trkpt>
      <trkpt lat="47.90418" lon="7.10118">
        <ele>1359.9</ele>
        <time>2021-09-28T08:29:53.000Z</time>
      </trkpt>
      <trkpt lat="47.90416" lon="7.10103">
        <ele>1361.8</ele>
        <time>2021-09-28T08:30:03.000Z</time>
      </trkpt>
      <trkpt lat="47.90418" lon="7.1009">
        <ele>1362.1</ele>
        <time>2021-09-28T08:30:14.000Z</time>
      </trkpt>
      <trkpt lat="47.90412" lon="7.10079">
        <ele>1364.6</ele>
        <time>2021-09-28T08:30:24.000Z</time>
      </trkpt>
      <trkpt lat="47.90408" lon="7.10066">
        <ele>1366.4</ele>
        <time>2021-09-28T08:30:36.000Z</time>
      </trkpt>
      <trkpt lat="47.90404" lon="7.10053">
        <ele>1367.9</ele>
        <time>2021-09-28T08:30:46.000Z</time>
      </trkpt>
      <trkpt lat="47.90402" lon="7.10039">
        <ele>1368.9</ele>
        <time>2021-09-28T08:30:59.000Z</time>
      </trkpt>
      <trkpt lat="47.90398" lon="7.10025">
        <ele>1370.5</ele>
        <time>2021-09-28T08:31:09.000Z</time>
      </trkpt>
      <trkpt lat="47.90395" lon="7.10012">
        <ele>1372.3</ele>
        <time>2021-09-28T08:31:20.000Z</time>
      </trkpt>
      <trkpt lat="47.9039" lon="7.1">
        <ele>1374.4</ele>
        <time>2021-09-28T08:31:32.000Z</time>
      </trkpt>
      <trkpt lat="47.90387" lon="7.09987">
        <ele>1375.4</ele>
        <time>2021-09-28T08:31:45.000Z</time>
      </trkpt>
      <trkpt lat="47.90385" lon="7.09974">
        <ele>1375.5</ele>
        <time>2021-09-28T08:31:56.000Z</time>
      </trkpt>
      <trkpt lat="47.90382" lon="7.0996">
        <ele>1376.1</ele>
        <time>2021-09-28T08:32:07.000Z</time>
      </trkpt>
      <trkpt lat="47.90378" lon="7.09947">
        <ele>1377.1</ele>
        <time>2021-09-28T08:32:18.000Z</time>
      </trkpt>
      <trkpt lat="47.90371" lon="7.09936">
        <ele>1379</ele>
        <time>2021-09-28T08:32:29.000Z</time>
      </trkpt>
      <trkpt lat="47.90366" lon="7.09925">
        <ele>1380.5</ele>
        <time>2021-09-28T08:33:11.000Z</time>
      </trkpt>
      <trkpt lat="47.90359" lon="7.09916">
        <ele>1382.5</ele>
        <time>2021-09-28T08:33:25.000Z</time>
      </trkpt>
      <trkpt lat="47.9035" lon="7.0991">
        <ele>1384.6</ele>
        <time>2021-09-28T08:33:38.000Z</time>
      </trkpt>
      <trkpt lat="47.90342" lon="7.09903">
        <ele>1386.1</ele>
        <time>2021-09-28T08:33:48.000Z</time>
      </trkpt>
      <trkpt lat="47.90334" lon="7.09897">
        <ele>1388.2</ele>
        <time>2021-09-28T08:34:00.000Z</time>
      </trkpt>
      <trkpt lat="47.90324" lon="7.09892">
        <ele>1388.9</ele>
        <time>2021-09-28T08:34:12.000Z</time>
      </trkpt>
      <trkpt lat="47.90315" lon="7.09889">
        <ele>1390</ele>
        <time>2021-09-28T08:34:21.000Z</time>
      </trkpt>
      <trkpt lat="47.90307" lon="7.09896">
        <ele>1392.7</ele>
        <time>2021-09-28T08:34:35.000Z</time>
      </trkpt>
      <trkpt lat="47.90298" lon="7.09902">
        <ele>1395.1</ele>
        <time>2021-09-28T08:34:44.000Z</time>
      </trkpt>
      <trkpt lat="47.9029" lon="7.09909">
        <ele>1397.6</ele>
        <time>2021-09-28T08:34:53.000Z</time>
      </trkpt>
      <trkpt lat="47.90284" lon="7.09926">
        <ele>1400</ele>
        <time>2021-09-28T08:34:58.000Z</time>
      </trkpt>
      <trkpt lat="47.90275" lon="7.0992">
        <ele>1401.1</ele>
        <time>2021-09-28T08:35:11.000Z</time>
      </trkpt>
      <trkpt lat="47.90266" lon="7.0992">
        <ele>1402.5</ele>
        <time>2021-09-28T08:35:20.000Z</time>
      </trkpt>
      <trkpt lat="47.90256" lon="7.09917">
        <ele>1404.1</ele>
        <time>2021-09-28T08:35:29.000Z</time>
      </trkpt>
      <trkpt lat="47.90247" lon="7.09913">
        <ele>1404.8</ele>
        <time>2021-09-28T08:35:37.000Z</time>
      </trkpt>
      <trkpt lat="47.90238" lon="7.0991">
        <ele>1404.8</ele>
        <time>2021-09-28T08:35:44.000Z</time>
      </trkpt>
      <trkpt lat="47.9023" lon="7.09902">
        <ele>1404.5</ele>
        <time>2021-09-28T08:35:51.000Z</time>
      </trkpt>
      <trkpt lat="47.90222" lon="7.09898">
        <ele>1404.6</ele>
        <time>2021-09-28T08:36:01.000Z</time>
      </trkpt>
      <trkpt lat="47.90212" lon="7.09895">
        <ele>1405</ele>
        <time>2021-09-28T08:36:09.000Z</time>
      </trkpt>
      <trkpt lat="47.90203" lon="7.09893">
        <ele>1405.5</ele>
        <time>2021-09-28T08:36:18.000Z</time>
      </trkpt>
      <trkpt lat="47.90194" lon="7.09889">
        <ele>1406</ele>
        <time>2021-09-28T08:36:27.000Z</time>
      </trkpt>
      <trkpt lat="47.90187" lon="7.09879">
        <ele>1405.9</ele>
        <time>2021-09-28T08:36:36.000Z</time>
      </trkpt>
      <trkpt lat="47.9018" lon="7.09872">
        <ele>1406.2</ele>
        <time>2021-09-28T08:36:44.000Z</time>
      </trkpt>
      <trkpt lat="47.90172" lon="7.09866">
        <ele>1406.7</ele>
        <time>2021-09-28T08:36:51.000Z</time>
      </trkpt>
      <trkpt lat="47.90163" lon="7.0986">
        <ele>1407.2</ele>
        <time>2021-09-28T08:37:00.000Z</time>
      </trkpt>
      <trkpt lat="47.90154" lon="7.09853">
        <ele>1407.6</ele>
        <time>2021-09-28T08:37:08.000Z</time>
      </trkpt>
      <trkpt lat="47.90145" lon="7.09848">
        <ele>1408.2</ele>
        <time>2021-09-28T08:37:17.000Z</time>
      </trkpt>
      <trkpt lat="47.90135" lon="7.09844">
        <ele>1408.9</ele>
        <time>2021-09-28T08:37:27.000Z</time>
      </trkpt>
      <trkpt lat="47.90127" lon="7.09838">
        <ele>1409.4</ele>
        <time>2021-09-28T08:37:35.000Z</time>
      </trkpt>
      <trkpt lat="47.90117" lon="7.09832">
        <ele>1409.9</ele>
        <time>2021-09-28T08:37:44.000Z</time>
      </trkpt>
      <trkpt lat="47.90108" lon="7.09835">
        <ele>1411</ele>
        <time>2021-09-28T08:37:55.000Z</time>
      </trkpt>
      <trkpt lat="47.90099" lon="7.0984">
        <ele>1411.8</ele>
        <time>2021-09-28T08:38:03.000Z</time>
      </trkpt>
      <trkpt lat="47.90092" lon="7.09851">
        <ele>1412.3</ele>
        <time>2021-09-28T08:38:20.000Z</time>
      </trkpt>
      <trkpt lat="47.90085" lon="7.0986">
        <ele>1412.9</ele>
        <time>2021-09-28T08:38:30.000Z</time>
      </trkpt>
      <trkpt lat="47.90078" lon="7.0987">
        <ele>1411.8</ele>
        <time>2021-09-28T08:38:38.000Z</time>
      </trkpt>
      <trkpt lat="47.9007" lon="7.09878">
        <ele>1409.8</ele>
        <time>2021-09-28T08:38:48.000Z</time>
      </trkpt>
      <trkpt lat="47.90061" lon="7.09882">
        <ele>1407.8</ele>
        <time>2021-09-28T08:38:56.000Z</time>
      </trkpt>
      <trkpt lat="47.90051" lon="7.09886">
        <ele>1405.9</ele>
        <time>2021-09-28T08:39:04.000Z</time>
      </trkpt>
      <trkpt lat="47.90045" lon="7.09897">
        <ele>1405.1</ele>
        <time>2021-09-28T08:39:12.000Z</time>
      </trkpt>
      <trkpt lat="47.90037" lon="7.09905">
        <ele>1404</ele>
        <time>2021-09-28T08:39:21.000Z</time>
      </trkpt>
      <trkpt lat="47.90028" lon="7.09896">
        <ele>1401.6</ele>
        <time>2021-09-28T08:39:30.000Z</time>
      </trkpt>
      <trkpt lat="47.90022" lon="7.09906">
        <ele>1401.2</ele>
        <time>2021-09-28T08:39:39.000Z</time>
      </trkpt>
      <trkpt lat="47.90016" lon="7.09916">
        <ele>1400.8</ele>
        <time>2021-09-28T08:39:58.000Z</time>
      </trkpt>
      <trkpt lat="47.90015" lon="7.09931">
        <ele>1398.7</ele>
        <time>2021-09-28T08:41:21.000Z</time>
      </trkpt>
      <trkpt lat="47.90016" lon="7.09945">
        <ele>1396.8</ele>
        <time>2021-09-28T08:41:29.000Z</time>
      </trkpt>
      <trkpt lat="47.9002" lon="7.09958">
        <ele>1395.6</ele>
        <time>2021-09-28T08:41:38.000Z</time>
      </trkpt>
      <trkpt lat="47.90022" lon="7.09973">
        <ele>1393.6</ele>
        <time>2021-09-28T08:41:53.000Z</time>
      </trkpt>
      <trkpt lat="47.90014" lon="7.09978">
        <ele>1392</ele>
        <time>2021-09-28T08:42:00.000Z</time>
      </trkpt>
      <trkpt lat="47.90005" lon="7.09985">
        <ele>1390.2</ele>
        <time>2021-09-28T08:42:10.000Z</time>
      </trkpt>
      <trkpt lat="47.89996" lon="7.0999">
        <ele>1388.2</ele>
        <time>2021-09-28T08:42:17.000Z</time>
      </trkpt>
      <trkpt lat="47.89987" lon="7.0999">
        <ele>1386.1</ele>
        <time>2021-09-28T08:42:27.000Z</time>
      </trkpt>
      <trkpt lat="47.89977" lon="7.09992">
        <ele>1383.9</ele>
        <time>2021-09-28T08:42:37.000Z</time>
      </trkpt>
      <trkpt lat="47.89968" lon="7.09991">
        <ele>1382</ele>
        <time>2021-09-28T08:42:45.000Z</time>
      </trkpt>
      <trkpt lat="47.8996" lon="7.09986">
        <ele>1380.4</ele>
        <time>2021-09-28T08:42:54.000Z</time>
      </trkpt>
      <trkpt lat="47.89951" lon="7.09983">
        <ele>1378.6</ele>
        <time>2021-09-28T08:43:04.000Z</time>
      </trkpt>
      <trkpt lat="47.89945" lon="7.09973">
        <ele>1377.8</ele>
        <time>2021-09-28T08:43:13.000Z</time>
      </trkpt>
      <trkpt lat="47.89938" lon="7.09962">
        <ele>1376.8</ele>
        <time>2021-09-28T08:43:20.000Z</time>
      </trkpt>
      <trkpt lat="47.89932" lon="7.09952">
        <ele>1375.7</ele>
        <time>2021-09-28T08:43:29.000Z</time>
      </trkpt>
      <trkpt lat="47.89923" lon="7.09945">
        <ele>1373.5</ele>
        <time>2021-09-28T08:43:38.000Z</time>
      </trkpt>
      <trkpt lat="47.89916" lon="7.09936">
        <ele>1371.8</ele>
        <time>2021-09-28T08:43:45.000Z</time>
      </trkpt>
      <trkpt lat="47.89908" lon="7.09929">
        <ele>1368.3</ele>
        <time>2021-09-28T08:43:53.000Z</time>
      </trkpt>
      <trkpt lat="47.899" lon="7.0992">
        <ele>1364.7</ele>
        <time>2021-09-28T08:44:15.000Z</time>
      </trkpt>
      <trkpt lat="47.89904" lon="7.09906">
        <ele>1364.8</ele>
        <time>2021-09-28T08:44:28.000Z</time>
      </trkpt>
      <trkpt lat="47.89906" lon="7.09892">
        <ele>1363.8</ele>
        <time>2021-09-28T08:44:38.000Z</time>
      </trkpt>
      <trkpt lat="47.89911" lon="7.09879">
        <ele>1364.2</ele>
        <time>2021-09-28T08:44:47.000Z</time>
      </trkpt>
      <trkpt lat="47.89916" lon="7.09867">
        <ele>1364.9</ele>
        <time>2021-09-28T08:44:56.000Z</time>
      </trkpt>
      <trkpt lat="47.8992" lon="7.09854">
        <ele>1364.3</ele>
        <time>2021-09-28T08:45:06.000Z</time>
      </trkpt>
      <trkpt lat="47.89922" lon="7.09841">
        <ele>1363</ele>
        <time>2021-09-28T08:45:18.000Z</time>
      </trkpt>
      <trkpt lat="47.89913" lon="7.09845">
        <ele>1360.2</ele>
        <time>2021-09-28T08:45:36.000Z</time>
      </trkpt>
      <trkpt lat="47.89905" lon="7.09851">
        <ele>1357.1</ele>
        <time>2021-09-28T08:45:45.000Z</time>
      </trkpt>
      <trkpt lat="47.89895" lon="7.09856">
        <ele>1353.4</ele>
        <time>2021-09-28T08:45:52.000Z</time>
      </trkpt>
      <trkpt lat="47.89888" lon="7.09866">
        <ele>1351.3</ele>
        <time>2021-09-28T08:46:00.000Z</time>
      </trkpt>
      <trkpt lat="47.89883" lon="7.09877">
        <ele>1350.3</ele>
        <time>2021-09-28T08:46:09.000Z</time>
      </trkpt>
      <trkpt lat="47.89878" lon="7.09889">
        <ele>1349.6</ele>
        <time>2021-09-28T08:46:17.000Z</time>
      </trkpt>
      <trkpt lat="47.8987" lon="7.09895">
        <ele>1346.5</ele>
        <time>2021-09-28T08:46:28.000Z</time>
      </trkpt>
      <trkpt lat="47.89865" lon="7.09907">
        <ele>1345.8</ele>
        <time>2021-09-28T08:46:34.000Z</time>
      </trkpt>
      <trkpt lat="47.89861" lon="7.0992">
        <ele>1344.9</ele>
        <time>2021-09-28T08:46:43.000Z</time>
      </trkpt>
      <trkpt lat="47.89857" lon="7.09933">
        <ele>1343.3</ele>
        <time>2021-09-28T08:46:53.000Z</time>
      </trkpt>
      <trkpt lat="47.8985" lon="7.09943">
        <ele>1339.8</ele>
        <time>2021-09-28T08:47:03.000Z</time>
      </trkpt>
      <trkpt lat="47.89846" lon="7.09956">
        <ele>1338.4</ele>
        <time>2021-09-28T08:47:11.000Z</time>
      </trkpt>
      <trkpt lat="47.89844" lon="7.09969">
        <ele>1337.9</ele>
        <time>2021-09-28T08:47:21.000Z</time>
      </trkpt>
      <trkpt lat="47.89837" lon="7.09976">
        <ele>1334.7</ele>
        <time>2021-09-28T08:47:33.000Z</time>
      </trkpt>
      <trkpt lat="47.89836" lon="7.0999">
        <ele>1334.7</ele>
        <time>2021-09-28T08:47:42.000Z</time>
      </trkpt>
      <trkpt lat="47.89837" lon="7.10005">
        <ele>1335.3</ele>
        <time>2021-09-28T08:47:52.000Z</time>
      </trkpt>
      <trkpt lat="47.89836" lon="7.10018">
        <ele>1333.5</ele>
        <time>2021-09-28T08:48:00.000Z</time>
      </trkpt>
      <trkpt lat="47.89836" lon="7.10033">
        <ele>1332.3</ele>
        <time>2021-09-28T08:48:08.000Z</time>
      </trkpt>
      <trkpt lat="47.89838" lon="7.10051">
        <ele>1331.6</ele>
        <time>2021-09-28T08:48:35.000Z</time>
      </trkpt>
      <trkpt lat="47.89841" lon="7.10065">
        <ele>1331.3</ele>
        <time>2021-09-28T08:48:44.000Z</time>
      </trkpt>
      <trkpt lat="47.89843" lon="7.10079">
        <ele>1330.6</ele>
        <time>2021-09-28T08:48:52.000Z</time>
      </trkpt>
      <trkpt lat="47.89845" lon="7.10093">
        <ele>1330.3</ele>
        <time>2021-09-28T08:48:59.000Z</time>
      </trkpt>
      <trkpt lat="47.89845" lon="7.10109">
        <ele>1329.4</ele>
        <time>2021-09-28T08:49:17.000Z</time>
      </trkpt>
      <trkpt lat="47.89847" lon="7.10123">
        <ele>1328.9</ele>
        <time>2021-09-28T08:49:24.000Z</time>
      </trkpt>
      <trkpt lat="47.89848" lon="7.10136">
        <ele>1328.2</ele>
        <time>2021-09-28T08:49:30.000Z</time>
      </trkpt>
      <trkpt lat="47.89849" lon="7.10152">
        <ele>1327.4</ele>
        <time>2021-09-28T08:49:37.000Z</time>
      </trkpt>
      <trkpt lat="47.89854" lon="7.10163">
        <ele>1328.1</ele>
        <time>2021-09-28T08:49:45.000Z</time>
      </trkpt>
      <trkpt lat="47.89858" lon="7.10177">
        <ele>1327.1</ele>
        <time>2021-09-28T08:49:58.000Z</time>
      </trkpt>
      <trkpt lat="47.89857" lon="7.1019">
        <ele>1324.4</ele>
        <time>2021-09-28T08:50:06.000Z</time>
      </trkpt>
      <trkpt lat="47.89852" lon="7.10201">
        <ele>1321.3</ele>
        <time>2021-09-28T08:50:17.000Z</time>
      </trkpt>
      <trkpt lat="47.89843" lon="7.10207">
        <ele>1318.4</ele>
        <time>2021-09-28T08:50:24.000Z</time>
      </trkpt>
      <trkpt lat="47.89839" lon="7.1022">
        <ele>1315.4</ele>
        <time>2021-09-28T08:50:32.000Z</time>
      </trkpt>
      <trkpt lat="47.89831" lon="7.10227">
        <ele>1312.5</ele>
        <time>2021-09-28T08:50:45.000Z</time>
      </trkpt>
      <trkpt lat="47.89822" lon="7.10223">
        <ele>1310.6</ele>
        <time>2021-09-28T08:50:53.000Z</time>
      </trkpt>
      <trkpt lat="47.89813" lon="7.10217">
        <ele>1309</ele>
        <time>2021-09-28T08:51:04.000Z</time>
      </trkpt>
      <trkpt lat="47.89804" lon="7.10214">
        <ele>1306.7</ele>
        <time>2021-09-28T08:51:13.000Z</time>
      </trkpt>
      <trkpt lat="47.89794" lon="7.1021">
        <ele>1304.2</ele>
        <time>2021-09-28T08:51:20.000Z</time>
      </trkpt>
      <trkpt lat="47.89785" lon="7.10204">
        <ele>1302.3</ele>
        <time>2021-09-28T08:51:28.000Z</time>
      </trkpt>
      <trkpt lat="47.8978" lon="7.10192">
        <ele>1301.8</ele>
        <time>2021-09-28T08:51:37.000Z</time>
      </trkpt>
      <trkpt lat="47.89778" lon="7.10177">
        <ele>1302.6</ele>
        <time>2021-09-28T08:51:44.000Z</time>
      </trkpt>
      <trkpt lat="47.89769" lon="7.1018">
        <ele>1299.3</ele>
        <time>2021-09-28T08:51:58.000Z</time>
      </trkpt>
      <trkpt lat="47.89765" lon="7.10192">
        <ele>1297.1</ele>
        <time>2021-09-28T08:52:06.000Z</time>
      </trkpt>
      <trkpt lat="47.89762" lon="7.10205">
        <ele>1295.2</ele>
        <time>2021-09-28T08:52:13.000Z</time>
      </trkpt>
      <trkpt lat="47.89761" lon="7.10219">
        <ele>1293.8</ele>
        <time>2021-09-28T08:52:21.000Z</time>
      </trkpt>
      <trkpt lat="47.8976" lon="7.10235">
        <ele>1292.5</ele>
        <time>2021-09-28T08:52:30.000Z</time>
      </trkpt>
      <trkpt lat="47.89756" lon="7.10249">
        <ele>1290.7</ele>
        <time>2021-09-28T08:52:37.000Z</time>
      </trkpt>
      <trkpt lat="47.89755" lon="7.10263">
        <ele>1288.9</ele>
        <time>2021-09-28T08:52:45.000Z</time>
      </trkpt>
      <trkpt lat="47.89749" lon="7.10274">
        <ele>1286.5</ele>
        <time>2021-09-28T08:52:53.000Z</time>
      </trkpt>
      <trkpt lat="47.89745" lon="7.10287">
        <ele>1284.1</ele>
        <time>2021-09-28T08:53:00.000Z</time>
      </trkpt>
      <trkpt lat="47.89741" lon="7.10299">
        <ele>1282.2</ele>
        <time>2021-09-28T08:53:07.000Z</time>
      </trkpt>
      <trkpt lat="47.89744" lon="7.10312">
        <ele>1281.8</ele>
        <time>2021-09-28T08:53:30.000Z</time>
      </trkpt>
      <trkpt lat="47.89749" lon="7.10324">
        <ele>1281.8</ele>
        <time>2021-09-28T08:53:38.000Z</time>
      </trkpt>
      <trkpt lat="47.89757" lon="7.10333">
        <ele>1282.2</ele>
        <time>2021-09-28T08:53:43.000Z</time>
      </trkpt>
      <trkpt lat="47.89767" lon="7.10337">
        <ele>1283.6</ele>
        <time>2021-09-28T08:53:51.000Z</time>
      </trkpt>
      <trkpt lat="47.89773" lon="7.10346">
        <ele>1284.2</ele>
        <time>2021-09-28T08:53:59.000Z</time>
      </trkpt>
      <trkpt lat="47.89779" lon="7.10357">
        <ele>1284.4</ele>
        <time>2021-09-28T08:54:09.000Z</time>
      </trkpt>
      <trkpt lat="47.89785" lon="7.10368">
        <ele>1284.5</ele>
        <time>2021-09-28T08:54:15.000Z</time>
      </trkpt>
      <trkpt lat="47.89791" lon="7.10378">
        <ele>1284.4</ele>
        <time>2021-09-28T08:54:21.000Z</time>
      </trkpt>
      <trkpt lat="47.89798" lon="7.10388">
        <ele>1284.4</ele>
        <time>2021-09-28T08:54:27.000Z</time>
      </trkpt>
      <trkpt lat="47.89806" lon="7.10397">
        <ele>1284.3</ele>
        <time>2021-09-28T08:54:34.000Z</time>
      </trkpt>
      <trkpt lat="47.89819" lon="7.10409">
        <ele>1284</ele>
        <time>2021-09-28T08:54:39.000Z</time>
      </trkpt>
      <trkpt lat="47.89824" lon="7.10421">
        <ele>1282.8</ele>
        <time>2021-09-28T08:54:49.000Z</time>
      </trkpt>
      <trkpt lat="47.89833" lon="7.10426">
        <ele>1282.8</ele>
        <time>2021-09-28T08:54:58.000Z</time>
      </trkpt>
      <trkpt lat="47.89841" lon="7.10434">
        <ele>1281.8</ele>
        <time>2021-09-28T08:55:07.000Z</time>
      </trkpt>
      <trkpt lat="47.89844" lon="7.10448">
        <ele>1280</ele>
        <time>2021-09-28T08:55:13.000Z</time>
      </trkpt>
      <trkpt lat="47.8985" lon="7.10458">
        <ele>1278.6</ele>
        <time>2021-09-28T08:55:19.000Z</time>
      </trkpt>
      <trkpt lat="47.89858" lon="7.10468">
        <ele>1277.3</ele>
        <time>2021-09-28T08:55:27.000Z</time>
      </trkpt>
      <trkpt lat="47.89864" lon="7.10477">
        <ele>1276.1</ele>
        <time>2021-09-28T08:55:35.000Z</time>
      </trkpt>
      <trkpt lat="47.89872" lon="7.10486">
        <ele>1275</ele>
        <time>2021-09-28T08:55:43.000Z</time>
      </trkpt>
      <trkpt lat="47.89876" lon="7.10498">
        <ele>1273.2</ele>
        <time>2021-09-28T08:55:51.000Z</time>
      </trkpt>
      <trkpt lat="47.89875" lon="7.10512">
        <ele>1271</ele>
        <time>2021-09-28T08:56:01.000Z</time>
      </trkpt>
      <trkpt lat="47.89868" lon="7.10524">
        <ele>1269.3</ele>
        <time>2021-09-28T08:56:08.000Z</time>
      </trkpt>
      <trkpt lat="47.89862" lon="7.10537">
        <ele>1267.4</ele>
        <time>2021-09-28T08:56:16.000Z</time>
      </trkpt>
      <trkpt lat="47.89858" lon="7.10549">
        <ele>1265.6</ele>
        <time>2021-09-28T08:56:25.000Z</time>
      </trkpt>
      <trkpt lat="47.89858" lon="7.10564">
        <ele>1263.5</ele>
        <time>2021-09-28T08:56:32.000Z</time>
      </trkpt>
      <trkpt lat="47.89862" lon="7.10578">
        <ele>1261.2</ele>
        <time>2021-09-28T08:56:38.000Z</time>
      </trkpt>
      <trkpt lat="47.89863" lon="7.10591">
        <ele>1258.7</ele>
        <time>2021-09-28T08:56:52.000Z</time>
      </trkpt>
      <trkpt lat="47.8986" lon="7.10605">
        <ele>1256.4</ele>
        <time>2021-09-28T08:57:01.000Z</time>
      </trkpt>
      <trkpt lat="47.89857" lon="7.10621">
        <ele>1253.4</ele>
        <time>2021-09-28T08:57:09.000Z</time>
      </trkpt>
      <trkpt lat="47.89853" lon="7.10633">
        <ele>1251.1</ele>
        <time>2021-09-28T08:57:16.000Z</time>
      </trkpt>
      <trkpt lat="47.89847" lon="7.10643">
        <ele>1249</ele>
        <time>2021-09-28T08:57:25.000Z</time>
      </trkpt>
      <trkpt lat="47.89839" lon="7.10652">
        <ele>1247.2</ele>
        <time>2021-09-28T08:57:34.000Z</time>
      </trkpt>
      <trkpt lat="47.8983" lon="7.10659">
        <ele>1245.9</ele>
        <time>2021-09-28T08:57:40.000Z</time>
      </trkpt>
      <trkpt lat="47.89827" lon="7.10672">
        <ele>1243.5</ele>
        <time>2021-09-28T08:57:49.000Z</time>
      </trkpt>
      <trkpt lat="47.89819" lon="7.1068">
        <ele>1242.7</ele>
        <time>2021-09-28T08:57:56.000Z</time>
      </trkpt>
      <trkpt lat="47.89812" lon="7.10687">
        <ele>1241.9</ele>
        <time>2021-09-28T08:58:02.000Z</time>
      </trkpt>
      <trkpt lat="47.89807" lon="7.107">
        <ele>1240</ele>
        <time>2021-09-28T08:58:09.000Z</time>
      </trkpt>
      <trkpt lat="47.89801" lon="7.10711">
        <ele>1238.3</ele>
        <time>2021-09-28T08:58:17.000Z</time>
      </trkpt>
      <trkpt lat="47.89795" lon="7.10723">
        <ele>1236.5</ele>
        <time>2021-09-28T08:58:25.000Z</time>
      </trkpt>
      <trkpt lat="47.89787" lon="7.10731">
        <ele>1235.2</ele>
        <time>2021-09-28T08:58:33.000Z</time>
      </trkpt>
      <trkpt lat="47.8978" lon="7.1074">
        <ele>1233.8</ele>
        <time>2021-09-28T08:58:40.000Z</time>
      </trkpt>
      <trkpt lat="47.89771" lon="7.10746">
        <ele>1232.7</ele>
        <time>2021-09-28T08:58:48.000Z</time>
      </trkpt>
      <trkpt lat="47.89764" lon="7.10755">
        <ele>1231.1</ele>
        <time>2021-09-28T08:58:56.000Z</time>
      </trkpt>
      <trkpt lat="47.89757" lon="7.10765">
        <ele>1229.2</ele>
        <time>2021-09-28T08:59:04.000Z</time>
      </trkpt>
      <trkpt lat="47.89749" lon="7.10772">
        <ele>1227.9</ele>
        <time>2021-09-28T08:59:13.000Z</time>
      </trkpt>
      <trkpt lat="47.89741" lon="7.1078">
        <ele>1226.5</ele>
        <time>2021-09-28T08:59:22.000Z</time>
      </trkpt>
      <trkpt lat="47.89731" lon="7.10786">
        <ele>1225.8</ele>
        <time>2021-09-28T08:59:31.000Z</time>
      </trkpt>
      <trkpt lat="47.89723" lon="7.10792">
        <ele>1224.7</ele>
        <time>2021-09-28T08:59:38.000Z</time>
      </trkpt>
      <trkpt lat="47.89718" lon="7.10803">
        <ele>1222.7</ele>
        <time>2021-09-28T08:59:44.000Z</time>
      </trkpt>
      <trkpt lat="47.89712" lon="7.10816">
        <ele>1220.3</ele>
        <time>2021-09-28T08:59:50.000Z</time>
      </trkpt>
      <trkpt lat="47.89709" lon="7.10829">
        <ele>1217.8</ele>
        <time>2021-09-28T09:00:00.000Z</time>
      </trkpt>
      <trkpt lat="47.89701" lon="7.10838">
        <ele>1216.2</ele>
        <time>2021-09-28T09:00:08.000Z</time>
      </trkpt>
      <trkpt lat="47.89694" lon="7.10847">
        <ele>1214.6</ele>
        <time>2021-09-28T09:00:16.000Z</time>
      </trkpt>
      <trkpt lat="47.89685" lon="7.10854">
        <ele>1213</ele>
        <time>2021-09-28T09:00:24.000Z</time>
      </trkpt>
      <trkpt lat="47.89677" lon="7.10863">
        <ele>1211.2</ele>
        <time>2021-09-28T09:00:31.000Z</time>
      </trkpt>
      <trkpt lat="47.89669" lon="7.1087">
        <ele>1209.6</ele>
        <time>2021-09-28T09:00:40.000Z</time>
      </trkpt>
      <trkpt lat="47.89662" lon="7.10879">
        <ele>1207.9</ele>
        <time>2021-09-28T09:00:49.000Z</time>
      </trkpt>
      <trkpt lat="47.89655" lon="7.10889">
        <ele>1206.1</ele>
        <time>2021-09-28T09:00:57.000Z</time>
      </trkpt>
      <trkpt lat="47.89649" lon="7.109">
        <ele>1204.2</ele>
        <time>2021-09-28T09:01:04.000Z</time>
      </trkpt>
      <trkpt lat="47.89647" lon="7.10914">
        <ele>1201.3</ele>
        <time>2021-09-28T09:01:11.000Z</time>
      </trkpt>
      <trkpt lat="47.89642" lon="7.10926">
        <ele>1199.4</ele>
        <time>2021-09-28T09:01:21.000Z</time>
      </trkpt>
      <trkpt lat="47.89635" lon="7.10934">
        <ele>1198.6</ele>
        <time>2021-09-28T09:01:28.000Z</time>
      </trkpt>
      <trkpt lat="47.89628" lon="7.10944">
        <ele>1197.7</ele>
        <time>2021-09-28T09:01:35.000Z</time>
      </trkpt>
      <trkpt lat="47.89621" lon="7.10955">
        <ele>1196.5</ele>
        <time>2021-09-28T09:01:43.000Z</time>
      </trkpt>
      <trkpt lat="47.89613" lon="7.10964">
        <ele>1196.1</ele>
        <time>2021-09-28T09:01:50.000Z</time>
      </trkpt>
      <trkpt lat="47.89606" lon="7.10974">
        <ele>1195.4</ele>
        <time>2021-09-28T09:01:58.000Z</time>
      </trkpt>
      <trkpt lat="47.896" lon="7.10985">
        <ele>1194.5</ele>
        <time>2021-09-28T09:02:06.000Z</time>
      </trkpt>
      <trkpt lat="47.89594" lon="7.10995">
        <ele>1194.1</ele>
        <time>2021-09-28T09:02:12.000Z</time>
      </trkpt>
      <trkpt lat="47.89587" lon="7.11006">
        <ele>1193.2</ele>
        <time>2021-09-28T09:02:20.000Z</time>
      </trkpt>
      <trkpt lat="47.89582" lon="7.11017">
        <ele>1192</ele>
        <time>2021-09-28T09:02:27.000Z</time>
      </trkpt>
      <trkpt lat="47.89575" lon="7.11027">
        <ele>1191.3</ele>
        <time>2021-09-28T09:02:34.000Z</time>
      </trkpt>
      <trkpt lat="47.8957" lon="7.1104">
        <ele>1189.8</ele>
        <time>2021-09-28T09:02:40.000Z</time>
      </trkpt>
      <trkpt lat="47.89566" lon="7.11054">
        <ele>1187.9</ele>
        <time>2021-09-28T09:02:48.000Z</time>
      </trkpt>
      <trkpt lat="47.89561" lon="7.11067">
        <ele>1186.4</ele>
        <time>2021-09-28T09:02:56.000Z</time>
      </trkpt>
      <trkpt lat="47.89555" lon="7.11078">
        <ele>1185.5</ele>
        <time>2021-09-28T09:03:05.000Z</time>
      </trkpt>
      <trkpt lat="47.8955" lon="7.11091">
        <ele>1183.4</ele>
        <time>2021-09-28T09:03:12.000Z</time>
      </trkpt>
      <trkpt lat="47.89543" lon="7.111">
        <ele>1182.5</ele>
        <time>2021-09-28T09:03:20.000Z</time>
      </trkpt>
      <trkpt lat="47.89536" lon="7.1111">
        <ele>1181.4</ele>
        <time>2021-09-28T09:03:26.000Z</time>
      </trkpt>
      <trkpt lat="47.89528" lon="7.1112">
        <ele>1180.3</ele>
        <time>2021-09-28T09:03:33.000Z</time>
      </trkpt>
      <trkpt lat="47.89522" lon="7.11131">
        <ele>1179</ele>
        <time>2021-09-28T09:03:41.000Z</time>
      </trkpt>
      <trkpt lat="47.89516" lon="7.11142">
        <ele>1177.5</ele>
        <time>2021-09-28T09:03:49.000Z</time>
      </trkpt>
      <trkpt lat="47.89509" lon="7.11152">
        <ele>1176.6</ele>
        <time>2021-09-28T09:03:56.000Z</time>
      </trkpt>
      <trkpt lat="47.89502" lon="7.11164">
        <ele>1175.2</ele>
        <time>2021-09-28T09:04:04.000Z</time>
      </trkpt>
      <trkpt lat="47.895" lon="7.11178">
        <ele>1173.2</ele>
        <time>2021-09-28T09:04:10.000Z</time>
      </trkpt>
      <trkpt lat="47.89494" lon="7.11189">
        <ele>1172.5</ele>
        <time>2021-09-28T09:04:16.000Z</time>
      </trkpt>
      <trkpt lat="47.89489" lon="7.11201">
        <ele>1171.8</ele>
        <time>2021-09-28T09:04:23.000Z</time>
      </trkpt>
      <trkpt lat="47.89484" lon="7.11212">
        <ele>1171.3</ele>
        <time>2021-09-28T09:04:31.000Z</time>
      </trkpt>
      <trkpt lat="47.89478" lon="7.11223">
        <ele>1170.5</ele>
        <time>2021-09-28T09:04:36.000Z</time>
      </trkpt>
      <trkpt lat="47.89478" lon="7.11237">
        <ele>1168.2</ele>
        <time>2021-09-28T09:04:42.000Z</time>
      </trkpt>
      <trkpt lat="47.89474" lon="7.11249">
        <ele>1167.1</ele>
        <time>2021-09-28T09:04:50.000Z</time>
      </trkpt>
      <trkpt lat="47.89471" lon="7.11262">
        <ele>1165.6</ele>
        <time>2021-09-28T09:04:57.000Z</time>
      </trkpt>
      <trkpt lat="47.89466" lon="7.11275">
        <ele>1164.4</ele>
        <time>2021-09-28T09:05:05.000Z</time>
      </trkpt>
      <trkpt lat="47.89463" lon="7.11289">
        <ele>1162.7</ele>
        <time>2021-09-28T09:05:11.000Z</time>
      </trkpt>
      <trkpt lat="47.89458" lon="7.11311">
        <ele>1159.7</ele>
        <time>2021-09-28T09:05:16.000Z</time>
      </trkpt>
      <trkpt lat="47.89451" lon="7.11333">
        <ele>1156.7</ele>
        <time>2021-09-28T09:05:21.000Z</time>
      </trkpt>
      <trkpt lat="47.89442" lon="7.11335">
        <ele>1157.7</ele>
        <time>2021-09-28T09:05:38.000Z</time>
      </trkpt>
      <trkpt lat="47.89435" lon="7.11345">
        <ele>1157.2</ele>
        <time>2021-09-28T09:05:47.000Z</time>
      </trkpt>
      <trkpt lat="47.89428" lon="7.11356">
        <ele>1156.2</ele>
        <time>2021-09-28T09:05:55.000Z</time>
      </trkpt>
      <trkpt lat="47.8942" lon="7.11365">
        <ele>1155.6</ele>
        <time>2021-09-28T09:06:04.000Z</time>
      </trkpt>
      <trkpt lat="47.89412" lon="7.11374">
        <ele>1154.5</ele>
        <time>2021-09-28T09:06:11.000Z</time>
      </trkpt>
      <trkpt lat="47.89403" lon="7.11379">
        <ele>1154</ele>
        <time>2021-09-28T09:06:19.000Z</time>
      </trkpt>
      <trkpt lat="47.89393" lon="7.11385">
        <ele>1153.1</ele>
        <time>2021-09-28T09:06:28.000Z</time>
      </trkpt>
      <trkpt lat="47.89385" lon="7.11394">
        <ele>1151.8</ele>
        <time>2021-09-28T09:06:35.000Z</time>
      </trkpt>
      <trkpt lat="47.8938" lon="7.11405">
        <ele>1149.8</ele>
        <time>2021-09-28T09:06:41.000Z</time>
      </trkpt>
      <trkpt lat="47.89372" lon="7.11414">
        <ele>1148.2</ele>
        <time>2021-09-28T09:06:50.000Z</time>
      </trkpt>
      <trkpt lat="47.89365" lon="7.11424">
        <ele>1146.9</ele>
        <time>2021-09-28T09:06:58.000Z</time>
      </trkpt>
      <trkpt lat="47.89357" lon="7.11433">
        <ele>1145.8</ele>
        <time>2021-09-28T09:07:07.000Z</time>
      </trkpt>
      <trkpt lat="47.89349" lon="7.11441">
        <ele>1144.7</ele>
        <time>2021-09-28T09:07:16.000Z</time>
      </trkpt>
      <trkpt lat="47.89344" lon="7.11453">
        <ele>1143.1</ele>
        <time>2021-09-28T09:07:24.000Z</time>
      </trkpt>
      <trkpt lat="47.89337" lon="7.11464">
        <ele>1141.6</ele>
        <time>2021-09-28T09:07:32.000Z</time>
      </trkpt>
      <trkpt lat="47.89332" lon="7.11475">
        <ele>1139.8</ele>
        <time>2021-09-28T09:07:42.000Z</time>
      </trkpt>
      <trkpt lat="47.89328" lon="7.11487">
        <ele>1137.7</ele>
        <time>2021-09-28T09:07:50.000Z</time>
      </trkpt>
      <trkpt lat="47.89323" lon="7.115">
        <ele>1135.2</ele>
        <time>2021-09-28T09:07:59.000Z</time>
      </trkpt>
      <trkpt lat="47.89318" lon="7.11511">
        <ele>1132.5</ele>
        <time>2021-09-28T09:08:08.000Z</time>
      </trkpt>
      <trkpt lat="47.8931" lon="7.1152">
        <ele>1130.1</ele>
        <time>2021-09-28T09:08:18.000Z</time>
      </trkpt>
      <trkpt lat="47.89304" lon="7.11531">
        <ele>1127.3</ele>
        <time>2021-09-28T09:08:26.000Z</time>
      </trkpt>
      <trkpt lat="47.89297" lon="7.1154">
        <ele>1125</ele>
        <time>2021-09-28T09:08:34.000Z</time>
      </trkpt>
      <trkpt lat="47.89291" lon="7.11551">
        <ele>1122.1</ele>
        <time>2021-09-28T09:08:42.000Z</time>
      </trkpt>
      <trkpt lat="47.89284" lon="7.11561">
        <ele>1119.7</ele>
        <time>2021-09-28T09:08:51.000Z</time>
      </trkpt>
      <trkpt lat="47.89275" lon="7.11566">
        <ele>1118.1</ele>
        <time>2021-09-28T09:09:07.000Z</time>
      </trkpt>
      <trkpt lat="47.89265" lon="7.11572">
        <ele>1116.3</ele>
        <time>2021-09-28T09:09:16.000Z</time>
      </trkpt>
      <trkpt lat="47.89256" lon="7.11579">
        <ele>1114.3</ele>
        <time>2021-09-28T09:09:24.000Z</time>
      </trkpt>
      <trkpt lat="47.89249" lon="7.11588">
        <ele>1112.5</ele>
        <time>2021-09-28T09:09:32.000Z</time>
      </trkpt>
      <trkpt lat="47.89242" lon="7.11597">
        <ele>1111.3</ele>
        <time>2021-09-28T09:09:39.000Z</time>
      </trkpt>
      <trkpt lat="47.89237" lon="7.1161">
        <ele>1109.9</ele>
        <time>2021-09-28T09:09:46.000Z</time>
      </trkpt>
      <trkpt lat="47.89227" lon="7.11614">
        <ele>1109.2</ele>
        <time>2021-09-28T09:09:53.000Z</time>
      </trkpt>
      <trkpt lat="47.89219" lon="7.11621">
        <ele>1108.4</ele>
        <time>2021-09-28T09:10:01.000Z</time>
      </trkpt>
      <trkpt lat="47.89211" lon="7.11629">
        <ele>1107.4</ele>
        <time>2021-09-28T09:10:09.000Z</time>
      </trkpt>
      <trkpt lat="47.89207" lon="7.11642">
        <ele>1106</ele>
        <time>2021-09-28T09:10:21.000Z</time>
      </trkpt>
      <trkpt lat="47.89199" lon="7.1165">
        <ele>1105.1</ele>
        <time>2021-09-28T09:10:34.000Z</time>
      </trkpt>
      <trkpt lat="47.89192" lon="7.1166">
        <ele>1104</ele>
        <time>2021-09-28T09:10:42.000Z</time>
      </trkpt>
      <trkpt lat="47.89191" lon="7.11674">
        <ele>1102.1</ele>
        <time>2021-09-28T09:10:50.000Z</time>
      </trkpt>
      <trkpt lat="47.89187" lon="7.11689">
        <ele>1099.7</ele>
        <time>2021-09-28T09:10:59.000Z</time>
      </trkpt>
      <trkpt lat="47.8918" lon="7.11699">
        <ele>1098</ele>
        <time>2021-09-28T09:11:08.000Z</time>
      </trkpt>
      <trkpt lat="47.89173" lon="7.11709">
        <ele>1096.5</ele>
        <time>2021-09-28T09:11:16.000Z</time>
      </trkpt>
      <trkpt lat="47.89168" lon="7.11721">
        <ele>1094.5</ele>
        <time>2021-09-28T09:11:26.000Z</time>
      </trkpt>
      <trkpt lat="47.89164" lon="7.11735">
        <ele>1092.4</ele>
        <time>2021-09-28T09:11:34.000Z</time>
      </trkpt>
      <trkpt lat="47.89159" lon="7.11748">
        <ele>1090.5</ele>
        <time>2021-09-28T09:11:41.000Z</time>
      </trkpt>
      <trkpt lat="47.89155" lon="7.11761">
        <ele>1088.9</ele>
        <time>2021-09-28T09:11:48.000Z</time>
      </trkpt>
      <trkpt lat="47.8915" lon="7.11774">
        <ele>1087.4</ele>
        <time>2021-09-28T09:11:56.000Z</time>
      </trkpt>
      <trkpt lat="47.89146" lon="7.11789">
        <ele>1085.6</ele>
        <time>2021-09-28T09:12:05.000Z</time>
      </trkpt>
      <trkpt lat="47.89145" lon="7.11804">
        <ele>1083.6</ele>
        <time>2021-09-28T09:12:13.000Z</time>
      </trkpt>
      <trkpt lat="47.89143" lon="7.11818">
        <ele>1082</ele>
        <time>2021-09-28T09:12:21.000Z</time>
      </trkpt>
      <trkpt lat="47.89138" lon="7.1183">
        <ele>1080.5</ele>
        <time>2021-09-28T09:12:28.000Z</time>
      </trkpt>
      <trkpt lat="47.8913" lon="7.11838">
        <ele>1079.8</ele>
        <time>2021-09-28T09:12:35.000Z</time>
      </trkpt>
      <trkpt lat="47.89123" lon="7.11849">
        <ele>1078.7</ele>
        <time>2021-09-28T09:12:43.000Z</time>
      </trkpt>
      <trkpt lat="47.89116" lon="7.11858">
        <ele>1077.7</ele>
        <time>2021-09-28T09:12:49.000Z</time>
      </trkpt>
      <trkpt lat="47.89109" lon="7.11867">
        <ele>1076.7</ele>
        <time>2021-09-28T09:12:56.000Z</time>
      </trkpt>
      <trkpt lat="47.89102" lon="7.11878">
        <ele>1075.3</ele>
        <time>2021-09-28T09:13:04.000Z</time>
      </trkpt>
      <trkpt lat="47.89094" lon="7.11887">
        <ele>1074.2</ele>
        <time>2021-09-28T09:13:12.000Z</time>
      </trkpt>
      <trkpt lat="47.89087" lon="7.11899">
        <ele>1072.6</ele>
        <time>2021-09-28T09:13:20.000Z</time>
      </trkpt>
      <trkpt lat="47.89081" lon="7.11909">
        <ele>1071.3</ele>
        <time>2021-09-28T09:13:29.000Z</time>
      </trkpt>
      <trkpt lat="47.89077" lon="7.11922">
        <ele>1069.9</ele>
        <time>2021-09-28T09:13:37.000Z</time>
      </trkpt>
      <trkpt lat="47.89071" lon="7.11932">
        <ele>1068.9</ele>
        <time>2021-09-28T09:13:48.000Z</time>
      </trkpt>
      <trkpt lat="47.89064" lon="7.11942">
        <ele>1068</ele>
        <time>2021-09-28T09:13:56.000Z</time>
      </trkpt>
      <trkpt lat="47.89055" lon="7.11948">
        <ele>1067.7</ele>
        <time>2021-09-28T09:14:04.000Z</time>
      </trkpt>
      <trkpt lat="47.89047" lon="7.11955">
        <ele>1067.2</ele>
        <time>2021-09-28T09:14:12.000Z</time>
      </trkpt>
      <trkpt lat="47.89039" lon="7.11962">
        <ele>1066.6</ele>
        <time>2021-09-28T09:14:20.000Z</time>
      </trkpt>
      <trkpt lat="47.89031" lon="7.11969">
        <ele>1065.9</ele>
        <time>2021-09-28T09:14:27.000Z</time>
      </trkpt>
      <trkpt lat="47.89022" lon="7.11975">
        <ele>1065.4</ele>
        <time>2021-09-28T09:14:34.000Z</time>
      </trkpt>
      <trkpt lat="47.89013" lon="7.11981">
        <ele>1064.8</ele>
        <time>2021-09-28T09:14:44.000Z</time>
      </trkpt>
      <trkpt lat="47.89006" lon="7.11991">
        <ele>1063.4</ele>
        <time>2021-09-28T09:14:53.000Z</time>
      </trkpt>
      <trkpt lat="47.89" lon="7.12002">
        <ele>1061.7</ele>
        <time>2021-09-28T09:15:07.000Z</time>
      </trkpt>
      <trkpt lat="47.88997" lon="7.12015">
        <ele>1059.2</ele>
        <time>2021-09-28T09:15:16.000Z</time>
      </trkpt>
      <trkpt lat="47.88992" lon="7.12026">
        <ele>1057.2</ele>
        <time>2021-09-28T09:15:23.000Z</time>
      </trkpt>
      <trkpt lat="47.88983" lon="7.12032">
        <ele>1057.1</ele>
        <time>2021-09-28T09:15:31.000Z</time>
      </trkpt>
      <trkpt lat="47.88974" lon="7.12037">
        <ele>1057</ele>
        <time>2021-09-28T09:15:40.000Z</time>
      </trkpt>
      <trkpt lat="47.88966" lon="7.12044">
        <ele>1056.5</ele>
        <time>2021-09-28T09:15:51.000Z</time>
      </trkpt>
      <trkpt lat="47.8896" lon="7.12055">
        <ele>1054.9</ele>
        <time>2021-09-28T09:16:01.000Z</time>
      </trkpt>
      <trkpt lat="47.88954" lon="7.12065">
        <ele>1053.7</ele>
        <time>2021-09-28T09:16:10.000Z</time>
      </trkpt>
      <trkpt lat="47.88946" lon="7.12073">
        <ele>1053.2</ele>
        <time>2021-09-28T09:16:19.000Z</time>
      </trkpt>
      <trkpt lat="47.88937" lon="7.12078">
        <ele>1053.5</ele>
        <time>2021-09-28T09:16:27.000Z</time>
      </trkpt>
      <trkpt lat="47.88931" lon="7.12089">
        <ele>1051.6</ele>
        <time>2021-09-28T09:16:34.000Z</time>
      </trkpt>
      <trkpt lat="47.88924" lon="7.12098">
        <ele>1049.8</ele>
        <time>2021-09-28T09:16:44.000Z</time>
      </trkpt>
      <trkpt lat="47.88917" lon="7.12107">
        <ele>1048.3</ele>
        <time>2021-09-28T09:16:52.000Z</time>
      </trkpt>
      <trkpt lat="47.88909" lon="7.12115">
        <ele>1047</ele>
        <time>2021-09-28T09:16:59.000Z</time>
      </trkpt>
      <trkpt lat="47.88901" lon="7.1212">
        <ele>1047</ele>
        <time>2021-09-28T09:17:05.000Z</time>
      </trkpt>
      <trkpt lat="47.88893" lon="7.12129">
        <ele>1045.8</ele>
        <time>2021-09-28T09:17:11.000Z</time>
      </trkpt>
      <trkpt lat="47.88885" lon="7.12137">
        <ele>1045.3</ele>
        <time>2021-09-28T09:17:18.000Z</time>
      </trkpt>
      <trkpt lat="47.88878" lon="7.12146">
        <ele>1044.6</ele>
        <time>2021-09-28T09:17:26.000Z</time>
      </trkpt>
      <trkpt lat="47.88871" lon="7.12157">
        <ele>1043.5</ele>
        <time>2021-09-28T09:17:34.000Z</time>
      </trkpt>
      <trkpt lat="47.88864" lon="7.12166">
        <ele>1043.1</ele>
        <time>2021-09-28T09:17:46.000Z</time>
      </trkpt>
      <trkpt lat="47.88857" lon="7.12177">
        <ele>1042.4</ele>
        <time>2021-09-28T09:17:54.000Z</time>
      </trkpt>
      <trkpt lat="47.88851" lon="7.12187">
        <ele>1041.5</ele>
        <time>2021-09-28T09:18:01.000Z</time>
      </trkpt>
      <trkpt lat="47.88845" lon="7.12199">
        <ele>1040.4</ele>
        <time>2021-09-28T09:18:09.000Z</time>
      </trkpt>
      <trkpt lat="47.88839" lon="7.12211">
        <ele>1039.4</ele>
        <time>2021-09-28T09:18:18.000Z</time>
      </trkpt>
      <trkpt lat="47.88836" lon="7.12225">
        <ele>1037.4</ele>
        <time>2021-09-28T09:18:27.000Z</time>
      </trkpt>
      <trkpt lat="47.88831" lon="7.12237">
        <ele>1036</ele>
        <time>2021-09-28T09:18:36.000Z</time>
      </trkpt>
      <trkpt lat="47.88827" lon="7.12251">
        <ele>1034</ele>
        <time>2021-09-28T09:18:46.000Z</time>
      </trkpt>
      <trkpt lat="47.88822" lon="7.12263">
        <ele>1033.2</ele>
        <time>2021-09-28T09:18:54.000Z</time>
      </trkpt>
      <trkpt lat="47.88817" lon="7.12275">
        <ele>1032.4</ele>
        <time>2021-09-28T09:19:02.000Z</time>
      </trkpt>
      <trkpt lat="47.88814" lon="7.12288">
        <ele>1031.1</ele>
        <time>2021-09-28T09:19:10.000Z</time>
      </trkpt>
      <trkpt lat="47.88813" lon="7.12302">
        <ele>1029.3</ele>
        <time>2021-09-28T09:19:17.000Z</time>
      </trkpt>
      <trkpt lat="47.88812" lon="7.12317">
        <ele>1027.3</ele>
        <time>2021-09-28T09:19:25.000Z</time>
      </trkpt>
      <trkpt lat="47.88808" lon="7.12331">
        <ele>1025.7</ele>
        <time>2021-09-28T09:19:33.000Z</time>
      </trkpt>
      <trkpt lat="47.88805" lon="7.12344">
        <ele>1024.2</ele>
        <time>2021-09-28T09:19:41.000Z</time>
      </trkpt>
      <trkpt lat="47.88801" lon="7.12356">
        <ele>1022.9</ele>
        <time>2021-09-28T09:19:49.000Z</time>
      </trkpt>
      <trkpt lat="47.888" lon="7.12369">
        <ele>1020.9</ele>
        <time>2021-09-28T09:19:56.000Z</time>
      </trkpt>
      <trkpt lat="47.88796" lon="7.12383">
        <ele>1019.4</ele>
        <time>2021-09-28T09:20:03.000Z</time>
      </trkpt>
      <trkpt lat="47.88791" lon="7.12394">
        <ele>1018.2</ele>
        <time>2021-09-28T09:20:10.000Z</time>
      </trkpt>
      <trkpt lat="47.88788" lon="7.12408">
        <ele>1016.2</ele>
        <time>2021-09-28T09:20:19.000Z</time>
      </trkpt>
      <trkpt lat="47.88786" lon="7.12423">
        <ele>1014.1</ele>
        <time>2021-09-28T09:20:27.000Z</time>
      </trkpt>
      <trkpt lat="47.88782" lon="7.12435">
        <ele>1012.1</ele>
        <time>2021-09-28T09:20:35.000Z</time>
      </trkpt>
      <trkpt lat="47.88777" lon="7.12447">
        <ele>1010.4</ele>
        <time>2021-09-28T09:20:42.000Z</time>
      </trkpt>
      <trkpt lat="47.88769" lon="7.12457">
        <ele>1009.2</ele>
        <time>2021-09-28T09:20:51.000Z</time>
      </trkpt>
      <trkpt lat="47.88761" lon="7.12464">
        <ele>1008.5</ele>
        <time>2021-09-28T09:20:58.000Z</time>
      </trkpt>
      <trkpt lat="47.88753" lon="7.1247">
        <ele>1007.9</ele>
        <time>2021-09-28T09:21:06.000Z</time>
      </trkpt>
      <trkpt lat="47.88745" lon="7.12478">
        <ele>1005.3</ele>
        <time>2021-09-28T09:21:16.000Z</time>
      </trkpt>
      <trkpt lat="47.8875" lon="7.12491">
        <ele>1003.7</ele>
        <time>2021-09-28T09:21:22.000Z</time>
      </trkpt>
      <trkpt lat="47.88753" lon="7.12504">
        <ele>1001.1</ele>
        <time>2021-09-28T09:21:29.000Z</time>
      </trkpt>
      <trkpt lat="47.88758" lon="7.12517">
        <ele>998.7</ele>
        <time>2021-09-28T09:21:36.000Z</time>
      </trkpt>
      <trkpt lat="47.88761" lon="7.12529">
        <ele>996.4</ele>
        <time>2021-09-28T09:21:45.000Z</time>
      </trkpt>
      <trkpt lat="47.88763" lon="7.12542">
        <ele>994</ele>
        <time>2021-09-28T09:21:54.000Z</time>
      </trkpt>
      <trkpt lat="47.88771" lon="7.1255">
        <ele>992</ele>
        <time>2021-09-28T09:22:03.000Z</time>
      </trkpt>
      <trkpt lat="47.8878" lon="7.12558">
        <ele>989.9</ele>
        <time>2021-09-28T09:22:11.000Z</time>
      </trkpt>
      <trkpt lat="47.88788" lon="7.12565">
        <ele>988</ele>
        <time>2021-09-28T09:22:18.000Z</time>
      </trkpt>
      <trkpt lat="47.88797" lon="7.12574">
        <ele>985.8</ele>
        <time>2021-09-28T09:22:25.000Z</time>
      </trkpt>
      <trkpt lat="47.88806" lon="7.12579">
        <ele>984</ele>
        <time>2021-09-28T09:22:34.000Z</time>
      </trkpt>
      <trkpt lat="47.88816" lon="7.12581">
        <ele>982.9</ele>
        <time>2021-09-28T09:22:41.000Z</time>
      </trkpt>
      <trkpt lat="47.88825" lon="7.12575">
        <ele>983.3</ele>
        <time>2021-09-28T09:22:50.000Z</time>
      </trkpt>
      <trkpt lat="47.88832" lon="7.12568">
        <ele>984.1</ele>
        <time>2021-09-28T09:22:57.000Z</time>
      </trkpt>
      <trkpt lat="47.88828" lon="7.1258">
        <ele>982.2</ele>
        <time>2021-09-28T09:23:12.000Z</time>
      </trkpt>
      <trkpt lat="47.88821" lon="7.12591">
        <ele>980</ele>
        <time>2021-09-28T09:23:22.000Z</time>
      </trkpt>
      <trkpt lat="47.88814" lon="7.12601">
        <ele>977.8</ele>
        <time>2021-09-28T09:23:30.000Z</time>
      </trkpt>
      <trkpt lat="47.88804" lon="7.12604">
        <ele>978.1</ele>
        <time>2021-09-28T09:23:39.000Z</time>
      </trkpt>
      <trkpt lat="47.88795" lon="7.12608">
        <ele>978.1</ele>
        <time>2021-09-28T09:23:49.000Z</time>
      </trkpt>
      <trkpt lat="47.88787" lon="7.12614">
        <ele>977.6</ele>
        <time>2021-09-28T09:23:58.000Z</time>
      </trkpt>
      <trkpt lat="47.88778" lon="7.12617">
        <ele>977.8</ele>
        <time>2021-09-28T09:24:06.000Z</time>
      </trkpt>
      <trkpt lat="47.88768" lon="7.12623">
        <ele>977.8</ele>
        <time>2021-09-28T09:24:15.000Z</time>
      </trkpt>
      <trkpt lat="47.8876" lon="7.12629">
        <ele>977.4</ele>
        <time>2021-09-28T09:24:22.000Z</time>
      </trkpt>
      <trkpt lat="47.88752" lon="7.12637">
        <ele>976.8</ele>
        <time>2021-09-28T09:24:29.000Z</time>
      </trkpt>
      <trkpt lat="47.88744" lon="7.12645">
        <ele>974.5</ele>
        <time>2021-09-28T09:24:36.000Z</time>
      </trkpt>
      <trkpt lat="47.88736" lon="7.12653">
        <ele>971.6</ele>
        <time>2021-09-28T09:24:43.000Z</time>
      </trkpt>
      <trkpt lat="47.8873" lon="7.12666">
        <ele>968.5</ele>
        <time>2021-09-28T09:24:51.000Z</time>
      </trkpt>
      <trkpt lat="47.88724" lon="7.12678">
        <ele>965.5</ele>
        <time>2021-09-28T09:24:57.000Z</time>
      </trkpt>
      <trkpt lat="47.88718" lon="7.12689">
        <ele>962.9</ele>
        <time>2021-09-28T09:25:03.000Z</time>
      </trkpt>
      <trkpt lat="47.88713" lon="7.127">
        <ele>960.4</ele>
        <time>2021-09-28T09:25:09.000Z</time>
      </trkpt>
      <trkpt lat="47.88709" lon="7.12713">
        <ele>957.7</ele>
        <time>2021-09-28T09:25:16.000Z</time>
      </trkpt>
      <trkpt lat="47.88704" lon="7.12726">
        <ele>955.3</ele>
        <time>2021-09-28T09:25:22.000Z</time>
      </trkpt>
      <trkpt lat="47.887" lon="7.12739">
        <ele>953</ele>
        <time>2021-09-28T09:25:29.000Z</time>
      </trkpt>
      <trkpt lat="47.88697" lon="7.12752">
        <ele>951.2</ele>
        <time>2021-09-28T09:25:37.000Z</time>
      </trkpt>
      <trkpt lat="47.88693" lon="7.12766">
        <ele>951.6</ele>
        <time>2021-09-28T09:25:45.000Z</time>
      </trkpt>
      <trkpt lat="47.8869" lon="7.12781">
        <ele>952.2</ele>
        <time>2021-09-28T09:25:53.000Z</time>
      </trkpt>
      <trkpt lat="47.88686" lon="7.12793">
        <ele>952.8</ele>
        <time>2021-09-28T09:26:00.000Z</time>
      </trkpt>
      <trkpt lat="47.8868" lon="7.12804">
        <ele>953.6</ele>
        <time>2021-09-28T09:26:10.000Z</time>
      </trkpt>
      <trkpt lat="47.88671" lon="7.1281">
        <ele>954.2</ele>
        <time>2021-09-28T09:26:30.000Z</time>
      </trkpt>
      <trkpt lat="47.88662" lon="7.12814">
        <ele>954.3</ele>
        <time>2021-09-28T09:26:38.000Z</time>
      </trkpt>
      <trkpt lat="47.88652" lon="7.12819">
        <ele>954.3</ele>
        <time>2021-09-28T09:26:47.000Z</time>
      </trkpt>
      <trkpt lat="47.88645" lon="7.12828">
        <ele>954.9</ele>
        <time>2021-09-28T09:26:55.000Z</time>
      </trkpt>
      <trkpt lat="47.88635" lon="7.12835">
        <ele>955.5</ele>
        <time>2021-09-28T09:27:03.000Z</time>
      </trkpt>
      <trkpt lat="47.88627" lon="7.12841">
        <ele>956.7</ele>
        <time>2021-09-28T09:27:10.000Z</time>
      </trkpt>
      <trkpt lat="47.88618" lon="7.12844">
        <ele>957.3</ele>
        <time>2021-09-28T09:27:20.000Z</time>
      </trkpt>
      <trkpt lat="47.88609" lon="7.12846">
        <ele>957.7</ele>
        <time>2021-09-28T09:27:26.000Z</time>
      </trkpt>
      <trkpt lat="47.886" lon="7.12851">
        <ele>959.1</ele>
        <time>2021-09-28T09:27:33.000Z</time>
      </trkpt>
      <trkpt lat="47.8859" lon="7.12851">
        <ele>959</ele>
        <time>2021-09-28T09:27:42.000Z</time>
      </trkpt>
      <trkpt lat="47.88581" lon="7.12853">
        <ele>959.3</ele>
        <time>2021-09-28T09:27:48.000Z</time>
      </trkpt>
      <trkpt lat="47.88571" lon="7.12853">
        <ele>958.5</ele>
        <time>2021-09-28T09:27:55.000Z</time>
      </trkpt>
      <trkpt lat="47.88564" lon="7.12861">
        <ele>960.1</ele>
        <time>2021-09-28T09:28:04.000Z</time>
      </trkpt>
      <trkpt lat="47.88555" lon="7.12861">
        <ele>959.1</ele>
        <time>2021-09-28T09:28:12.000Z</time>
      </trkpt>
      <trkpt lat="47.88544" lon="7.12861">
        <ele>958.1</ele>
        <time>2021-09-28T09:28:19.000Z</time>
      </trkpt>
      <trkpt lat="47.88535" lon="7.12866">
        <ele>958.4</ele>
        <time>2021-09-28T09:28:27.000Z</time>
      </trkpt>
      <trkpt lat="47.88525" lon="7.12868">
        <ele>958</ele>
        <time>2021-09-28T09:28:34.000Z</time>
      </trkpt>
      <trkpt lat="47.88515" lon="7.12867">
        <ele>956.9</ele>
        <time>2021-09-28T09:28:42.000Z</time>
      </trkpt>
      <trkpt lat="47.88506" lon="7.12873">
        <ele>957.1</ele>
        <time>2021-09-28T09:28:49.000Z</time>
      </trkpt>
      <trkpt lat="47.88497" lon="7.12879">
        <ele>956.8</ele>
        <time>2021-09-28T09:28:55.000Z</time>
      </trkpt>
      <trkpt lat="47.88488" lon="7.12884">
        <ele>955.2</ele>
        <time>2021-09-28T09:29:03.000Z</time>
      </trkpt>
      <trkpt lat="47.88481" lon="7.12894">
        <ele>955.7</ele>
        <time>2021-09-28T09:29:13.000Z</time>
      </trkpt>
      <trkpt lat="47.88475" lon="7.12906">
        <ele>956.4</ele>
        <time>2021-09-28T09:29:21.000Z</time>
      </trkpt>
      <trkpt lat="47.88467" lon="7.12914">
        <ele>955.9</ele>
        <time>2021-09-28T09:29:28.000Z</time>
      </trkpt>
      <trkpt lat="47.8846" lon="7.12921">
        <ele>955.4</ele>
        <time>2021-09-28T09:29:34.000Z</time>
      </trkpt>
      <trkpt lat="47.88451" lon="7.12927">
        <ele>954.7</ele>
        <time>2021-09-28T09:29:41.000Z</time>
      </trkpt>
      <trkpt lat="47.88445" lon="7.12937">
        <ele>955.7</ele>
        <time>2021-09-28T09:29:49.000Z</time>
      </trkpt>
      <trkpt lat="47.88442" lon="7.12951">
        <ele>958.2</ele>
        <time>2021-09-28T09:29:55.000Z</time>
      </trkpt>
      <trkpt lat="47.88433" lon="7.12955">
        <ele>957.1</ele>
        <time>2021-09-28T09:30:04.000Z</time>
      </trkpt>
      <trkpt lat="47.88423" lon="7.12955">
        <ele>954.2</ele>
        <time>2021-09-28T09:30:12.000Z</time>
      </trkpt>
      <trkpt lat="47.88413" lon="7.12958">
        <ele>953.1</ele>
        <time>2021-09-28T09:30:22.000Z</time>
      </trkpt>
      <trkpt lat="47.88404" lon="7.12957">
        <ele>951.7</ele>
        <time>2021-09-28T09:30:29.000Z</time>
      </trkpt>
      <trkpt lat="47.88394" lon="7.12956">
        <ele>950.4</ele>
        <time>2021-09-28T09:30:36.000Z</time>
      </trkpt>
      <trkpt lat="47.88385" lon="7.12953">
        <ele>948.5</ele>
        <time>2021-09-28T09:30:42.000Z</time>
      </trkpt>
      <trkpt lat="47.88376" lon="7.12947">
        <ele>946.3</ele>
        <time>2021-09-28T09:30:49.000Z</time>
      </trkpt>
      <trkpt lat="47.88367" lon="7.12943">
        <ele>944.5</ele>
        <time>2021-09-28T09:30:56.000Z</time>
      </trkpt>
      <trkpt lat="47.88357" lon="7.12941">
        <ele>943.3</ele>
        <time>2021-09-28T09:31:05.000Z</time>
      </trkpt>
      <trkpt lat="47.88347" lon="7.1294">
        <ele>942.1</ele>
        <time>2021-09-28T09:31:12.000Z</time>
      </trkpt>
      <trkpt lat="47.88339" lon="7.12933">
        <ele>940.2</ele>
        <time>2021-09-28T09:31:19.000Z</time>
      </trkpt>
      <trkpt lat="47.88331" lon="7.12927">
        <ele>938.5</ele>
        <time>2021-09-28T09:31:24.000Z</time>
      </trkpt>
      <trkpt lat="47.88322" lon="7.1292">
        <ele>936.6</ele>
        <time>2021-09-28T09:31:32.000Z</time>
      </trkpt>
      <trkpt lat="47.88312" lon="7.12914">
        <ele>934.5</ele>
        <time>2021-09-28T09:31:40.000Z</time>
      </trkpt>
      <trkpt lat="47.88304" lon="7.12908">
        <ele>932.1</ele>
        <time>2021-09-28T09:31:49.000Z</time>
      </trkpt>
      <trkpt lat="47.88296" lon="7.12902">
        <ele>929.9</ele>
        <time>2021-09-28T09:31:55.000Z</time>
      </trkpt>
      <trkpt lat="47.88285" lon="7.129">
        <ele>928.5</ele>
        <time>2021-09-28T09:32:02.000Z</time>
      </trkpt>
      <trkpt lat="47.88275" lon="7.12899">
        <ele>927.3</ele>
        <time>2021-09-28T09:32:08.000Z</time>
      </trkpt>
      <trkpt lat="47.88266" lon="7.129">
        <ele>927.1</ele>
        <time>2021-09-28T09:32:19.000Z</time>
      </trkpt>
      <trkpt lat="47.88257" lon="7.12896">
        <ele>925.4</ele>
        <time>2021-09-28T09:32:32.000Z</time>
      </trkpt>
      <trkpt lat="47.88246" lon="7.12893">
        <ele>923.6</ele>
        <time>2021-09-28T09:32:37.000Z</time>
      </trkpt>
      <trkpt lat="47.88236" lon="7.12895">
        <ele>923</ele>
        <time>2021-09-28T09:32:43.000Z</time>
      </trkpt>
      <trkpt lat="47.88228" lon="7.12886">
        <ele>920.3</ele>
        <time>2021-09-28T09:32:50.000Z</time>
      </trkpt>
      <trkpt lat="47.8822" lon="7.12879">
        <ele>918</ele>
        <time>2021-09-28T09:32:58.000Z</time>
      </trkpt>
      <trkpt lat="47.88211" lon="7.12875">
        <ele>916.4</ele>
        <time>2021-09-28T09:33:06.000Z</time>
      </trkpt>
      <trkpt lat="47.88203" lon="7.12867">
        <ele>914.3</ele>
        <time>2021-09-28T09:33:12.000Z</time>
      </trkpt>
      <trkpt lat="47.88193" lon="7.12864">
        <ele>913</ele>
        <time>2021-09-28T09:33:19.000Z</time>
      </trkpt>
      <trkpt lat="47.88184" lon="7.12862">
        <ele>912.2</ele>
        <time>2021-09-28T09:33:26.000Z</time>
      </trkpt>
      <trkpt lat="47.88175" lon="7.12862">
        <ele>911.6</ele>
        <time>2021-09-28T09:33:34.000Z</time>
      </trkpt>
      <trkpt lat="47.88166" lon="7.12854">
        <ele>909.9</ele>
        <time>2021-09-28T09:33:43.000Z</time>
      </trkpt>
      <trkpt lat="47.88158" lon="7.12846">
        <ele>908</ele>
        <time>2021-09-28T09:33:50.000Z</time>
      </trkpt>
      <trkpt lat="47.88148" lon="7.12838">
        <ele>906.1</ele>
        <time>2021-09-28T09:33:55.000Z</time>
      </trkpt>
      <trkpt lat="47.88137" lon="7.12835">
        <ele>904.7</ele>
        <time>2021-09-28T09:34:00.000Z</time>
      </trkpt>
      <trkpt lat="47.88128" lon="7.12836">
        <ele>904</ele>
        <time>2021-09-28T09:34:06.000Z</time>
      </trkpt>
      <trkpt lat="47.8812" lon="7.12841">
        <ele>903.9</ele>
        <time>2021-09-28T09:34:13.000Z</time>
      </trkpt>
      <trkpt lat="47.88112" lon="7.12851">
        <ele>904.3</ele>
        <time>2021-09-28T09:34:21.000Z</time>
      </trkpt>
      <trkpt lat="47.88107" lon="7.12862">
        <ele>904.9</ele>
        <time>2021-09-28T09:34:29.000Z</time>
      </trkpt>
      <trkpt lat="47.88099" lon="7.1287">
        <ele>904.8</ele>
        <time>2021-09-28T09:34:39.000Z</time>
      </trkpt>
      <trkpt lat="47.8809" lon="7.12879">
        <ele>904.6</ele>
        <time>2021-09-28T09:34:46.000Z</time>
      </trkpt>
      <trkpt lat="47.88083" lon="7.12889">
        <ele>904.6</ele>
        <time>2021-09-28T09:34:52.000Z</time>
      </trkpt>
      <trkpt lat="47.88075" lon="7.12895">
        <ele>904.3</ele>
        <time>2021-09-28T09:35:00.000Z</time>
      </trkpt>
      <trkpt lat="47.88066" lon="7.12899">
        <ele>903.6</ele>
        <time>2021-09-28T09:35:10.000Z</time>
      </trkpt>
      <trkpt lat="47.88057" lon="7.129">
        <ele>902.6</ele>
        <time>2021-09-28T09:35:19.000Z</time>
      </trkpt>
      <trkpt lat="47.88047" lon="7.12898">
        <ele>901.5</ele>
        <time>2021-09-28T09:35:28.000Z</time>
      </trkpt>
      <trkpt lat="47.88038" lon="7.12894">
        <ele>900.3</ele>
        <time>2021-09-28T09:35:38.000Z</time>
      </trkpt>
      <trkpt lat="47.88029" lon="7.12887">
        <ele>899.2</ele>
        <time>2021-09-28T09:35:47.000Z</time>
      </trkpt>
      <trkpt lat="47.8802" lon="7.12881">
        <ele>898.3</ele>
        <time>2021-09-28T09:35:53.000Z</time>
      </trkpt>
      <trkpt lat="47.88012" lon="7.12875">
        <ele>897.5</ele>
        <time>2021-09-28T09:36:01.000Z</time>
      </trkpt>
      <trkpt lat="47.88003" lon="7.1287">
        <ele>896.8</ele>
        <time>2021-09-28T09:36:09.000Z</time>
      </trkpt>
      <trkpt lat="47.87995" lon="7.12865">
        <ele>895.2</ele>
        <time>2021-09-28T09:36:17.000Z</time>
      </trkpt>
      <trkpt lat="47.87985" lon="7.1286">
        <ele>892.8</ele>
        <time>2021-09-28T09:36:27.000Z</time>
      </trkpt>
      <trkpt lat="47.87977" lon="7.12854">
        <ele>891.2</ele>
        <time>2021-09-28T09:36:33.000Z</time>
      </trkpt>
      <trkpt lat="47.87969" lon="7.12846">
        <ele>889.7</ele>
        <time>2021-09-28T09:36:41.000Z</time>
      </trkpt>
      <trkpt lat="47.87962" lon="7.12836">
        <ele>889</ele>
        <time>2021-09-28T09:36:50.000Z</time>
      </trkpt>
      <trkpt lat="47.87954" lon="7.12828">
        <ele>887.5</ele>
        <time>2021-09-28T09:36:58.000Z</time>
      </trkpt>
      <trkpt lat="47.87946" lon="7.12823">
        <ele>885.8</ele>
        <time>2021-09-28T09:37:07.000Z</time>
      </trkpt>
      <trkpt lat="47.87937" lon="7.12817">
        <ele>884.3</ele>
        <time>2021-09-28T09:37:14.000Z</time>
      </trkpt>
      <trkpt lat="47.87928" lon="7.12811">
        <ele>882.9</ele>
        <time>2021-09-28T09:37:21.000Z</time>
      </trkpt>
      <trkpt lat="47.87919" lon="7.12806">
        <ele>881.7</ele>
        <time>2021-09-28T09:37:30.000Z</time>
      </trkpt>
      <trkpt lat="47.87911" lon="7.128">
        <ele>880.1</ele>
        <time>2021-09-28T09:37:38.000Z</time>
      </trkpt>
      <trkpt lat="47.87901" lon="7.12799">
        <ele>877.7</ele>
        <time>2021-09-28T09:37:46.000Z</time>
      </trkpt>
      <trkpt lat="47.87883" lon="7.12797">
        <ele>873.2</ele>
        <time>2021-09-28T09:37:52.000Z</time>
      </trkpt>
      <trkpt lat="47.87874" lon="7.12795">
        <ele>871.3</ele>
        <time>2021-09-28T09:38:15.000Z</time>
      </trkpt>
      <trkpt lat="47.87869" lon="7.12783">
        <ele>871.7</ele>
        <time>2021-09-28T09:39:23.000Z</time>
      </trkpt>
      <trkpt lat="47.87862" lon="7.12773">
        <ele>871.6</ele>
        <time>2021-09-28T09:39:31.000Z</time>
      </trkpt>
      <trkpt lat="47.87853" lon="7.12772">
        <ele>869.8</ele>
        <time>2021-09-28T09:39:41.000Z</time>
      </trkpt>
      <trkpt lat="47.87845" lon="7.12764">
        <ele>869.6</ele>
        <time>2021-09-28T09:39:47.000Z</time>
      </trkpt>
      <trkpt lat="47.87835" lon="7.12762">
        <ele>868.1</ele>
        <time>2021-09-28T09:39:55.000Z</time>
      </trkpt>
      <trkpt lat="47.87826" lon="7.12757">
        <ele>866.9</ele>
        <time>2021-09-28T09:40:01.000Z</time>
      </trkpt>
      <trkpt lat="47.87816" lon="7.12757">
        <ele>864.5</ele>
        <time>2021-09-28T09:40:12.000Z</time>
      </trkpt>
      <trkpt lat="47.87809" lon="7.1275">
        <ele>864.1</ele>
        <time>2021-09-28T09:40:18.000Z</time>
      </trkpt>
      <trkpt lat="47.87798" lon="7.12743">
        <ele>861</ele>
        <time>2021-09-28T09:40:23.000Z</time>
      </trkpt>
      <trkpt lat="47.87789" lon="7.1274">
        <ele>858.6</ele>
        <time>2021-09-28T09:40:30.000Z</time>
      </trkpt>
      <trkpt lat="47.8778" lon="7.12735">
        <ele>855.9</ele>
        <time>2021-09-28T09:40:37.000Z</time>
      </trkpt>
      <trkpt lat="47.87769" lon="7.12735">
        <ele>853.5</ele>
        <time>2021-09-28T09:40:48.000Z</time>
      </trkpt>
      <trkpt lat="47.87759" lon="7.12734">
        <ele>851.1</ele>
        <time>2021-09-28T09:40:57.000Z</time>
      </trkpt>
      <trkpt lat="47.87751" lon="7.12726">
        <ele>848.7</ele>
        <time>2021-09-28T09:41:08.000Z</time>
      </trkpt>
      <trkpt lat="47.87741" lon="7.12726">
        <ele>847.9</ele>
        <time>2021-09-28T09:41:15.000Z</time>
      </trkpt>
      <trkpt lat="47.87731" lon="7.12726">
        <ele>847.2</ele>
        <time>2021-09-28T09:41:23.000Z</time>
      </trkpt>
      <trkpt lat="47.87721" lon="7.12729">
        <ele>846.6</ele>
        <time>2021-09-28T09:41:33.000Z</time>
      </trkpt>
      <trkpt lat="47.8771" lon="7.12732">
        <ele>846</ele>
        <time>2021-09-28T09:41:56.000Z</time>
      </trkpt>
      <trkpt lat="47.87705" lon="7.12744">
        <ele>846</ele>
        <time>2021-09-28T09:42:03.000Z</time>
      </trkpt>
      <trkpt lat="47.87697" lon="7.1275">
        <ele>845.5</ele>
        <time>2021-09-28T09:42:11.000Z</time>
      </trkpt>
      <trkpt lat="47.87686" lon="7.12753">
        <ele>844.1</ele>
        <time>2021-09-28T09:42:20.000Z</time>
      </trkpt>
      <trkpt lat="47.87677" lon="7.12757">
        <ele>842.5</ele>
        <time>2021-09-28T09:42:28.000Z</time>
      </trkpt>
      <trkpt lat="47.87668" lon="7.12754">
        <ele>842.4</ele>
        <time>2021-09-28T09:42:36.000Z</time>
      </trkpt>
      <trkpt lat="47.87659" lon="7.1275">
        <ele>841.6</ele>
        <time>2021-09-28T09:42:48.000Z</time>
      </trkpt>
      <trkpt lat="47.8765" lon="7.12749">
        <ele>839.8</ele>
        <time>2021-09-28T09:42:57.000Z</time>
      </trkpt>
      <trkpt lat="47.87642" lon="7.12743">
        <ele>838.2</ele>
        <time>2021-09-28T09:43:03.000Z</time>
      </trkpt>
      <trkpt lat="47.87633" lon="7.12738">
        <ele>836.5</ele>
        <time>2021-09-28T09:43:10.000Z</time>
      </trkpt>
      <trkpt lat="47.87625" lon="7.12731">
        <ele>835</ele>
        <time>2021-09-28T09:43:17.000Z</time>
      </trkpt>
      <trkpt lat="47.8762" lon="7.12718">
        <ele>834.1</ele>
        <time>2021-09-28T09:43:30.000Z</time>
      </trkpt>
      <trkpt lat="47.87611" lon="7.12713">
        <ele>832.4</ele>
        <time>2021-09-28T09:43:37.000Z</time>
      </trkpt>
      <trkpt lat="47.87601" lon="7.1271">
        <ele>830.7</ele>
        <time>2021-09-28T09:43:44.000Z</time>
      </trkpt>
      <trkpt lat="47.87591" lon="7.12711">
        <ele>828.9</ele>
        <time>2021-09-28T09:43:51.000Z</time>
      </trkpt>
      <trkpt lat="47.87582" lon="7.1271">
        <ele>827.5</ele>
        <time>2021-09-28T09:43:58.000Z</time>
      </trkpt>
      <trkpt lat="47.87572" lon="7.12711">
        <ele>827.2</ele>
        <time>2021-09-28T09:44:05.000Z</time>
      </trkpt>
      <trkpt lat="47.87565" lon="7.1272">
        <ele>827.1</ele>
        <time>2021-09-28T09:44:11.000Z</time>
      </trkpt>
      <trkpt lat="47.87556" lon="7.12724">
        <ele>827</ele>
        <time>2021-09-28T09:44:18.000Z</time>
      </trkpt>
      <trkpt lat="47.87547" lon="7.1273">
        <ele>827</ele>
        <time>2021-09-28T09:44:25.000Z</time>
      </trkpt>
      <trkpt lat="47.8754" lon="7.12737">
        <ele>827.2</ele>
        <time>2021-09-28T09:44:33.000Z</time>
      </trkpt>
      <trkpt lat="47.87531" lon="7.12731">
        <ele>827</ele>
        <time>2021-09-28T09:44:50.000Z</time>
      </trkpt>
      <trkpt lat="47.87525" lon="7.12722">
        <ele>826.6</ele>
        <time>2021-09-28T09:45:01.000Z</time>
      </trkpt>
      <trkpt lat="47.87516" lon="7.12718">
        <ele>826.3</ele>
        <time>2021-09-28T09:45:10.000Z</time>
      </trkpt>
      <trkpt lat="47.87507" lon="7.12711">
        <ele>825.8</ele>
        <time>2021-09-28T09:45:18.000Z</time>
      </trkpt>
      <trkpt lat="47.87498" lon="7.12709">
        <ele>826</ele>
        <time>2021-09-28T09:45:27.000Z</time>
      </trkpt>
      <trkpt lat="47.8749" lon="7.12701">
        <ele>826.9</ele>
        <time>2021-09-28T09:45:38.000Z</time>
      </trkpt>
      <trkpt lat="47.87481" lon="7.12696">
        <ele>828.3</ele>
        <time>2021-09-28T09:45:47.000Z</time>
      </trkpt>
      <trkpt lat="47.87472" lon="7.12691">
        <ele>829.5</ele>
        <time>2021-09-28T09:45:58.000Z</time>
      </trkpt>
      <trkpt lat="47.87462" lon="7.12687">
        <ele>831</ele>
        <time>2021-09-28T09:46:07.000Z</time>
      </trkpt>
      <trkpt lat="47.87453" lon="7.12681">
        <ele>832.1</ele>
        <time>2021-09-28T09:46:17.000Z</time>
      </trkpt>
      <trkpt lat="47.87444" lon="7.12677">
        <ele>833.3</ele>
        <time>2021-09-28T09:46:30.000Z</time>
      </trkpt>
      <trkpt lat="47.87435" lon="7.12675">
        <ele>834.8</ele>
        <time>2021-09-28T09:46:40.000Z</time>
      </trkpt>
      <trkpt lat="47.87425" lon="7.12671">
        <ele>836.1</ele>
        <time>2021-09-28T09:46:48.000Z</time>
      </trkpt>
      <trkpt lat="47.87415" lon="7.1267">
        <ele>837.4</ele>
        <time>2021-09-28T09:47:00.000Z</time>
      </trkpt>
      <trkpt lat="47.87407" lon="7.12666">
        <ele>837.7</ele>
        <time>2021-09-28T09:47:09.000Z</time>
      </trkpt>
      <trkpt lat="47.87397" lon="7.12659">
        <ele>837.3</ele>
        <time>2021-09-28T09:47:18.000Z</time>
      </trkpt>
      <trkpt lat="47.8739" lon="7.12652">
        <ele>836.5</ele>
        <time>2021-09-28T09:47:25.000Z</time>
      </trkpt>
      <trkpt lat="47.87381" lon="7.12647">
        <ele>836.4</ele>
        <time>2021-09-28T09:47:32.000Z</time>
      </trkpt>
      <trkpt lat="47.87372" lon="7.12641">
        <ele>835.8</ele>
        <time>2021-09-28T09:47:40.000Z</time>
      </trkpt>
      <trkpt lat="47.87363" lon="7.12636">
        <ele>835.4</ele>
        <time>2021-09-28T09:47:50.000Z</time>
      </trkpt>
      <trkpt lat="47.87353" lon="7.12635">
        <ele>835.8</ele>
        <time>2021-09-28T09:47:57.000Z</time>
      </trkpt>
      <trkpt lat="47.87347" lon="7.12645">
        <ele>838.3</ele>
        <time>2021-09-28T09:48:07.000Z</time>
      </trkpt>
      <trkpt lat="47.87338" lon="7.12648">
        <ele>839.6</ele>
        <time>2021-09-28T09:48:14.000Z</time>
      </trkpt>
      <trkpt lat="47.87329" lon="7.12654">
        <ele>841.3</ele>
        <time>2021-09-28T09:48:24.000Z</time>
      </trkpt>
      <trkpt lat="47.87323" lon="7.12663">
        <ele>843.4</ele>
        <time>2021-09-28T09:48:34.000Z</time>
      </trkpt>
      <trkpt lat="47.87319" lon="7.12676">
        <ele>845.7</ele>
        <time>2021-09-28T09:48:43.000Z</time>
      </trkpt>
      <trkpt lat="47.87316" lon="7.1269">
        <ele>847.9</ele>
        <time>2021-09-28T09:48:53.000Z</time>
      </trkpt>
      <trkpt lat="47.87315" lon="7.12703">
        <ele>850.2</ele>
        <time>2021-09-28T09:49:02.000Z</time>
      </trkpt>
      <trkpt lat="47.87313" lon="7.12717">
        <ele>852.5</ele>
        <time>2021-09-28T09:49:11.000Z</time>
      </trkpt>
      <trkpt lat="47.8731" lon="7.12732">
        <ele>855.1</ele>
        <time>2021-09-28T09:49:19.000Z</time>
      </trkpt>
      <trkpt lat="47.87311" lon="7.12747">
        <ele>857.5</ele>
        <time>2021-09-28T09:49:29.000Z</time>
      </trkpt>
      <trkpt lat="47.87313" lon="7.12761">
        <ele>857.8</ele>
        <time>2021-09-28T09:49:39.000Z</time>
      </trkpt>
      <trkpt lat="47.87306" lon="7.1277">
        <ele>858.2</ele>
        <time>2021-09-28T09:49:51.000Z</time>
      </trkpt>
      <trkpt lat="47.87297" lon="7.12764">
        <ele>858.9</ele>
        <time>2021-09-28T09:50:03.000Z</time>
      </trkpt>
      <trkpt lat="47.87291" lon="7.12754">
        <ele>859.1</ele>
        <time>2021-09-28T09:50:11.000Z</time>
      </trkpt>
      <trkpt lat="47.87281" lon="7.12749">
        <ele>859.4</ele>
        <time>2021-09-28T09:50:17.000Z</time>
      </trkpt>
      <trkpt lat="47.87271" lon="7.12746">
        <ele>859.3</ele>
        <time>2021-09-28T09:50:27.000Z</time>
      </trkpt>
      <trkpt lat="47.87261" lon="7.12744">
        <ele>859.3</ele>
        <time>2021-09-28T09:50:34.000Z</time>
      </trkpt>
      <trkpt lat="47.87251" lon="7.12745">
        <ele>860</ele>
        <time>2021-09-28T09:50:43.000Z</time>
      </trkpt>
      <trkpt lat="47.87243" lon="7.12738">
        <ele>859.5</ele>
        <time>2021-09-28T09:50:55.000Z</time>
      </trkpt>
      <trkpt lat="47.87234" lon="7.12741">
        <ele>861.2</ele>
        <time>2021-09-28T09:51:07.000Z</time>
      </trkpt>
      <trkpt lat="47.87226" lon="7.12733">
        <ele>861</ele>
        <time>2021-09-28T09:51:20.000Z</time>
      </trkpt>
      <trkpt lat="47.87217" lon="7.12727">
        <ele>861.5</ele>
        <time>2021-09-28T09:51:30.000Z</time>
      </trkpt>
      <trkpt lat="47.87209" lon="7.12723">
        <ele>862.2</ele>
        <time>2021-09-28T09:51:39.000Z</time>
      </trkpt>
      <trkpt lat="47.872" lon="7.12717">
        <ele>863</ele>
        <time>2021-09-28T09:51:49.000Z</time>
      </trkpt>
      <trkpt lat="47.87191" lon="7.12712">
        <ele>863.9</ele>
        <time>2021-09-28T09:51:57.000Z</time>
      </trkpt>
      <trkpt lat="47.87184" lon="7.12703">
        <ele>864.5</ele>
        <time>2021-09-28T09:52:04.000Z</time>
      </trkpt>
      <trkpt lat="47.87177" lon="7.12692">
        <ele>865</ele>
        <time>2021-09-28T09:52:14.000Z</time>
      </trkpt>
      <trkpt lat="47.87173" lon="7.1268">
        <ele>865.3</ele>
        <time>2021-09-28T09:52:25.000Z</time>
      </trkpt>
      <trkpt lat="47.87168" lon="7.12667">
        <ele>865.6</ele>
        <time>2021-09-28T09:52:32.000Z</time>
      </trkpt>
      <trkpt lat="47.87161" lon="7.12657">
        <ele>866</ele>
        <time>2021-09-28T09:52:39.000Z</time>
      </trkpt>
      <trkpt lat="47.87156" lon="7.12645">
        <ele>865.9</ele>
        <time>2021-09-28T09:52:47.000Z</time>
      </trkpt>
      <trkpt lat="47.87152" lon="7.12632">
        <ele>865.9</ele>
        <time>2021-09-28T09:52:55.000Z</time>
      </trkpt>
      <trkpt lat="47.87146" lon="7.12621">
        <ele>866.7</ele>
        <time>2021-09-28T09:53:03.000Z</time>
      </trkpt>
      <trkpt lat="47.87141" lon="7.12609">
        <ele>867.4</ele>
        <time>2021-09-28T09:53:13.000Z</time>
      </trkpt>
      <trkpt lat="47.87135" lon="7.12597">
        <ele>868.7</ele>
        <time>2021-09-28T09:53:21.000Z</time>
      </trkpt>
      <trkpt lat="47.87128" lon="7.12588">
        <ele>870.6</ele>
        <time>2021-09-28T09:53:30.000Z</time>
      </trkpt>
      <trkpt lat="47.87122" lon="7.12578">
        <ele>872.3</ele>
        <time>2021-09-28T09:53:45.000Z</time>
      </trkpt>
      <trkpt lat="47.87116" lon="7.12568">
        <ele>873.5</ele>
        <time>2021-09-28T09:53:52.000Z</time>
      </trkpt>
      <trkpt lat="47.87108" lon="7.12559">
        <ele>876</ele>
        <time>2021-09-28T09:54:03.000Z</time>
      </trkpt>
      <trkpt lat="47.871" lon="7.12549">
        <ele>878.5</ele>
        <time>2021-09-28T09:54:13.000Z</time>
      </trkpt>
      <trkpt lat="47.87092" lon="7.12541">
        <ele>881.2</ele>
        <time>2021-09-28T09:54:25.000Z</time>
      </trkpt>
      <trkpt lat="47.87084" lon="7.12534">
        <ele>884.2</ele>
        <time>2021-09-28T09:54:39.000Z</time>
      </trkpt>
      <trkpt lat="47.87079" lon="7.12522">
        <ele>885.5</ele>
        <time>2021-09-28T09:54:55.000Z</time>
      </trkpt>
      <trkpt lat="47.87074" lon="7.12511">
        <ele>886.8</ele>
        <time>2021-09-28T09:55:09.000Z</time>
      </trkpt>
      <trkpt lat="47.87067" lon="7.12502">
        <ele>888.5</ele>
        <time>2021-09-28T09:55:24.000Z</time>
      </trkpt>
      <trkpt lat="47.87059" lon="7.12493">
        <ele>889.4</ele>
        <time>2021-09-28T09:55:45.000Z</time>
      </trkpt>
      <trkpt lat="47.87054" lon="7.12481">
        <ele>889.2</ele>
        <time>2021-09-28T09:55:57.000Z</time>
      </trkpt>
      <trkpt lat="47.87049" lon="7.1247">
        <ele>889.4</ele>
        <time>2021-09-28T09:56:10.000Z</time>
      </trkpt>
      <trkpt lat="47.87036" lon="7.12455">
        <ele>891.5</ele>
        <time>2021-09-28T09:56:36.000Z</time>
      </trkpt>
      <trkpt lat="47.87027" lon="7.12455">
        <ele>894.2</ele>
        <time>2021-09-28T09:56:47.000Z</time>
      </trkpt>
      <trkpt lat="47.87026" lon="7.12437">
        <ele>893.3</ele>
        <time>2021-09-28T09:56:59.000Z</time>
      </trkpt>
      <trkpt lat="47.8703" lon="7.12425">
        <ele>891.1</ele>
        <time>2021-09-28T09:57:12.000Z</time>
      </trkpt>
      <trkpt lat="47.87028" lon="7.12411">
        <ele>890.3</ele>
        <time>2021-09-28T09:57:20.000Z</time>
      </trkpt>
      <trkpt lat="47.87024" lon="7.12399">
        <ele>889.7</ele>
        <time>2021-09-28T09:57:28.000Z</time>
      </trkpt>
      <trkpt lat="47.87019" lon="7.12387">
        <ele>889.2</ele>
        <time>2021-09-28T09:57:36.000Z</time>
      </trkpt>
      <trkpt lat="47.87014" lon="7.12373">
        <ele>888.6</ele>
        <time>2021-09-28T09:57:43.000Z</time>
      </trkpt>
      <trkpt lat="47.87007" lon="7.12363">
        <ele>889.1</ele>
        <time>2021-09-28T09:57:51.000Z</time>
      </trkpt>
      <trkpt lat="47.87" lon="7.12352">
        <ele>889.4</ele>
        <time>2021-09-28T09:57:58.000Z</time>
      </trkpt>
      <trkpt lat="47.86991" lon="7.12345">
        <ele>887.5</ele>
        <time>2021-09-28T09:58:07.000Z</time>
      </trkpt>
      <trkpt lat="47.86982" lon="7.12342">
        <ele>886.5</ele>
        <time>2021-09-28T09:58:17.000Z</time>
      </trkpt>
      <trkpt lat="47.86975" lon="7.12332">
        <ele>884.8</ele>
        <time>2021-09-28T09:58:25.000Z</time>
      </trkpt>
      <trkpt lat="47.86967" lon="7.12324">
        <ele>882.9</ele>
        <time>2021-09-28T09:58:33.000Z</time>
      </trkpt>
      <trkpt lat="47.86962" lon="7.12312">
        <ele>880.4</ele>
        <time>2021-09-28T09:58:44.000Z</time>
      </trkpt>
      <trkpt lat="47.86954" lon="7.12305">
        <ele>878.7</ele>
        <time>2021-09-28T09:58:51.000Z</time>
      </trkpt>
      <trkpt lat="47.86945" lon="7.12296">
        <ele>876.8</ele>
        <time>2021-09-28T09:58:57.000Z</time>
      </trkpt>
      <trkpt lat="47.86937" lon="7.12287">
        <ele>875</ele>
        <time>2021-09-28T09:59:05.000Z</time>
      </trkpt>
      <trkpt lat="47.86929" lon="7.12278">
        <ele>873.2</ele>
        <time>2021-09-28T09:59:11.000Z</time>
      </trkpt>
      <trkpt lat="47.86921" lon="7.1227">
        <ele>871.7</ele>
        <time>2021-09-28T09:59:22.000Z</time>
      </trkpt>
      <trkpt lat="47.86911" lon="7.12265">
        <ele>869.8</ele>
        <time>2021-09-28T09:59:31.000Z</time>
      </trkpt>
      <trkpt lat="47.86902" lon="7.12266">
        <ele>868.2</ele>
        <time>2021-09-28T09:59:41.000Z</time>
      </trkpt>
      <trkpt lat="47.86892" lon="7.12267">
        <ele>866.7</ele>
        <time>2021-09-28T09:59:51.000Z</time>
      </trkpt>
      <trkpt lat="47.86882" lon="7.12268">
        <ele>865.1</ele>
        <time>2021-09-28T09:59:58.000Z</time>
      </trkpt>
      <trkpt lat="47.86872" lon="7.12271">
        <ele>863.7</ele>
        <time>2021-09-28T10:00:06.000Z</time>
      </trkpt>
      <trkpt lat="47.86863" lon="7.12275">
        <ele>862.5</ele>
        <time>2021-09-28T10:00:16.000Z</time>
      </trkpt>
      <trkpt lat="47.86854" lon="7.12282">
        <ele>861.6</ele>
        <time>2021-09-28T10:00:23.000Z</time>
      </trkpt>
      <trkpt lat="47.86845" lon="7.12288">
        <ele>860.5</ele>
        <time>2021-09-28T10:00:32.000Z</time>
      </trkpt>
      <trkpt lat="47.86835" lon="7.12283">
        <ele>858.1</ele>
        <time>2021-09-28T10:00:39.000Z</time>
      </trkpt>
      <trkpt lat="47.86825" lon="7.12282">
        <ele>858.2</ele>
        <time>2021-09-28T10:00:47.000Z</time>
      </trkpt>
      <trkpt lat="47.86816" lon="7.12289">
        <ele>859.3</ele>
        <time>2021-09-28T10:00:57.000Z</time>
      </trkpt>
      <trkpt lat="47.86809" lon="7.123">
        <ele>860.4</ele>
        <time>2021-09-28T10:01:07.000Z</time>
      </trkpt>
      <trkpt lat="47.86809" lon="7.12313">
        <ele>861.4</ele>
        <time>2021-09-28T10:01:15.000Z</time>
      </trkpt>
      <trkpt lat="47.86806" lon="7.12326">
        <ele>862.5</ele>
        <time>2021-09-28T10:01:23.000Z</time>
      </trkpt>
      <trkpt lat="47.86796" lon="7.12326">
        <ele>862.8</ele>
        <time>2021-09-28T10:01:43.000Z</time>
      </trkpt>
      <trkpt lat="47.86786" lon="7.12327">
        <ele>863.3</ele>
        <time>2021-09-28T10:01:53.000Z</time>
      </trkpt>
      <trkpt lat="47.86776" lon="7.12326">
        <ele>863.6</ele>
        <time>2021-09-28T10:02:06.000Z</time>
      </trkpt>
      <trkpt lat="47.86768" lon="7.12334">
        <ele>864.3</ele>
        <time>2021-09-28T10:02:16.000Z</time>
      </trkpt>
      <trkpt lat="47.86759" lon="7.12338">
        <ele>864.5</ele>
        <time>2021-09-28T10:02:28.000Z</time>
      </trkpt>
      <trkpt lat="47.8675" lon="7.12345">
        <ele>864.7</ele>
        <time>2021-09-28T10:02:35.000Z</time>
      </trkpt>
      <trkpt lat="47.86741" lon="7.12351">
        <ele>864.9</ele>
        <time>2021-09-28T10:02:43.000Z</time>
      </trkpt>
      <trkpt lat="47.86734" lon="7.12362">
        <ele>865.2</ele>
        <time>2021-09-28T10:02:55.000Z</time>
      </trkpt>
      <trkpt lat="47.86724" lon="7.12362">
        <ele>865.7</ele>
        <time>2021-09-28T10:03:04.000Z</time>
      </trkpt>
      <trkpt lat="47.86716" lon="7.12368">
        <ele>866.4</ele>
        <time>2021-09-28T10:03:44.000Z</time>
      </trkpt>
      <trkpt lat="47.86708" lon="7.12375">
        <ele>867.3</ele>
        <time>2021-09-28T10:03:50.000Z</time>
      </trkpt>
      <trkpt lat="47.867" lon="7.12384">
        <ele>868.5</ele>
        <time>2021-09-28T10:03:57.000Z</time>
      </trkpt>
      <trkpt lat="47.86691" lon="7.12388">
        <ele>869.7</ele>
        <time>2021-09-28T10:04:04.000Z</time>
      </trkpt>
      <trkpt lat="47.86682" lon="7.12393">
        <ele>871.1</ele>
        <time>2021-09-28T10:04:12.000Z</time>
      </trkpt>
      <trkpt lat="47.86676" lon="7.12402">
        <ele>872.9</ele>
        <time>2021-09-28T10:04:18.000Z</time>
      </trkpt>
      <trkpt lat="47.86667" lon="7.12407">
        <ele>874.7</ele>
        <time>2021-09-28T10:04:27.000Z</time>
      </trkpt>
      <trkpt lat="47.86658" lon="7.12408">
        <ele>875.2</ele>
        <time>2021-09-28T10:04:34.000Z</time>
      </trkpt>
      <trkpt lat="47.86647" lon="7.12408">
        <ele>875.6</ele>
        <time>2021-09-28T10:04:41.000Z</time>
      </trkpt>
      <trkpt lat="47.86637" lon="7.1241">
        <ele>876.3</ele>
        <time>2021-09-28T10:04:50.000Z</time>
      </trkpt>
      <trkpt lat="47.86628" lon="7.12413">
        <ele>877.2</ele>
        <time>2021-09-28T10:04:57.000Z</time>
      </trkpt>
      <trkpt lat="47.86619" lon="7.12415">
        <ele>878</ele>
        <time>2021-09-28T10:05:04.000Z</time>
      </trkpt>
      <trkpt lat="47.8661" lon="7.12413">
        <ele>877.9</ele>
        <time>2021-09-28T10:05:12.000Z</time>
      </trkpt>
      <trkpt lat="47.86601" lon="7.12414">
        <ele>878.6</ele>
        <time>2021-09-28T10:05:19.000Z</time>
      </trkpt>
      <trkpt lat="47.86591" lon="7.12418">
        <ele>879.8</ele>
        <time>2021-09-28T10:05:27.000Z</time>
      </trkpt>
      <trkpt lat="47.86581" lon="7.1242">
        <ele>880.7</ele>
        <time>2021-09-28T10:05:36.000Z</time>
      </trkpt>
      <trkpt lat="47.86572" lon="7.1242">
        <ele>881.4</ele>
        <time>2021-09-28T10:05:44.000Z</time>
      </trkpt>
      <trkpt lat="47.86562" lon="7.12421">
        <ele>882.1</ele>
        <time>2021-09-28T10:05:52.000Z</time>
      </trkpt>
      <trkpt lat="47.86553" lon="7.1242">
        <ele>882.5</ele>
        <time>2021-09-28T10:05:59.000Z</time>
      </trkpt>
      <trkpt lat="47.86544" lon="7.12416">
        <ele>882.2</ele>
        <time>2021-09-28T10:06:07.000Z</time>
      </trkpt>
      <trkpt lat="47.86535" lon="7.12417">
        <ele>882.9</ele>
        <time>2021-09-28T10:06:16.000Z</time>
      </trkpt>
      <trkpt lat="47.86526" lon="7.12417">
        <ele>883.5</ele>
        <time>2021-09-28T10:06:23.000Z</time>
      </trkpt>
      <trkpt lat="47.86516" lon="7.12413">
        <ele>883</ele>
        <time>2021-09-28T10:06:32.000Z</time>
      </trkpt>
      <trkpt lat="47.86507" lon="7.12414">
        <ele>884</ele>
        <time>2021-09-28T10:06:39.000Z</time>
      </trkpt>
      <trkpt lat="47.86496" lon="7.12413">
        <ele>884.8</ele>
        <time>2021-09-28T10:06:47.000Z</time>
      </trkpt>
      <trkpt lat="47.86486" lon="7.12414">
        <ele>887.4</ele>
        <time>2021-09-28T10:06:57.000Z</time>
      </trkpt>
      <trkpt lat="47.86476" lon="7.12414">
        <ele>889.5</ele>
        <time>2021-09-28T10:07:05.000Z</time>
      </trkpt>
      <trkpt lat="47.86467" lon="7.12413">
        <ele>891.2</ele>
        <time>2021-09-28T10:07:12.000Z</time>
      </trkpt>
      <trkpt lat="47.86457" lon="7.12413">
        <ele>893.4</ele>
        <time>2021-09-28T10:07:20.000Z</time>
      </trkpt>
      <trkpt lat="47.86448" lon="7.12413">
        <ele>895.5</ele>
        <time>2021-09-28T10:07:28.000Z</time>
      </trkpt>
      <trkpt lat="47.86439" lon="7.12405">
        <ele>895.6</ele>
        <time>2021-09-28T10:07:37.000Z</time>
      </trkpt>
      <trkpt lat="47.86433" lon="7.12394">
        <ele>894.4</ele>
        <time>2021-09-28T10:07:50.000Z</time>
      </trkpt>
      <trkpt lat="47.86421" lon="7.12397">
        <ele>898.1</ele>
        <time>2021-09-28T10:08:04.000Z</time>
      </trkpt>
      <trkpt lat="47.86428" lon="7.12388">
        <ele>894.5</ele>
        <time>2021-09-28T10:08:09.000Z</time>
      </trkpt>
      <trkpt lat="47.86419" lon="7.12382">
        <ele>895.3</ele>
        <time>2021-09-28T10:08:15.000Z</time>
      </trkpt>
      <trkpt lat="47.8641" lon="7.1238">
        <ele>897.3</ele>
        <time>2021-09-28T10:08:24.000Z</time>
      </trkpt>
      <trkpt lat="47.86402" lon="7.12372">
        <ele>897.8</ele>
        <time>2021-09-28T10:08:33.000Z</time>
      </trkpt>
      <trkpt lat="47.86398" lon="7.12361">
        <ele>896.7</ele>
        <time>2021-09-28T10:08:40.000Z</time>
      </trkpt>
      <trkpt lat="47.86393" lon="7.12349">
        <ele>895.6</ele>
        <time>2021-09-28T10:08:47.000Z</time>
      </trkpt>
      <trkpt lat="47.86387" lon="7.12339">
        <ele>895.1</ele>
        <time>2021-09-28T10:08:57.000Z</time>
      </trkpt>
      <trkpt lat="47.86381" lon="7.12327">
        <ele>893.7</ele>
        <time>2021-09-28T10:09:05.000Z</time>
      </trkpt>
      <trkpt lat="47.86373" lon="7.12321">
        <ele>894.4</ele>
        <time>2021-09-28T10:09:12.000Z</time>
      </trkpt>
      <trkpt lat="47.86364" lon="7.1232">
        <ele>896.6</ele>
        <time>2021-09-28T10:09:19.000Z</time>
      </trkpt>
      <trkpt lat="47.86354" lon="7.12318">
        <ele>898.6</ele>
        <time>2021-09-28T10:09:28.000Z</time>
      </trkpt>
      <trkpt lat="47.86345" lon="7.12319">
        <ele>901.4</ele>
        <time>2021-09-28T10:09:37.000Z</time>
      </trkpt>
      <trkpt lat="47.86336" lon="7.12316">
        <ele>903.1</ele>
        <time>2021-09-28T10:09:46.000Z</time>
      </trkpt>
      <trkpt lat="47.86328" lon="7.12309">
        <ele>904.5</ele>
        <time>2021-09-28T10:09:54.000Z</time>
      </trkpt>
      <trkpt lat="47.86319" lon="7.12303">
        <ele>906.2</ele>
        <time>2021-09-28T10:10:01.000Z</time>
      </trkpt>
      <trkpt lat="47.86309" lon="7.12298">
        <ele>908.6</ele>
        <time>2021-09-28T10:10:08.000Z</time>
      </trkpt>
      <trkpt lat="47.863" lon="7.12298">
        <ele>911.8</ele>
        <time>2021-09-28T10:10:16.000Z</time>
      </trkpt>
      <trkpt lat="47.8629" lon="7.123">
        <ele>915.5</ele>
        <time>2021-09-28T10:10:25.000Z</time>
      </trkpt>
      <trkpt lat="47.86281" lon="7.12297">
        <ele>918.2</ele>
        <time>2021-09-28T10:10:34.000Z</time>
      </trkpt>
      <trkpt lat="47.86272" lon="7.12298">
        <ele>921.5</ele>
        <time>2021-09-28T10:10:45.000Z</time>
      </trkpt>
      <trkpt lat="47.86263" lon="7.12294">
        <ele>923.5</ele>
        <time>2021-09-28T10:10:59.000Z</time>
      </trkpt>
      <trkpt lat="47.86255" lon="7.12287">
        <ele>924.6</ele>
        <time>2021-09-28T10:11:11.000Z</time>
      </trkpt>
      <trkpt lat="47.86245" lon="7.12284">
        <ele>927.5</ele>
        <time>2021-09-28T10:11:20.000Z</time>
      </trkpt>
      <trkpt lat="47.86236" lon="7.1228">
        <ele>930.3</ele>
        <time>2021-09-28T10:11:31.000Z</time>
      </trkpt>
      <trkpt lat="47.8623" lon="7.1227">
        <ele>930.2</ele>
        <time>2021-09-28T10:11:42.000Z</time>
      </trkpt>
      <trkpt lat="47.86222" lon="7.12262">
        <ele>931.1</ele>
        <time>2021-09-28T10:11:54.000Z</time>
      </trkpt>
      <trkpt lat="47.86215" lon="7.12253">
        <ele>931.8</ele>
        <time>2021-09-28T10:12:09.000Z</time>
      </trkpt>
      <trkpt lat="47.86208" lon="7.12243">
        <ele>932.5</ele>
        <time>2021-09-28T10:12:20.000Z</time>
      </trkpt>
      <trkpt lat="47.862" lon="7.12236">
        <ele>934.5</ele>
        <time>2021-09-28T10:12:28.000Z</time>
      </trkpt>
      <trkpt lat="47.86191" lon="7.1223">
        <ele>936.8</ele>
        <time>2021-09-28T10:12:34.000Z</time>
      </trkpt>
      <trkpt lat="47.86185" lon="7.12221">
        <ele>937.5</ele>
        <time>2021-09-28T10:12:42.000Z</time>
      </trkpt>
      <trkpt lat="47.86178" lon="7.12211">
        <ele>938.1</ele>
        <time>2021-09-28T10:12:50.000Z</time>
      </trkpt>
      <trkpt lat="47.86171" lon="7.12202">
        <ele>938.7</ele>
        <time>2021-09-28T10:13:00.000Z</time>
      </trkpt>
      <trkpt lat="47.86165" lon="7.1219">
        <ele>938.1</ele>
        <time>2021-09-28T10:13:08.000Z</time>
      </trkpt>
      <trkpt lat="47.86158" lon="7.12181">
        <ele>938.1</ele>
        <time>2021-09-28T10:13:14.000Z</time>
      </trkpt>
      <trkpt lat="47.86152" lon="7.1217">
        <ele>937.3</ele>
        <time>2021-09-28T10:13:22.000Z</time>
      </trkpt>
      <trkpt lat="47.86145" lon="7.12161">
        <ele>937.5</ele>
        <time>2021-09-28T10:13:29.000Z</time>
      </trkpt>
      <trkpt lat="47.86142" lon="7.12147">
        <ele>935.3</ele>
        <time>2021-09-28T10:13:38.000Z</time>
      </trkpt>
      <trkpt lat="47.86136" lon="7.12137">
        <ele>934.6</ele>
        <time>2021-09-28T10:13:44.000Z</time>
      </trkpt>
      <trkpt lat="47.86128" lon="7.12125">
        <ele>934.3</ele>
        <time>2021-09-28T10:13:51.000Z</time>
      </trkpt>
      <trkpt lat="47.86123" lon="7.12114">
        <ele>933.2</ele>
        <time>2021-09-28T10:13:59.000Z</time>
      </trkpt>
      <trkpt lat="47.86115" lon="7.12106">
        <ele>933.5</ele>
        <time>2021-09-28T10:14:09.000Z</time>
      </trkpt>
      <trkpt lat="47.86107" lon="7.12096">
        <ele>933.3</ele>
        <time>2021-09-28T10:14:17.000Z</time>
      </trkpt>
      <trkpt lat="47.86101" lon="7.12084">
        <ele>932.1</ele>
        <time>2021-09-28T10:14:24.000Z</time>
      </trkpt>
      <trkpt lat="47.86096" lon="7.12073">
        <ele>932.3</ele>
        <time>2021-09-28T10:14:31.000Z</time>
      </trkpt>
      <trkpt lat="47.86091" lon="7.12062">
        <ele>932.5</ele>
        <time>2021-09-28T10:14:39.000Z</time>
      </trkpt>
      <trkpt lat="47.86087" lon="7.12048">
        <ele>932.6</ele>
        <time>2021-09-28T10:14:46.000Z</time>
      </trkpt>
      <trkpt lat="47.86084" lon="7.12034">
        <ele>932.2</ele>
        <time>2021-09-28T10:14:52.000Z</time>
      </trkpt>
      <trkpt lat="47.86079" lon="7.12022">
        <ele>930.9</ele>
        <time>2021-09-28T10:14:59.000Z</time>
      </trkpt>
      <trkpt lat="47.86074" lon="7.1201">
        <ele>929.4</ele>
        <time>2021-09-28T10:15:09.000Z</time>
      </trkpt>
      <trkpt lat="47.8607" lon="7.11998">
        <ele>927.6</ele>
        <time>2021-09-28T10:15:17.000Z</time>
      </trkpt>
      <trkpt lat="47.86066" lon="7.11985">
        <ele>925.2</ele>
        <time>2021-09-28T10:15:26.000Z</time>
      </trkpt>
      <trkpt lat="47.86058" lon="7.11976">
        <ele>923.3</ele>
        <time>2021-09-28T10:15:35.000Z</time>
      </trkpt>
      <trkpt lat="47.8605" lon="7.11971">
        <ele>921.9</ele>
        <time>2021-09-28T10:15:41.000Z</time>
      </trkpt>
      <trkpt lat="47.86041" lon="7.11977">
        <ele>922.4</ele>
        <time>2021-09-28T10:15:48.000Z</time>
      </trkpt>
      <trkpt lat="47.86035" lon="7.1199">
        <ele>923.9</ele>
        <time>2021-09-28T10:15:55.000Z</time>
      </trkpt>
      <trkpt lat="47.86028" lon="7.12002">
        <ele>925.4</ele>
        <time>2021-09-28T10:16:02.000Z</time>
      </trkpt>
      <trkpt lat="47.86021" lon="7.12012">
        <ele>926.4</ele>
        <time>2021-09-28T10:16:11.000Z</time>
      </trkpt>
      <trkpt lat="47.86013" lon="7.1202">
        <ele>927.2</ele>
        <time>2021-09-28T10:16:19.000Z</time>
      </trkpt>
      <trkpt lat="47.86007" lon="7.12031">
        <ele>928.9</ele>
        <time>2021-09-28T10:16:28.000Z</time>
      </trkpt>
      <trkpt lat="47.86002" lon="7.12045">
        <ele>931.1</ele>
        <time>2021-09-28T10:16:37.000Z</time>
      </trkpt>
      <trkpt lat="47.85996" lon="7.12056">
        <ele>931.3</ele>
        <time>2021-09-28T10:16:43.000Z</time>
      </trkpt>
      <trkpt lat="47.8599" lon="7.12067">
        <ele>930.4</ele>
        <time>2021-09-28T10:16:51.000Z</time>
      </trkpt>
      <trkpt lat="47.85984" lon="7.1208">
        <ele>930</ele>
        <time>2021-09-28T10:16:58.000Z</time>
      </trkpt>
      <trkpt lat="47.85977" lon="7.12089">
        <ele>928.3</ele>
        <time>2021-09-28T10:17:14.000Z</time>
      </trkpt>
      <trkpt lat="47.8597" lon="7.12099">
        <ele>927.4</ele>
        <time>2021-09-28T10:17:25.000Z</time>
      </trkpt>
      <trkpt lat="47.85968" lon="7.12113">
        <ele>929.3</ele>
        <time>2021-09-28T10:17:32.000Z</time>
      </trkpt>
      <trkpt lat="47.85965" lon="7.12127">
        <ele>930.7</ele>
        <time>2021-09-28T10:17:39.000Z</time>
      </trkpt>
      <trkpt lat="47.8596" lon="7.12139">
        <ele>931.3</ele>
        <time>2021-09-28T10:17:46.000Z</time>
      </trkpt>
      <trkpt lat="47.85956" lon="7.12152">
        <ele>932.3</ele>
        <time>2021-09-28T10:17:54.000Z</time>
      </trkpt>
      <trkpt lat="47.85952" lon="7.12164">
        <ele>932.8</ele>
        <time>2021-09-28T10:18:04.000Z</time>
      </trkpt>
      <trkpt lat="47.85946" lon="7.12175">
        <ele>932.2</ele>
        <time>2021-09-28T10:18:11.000Z</time>
      </trkpt>
      <trkpt lat="47.85943" lon="7.12187">
        <ele>932.1</ele>
        <time>2021-09-28T10:18:21.000Z</time>
      </trkpt>
      <trkpt lat="47.85941" lon="7.12201">
        <ele>933.1</ele>
        <time>2021-09-28T10:18:29.000Z</time>
      </trkpt>
      <trkpt lat="47.85939" lon="7.12215">
        <ele>933.9</ele>
        <time>2021-09-28T10:18:37.000Z</time>
      </trkpt>
      <trkpt lat="47.85933" lon="7.12226">
        <ele>932.7</ele>
        <time>2021-09-28T10:18:45.000Z</time>
      </trkpt>
      <trkpt lat="47.85928" lon="7.12239">
        <ele>931.9</ele>
        <time>2021-09-28T10:18:51.000Z</time>
      </trkpt>
      <trkpt lat="47.85924" lon="7.12252">
        <ele>931.6</ele>
        <time>2021-09-28T10:18:58.000Z</time>
      </trkpt>
      <trkpt lat="47.85918" lon="7.12264">
        <ele>929.6</ele>
        <time>2021-09-28T10:19:06.000Z</time>
      </trkpt>
      <trkpt lat="47.85913" lon="7.12278">
        <ele>928.8</ele>
        <time>2021-09-28T10:19:17.000Z</time>
      </trkpt>
      <trkpt lat="47.8591" lon="7.12292">
        <ele>928.5</ele>
        <time>2021-09-28T10:19:23.000Z</time>
      </trkpt>
      <trkpt lat="47.8591" lon="7.12306">
        <ele>929.4</ele>
        <time>2021-09-28T10:19:32.000Z</time>
      </trkpt>
      <trkpt lat="47.85908" lon="7.1232">
        <ele>929.9</ele>
        <time>2021-09-28T10:19:39.000Z</time>
      </trkpt>
      <trkpt lat="47.85908" lon="7.12334">
        <ele>930.9</ele>
        <time>2021-09-28T10:19:46.000Z</time>
      </trkpt>
      <trkpt lat="47.8591" lon="7.12348">
        <ele>932.9</ele>
        <time>2021-09-28T10:19:53.000Z</time>
      </trkpt>
      <trkpt lat="47.85907" lon="7.1236">
        <ele>932.3</ele>
        <time>2021-09-28T10:20:01.000Z</time>
      </trkpt>
      <trkpt lat="47.85905" lon="7.12374">
        <ele>932.8</ele>
        <time>2021-09-28T10:20:09.000Z</time>
      </trkpt>
      <trkpt lat="47.85904" lon="7.12388">
        <ele>933.2</ele>
        <time>2021-09-28T10:20:20.000Z</time>
      </trkpt>
      <trkpt lat="47.85901" lon="7.12401">
        <ele>932.9</ele>
        <time>2021-09-28T10:20:28.000Z</time>
      </trkpt>
      <trkpt lat="47.85897" lon="7.12414">
        <ele>932.6</ele>
        <time>2021-09-28T10:20:36.000Z</time>
      </trkpt>
      <trkpt lat="47.85892" lon="7.12424">
        <ele>931.7</ele>
        <time>2021-09-28T10:20:44.000Z</time>
      </trkpt>
      <trkpt lat="47.85889" lon="7.12438">
        <ele>932.6</ele>
        <time>2021-09-28T10:20:52.000Z</time>
      </trkpt>
      <trkpt lat="47.85883" lon="7.12449">
        <ele>931.7</ele>
        <time>2021-09-28T10:20:59.000Z</time>
      </trkpt>
      <trkpt lat="47.85884" lon="7.12462">
        <ele>934</ele>
        <time>2021-09-28T10:21:07.000Z</time>
      </trkpt>
      <trkpt lat="47.85878" lon="7.12474">
        <ele>933.2</ele>
        <time>2021-09-28T10:21:17.000Z</time>
      </trkpt>
      <trkpt lat="47.85877" lon="7.12488">
        <ele>935.2</ele>
        <time>2021-09-28T10:21:22.000Z</time>
      </trkpt>
      <trkpt lat="47.85874" lon="7.12501">
        <ele>935.4</ele>
        <time>2021-09-28T10:21:31.000Z</time>
      </trkpt>
      <trkpt lat="47.8587" lon="7.12515">
        <ele>936.4</ele>
        <time>2021-09-28T10:21:40.000Z</time>
      </trkpt>
      <trkpt lat="47.85864" lon="7.12527">
        <ele>936.3</ele>
        <time>2021-09-28T10:21:47.000Z</time>
      </trkpt>
      <trkpt lat="47.85856" lon="7.12539">
        <ele>935.5</ele>
        <time>2021-09-28T10:21:52.000Z</time>
      </trkpt>
      <trkpt lat="47.8585" lon="7.12548">
        <ele>935</ele>
        <time>2021-09-28T10:21:59.000Z</time>
      </trkpt>
      <trkpt lat="47.85841" lon="7.12552">
        <ele>932.5</ele>
        <time>2021-09-28T10:22:12.000Z</time>
      </trkpt>
      <trkpt lat="47.8583" lon="7.1255">
        <ele>929.4</ele>
        <time>2021-09-28T10:22:19.000Z</time>
      </trkpt>
      <trkpt lat="47.85821" lon="7.12551">
        <ele>929.5</ele>
        <time>2021-09-28T10:22:27.000Z</time>
      </trkpt>
      <trkpt lat="47.85811" lon="7.12549">
        <ele>928.8</ele>
        <time>2021-09-28T10:22:35.000Z</time>
      </trkpt>
      <trkpt lat="47.85802" lon="7.12545">
        <ele>927.7</ele>
        <time>2021-09-28T10:22:41.000Z</time>
      </trkpt>
      <trkpt lat="47.85793" lon="7.1254">
        <ele>926.4</ele>
        <time>2021-09-28T10:22:48.000Z</time>
      </trkpt>
      <trkpt lat="47.85784" lon="7.12537">
        <ele>925.4</ele>
        <time>2021-09-28T10:22:55.000Z</time>
      </trkpt>
      <trkpt lat="47.85775" lon="7.12531">
        <ele>923.6</ele>
        <time>2021-09-28T10:23:06.000Z</time>
      </trkpt>
      <trkpt lat="47.85766" lon="7.12524">
        <ele>921.8</ele>
        <time>2021-09-28T10:23:14.000Z</time>
      </trkpt>
      <trkpt lat="47.85757" lon="7.12518">
        <ele>919.9</ele>
        <time>2021-09-28T10:23:20.000Z</time>
      </trkpt>
      <trkpt lat="47.85748" lon="7.12513">
        <ele>918.9</ele>
        <time>2021-09-28T10:23:26.000Z</time>
      </trkpt>
      <trkpt lat="47.85738" lon="7.12512">
        <ele>920.3</ele>
        <time>2021-09-28T10:23:32.000Z</time>
      </trkpt>
      <trkpt lat="47.85729" lon="7.12511">
        <ele>921.5</ele>
        <time>2021-09-28T10:23:40.000Z</time>
      </trkpt>
      <trkpt lat="47.8572" lon="7.12512">
        <ele>923.7</ele>
        <time>2021-09-28T10:23:49.000Z</time>
      </trkpt>
      <trkpt lat="47.8571" lon="7.12512">
        <ele>925.4</ele>
        <time>2021-09-28T10:23:56.000Z</time>
      </trkpt>
      <trkpt lat="47.85701" lon="7.12509">
        <ele>926.2</ele>
        <time>2021-09-28T10:24:04.000Z</time>
      </trkpt>
      <trkpt lat="47.85692" lon="7.12506">
        <ele>926.7</ele>
        <time>2021-09-28T10:24:12.000Z</time>
      </trkpt>
      <trkpt lat="47.85683" lon="7.12501">
        <ele>926.6</ele>
        <time>2021-09-28T10:24:23.000Z</time>
      </trkpt>
      <trkpt lat="47.85673" lon="7.12494">
        <ele>925.7</ele>
        <time>2021-09-28T10:24:33.000Z</time>
      </trkpt>
      <trkpt lat="47.85664" lon="7.1249">
        <ele>925.8</ele>
        <time>2021-09-28T10:24:40.000Z</time>
      </trkpt>
      <trkpt lat="47.85655" lon="7.1249">
        <ele>928.6</ele>
        <time>2021-09-28T10:24:48.000Z</time>
      </trkpt>
      <trkpt lat="47.85645" lon="7.12488">
        <ele>930.7</ele>
        <time>2021-09-28T10:24:57.000Z</time>
      </trkpt>
      <trkpt lat="47.85635" lon="7.12484">
        <ele>932.2</ele>
        <time>2021-09-28T10:25:02.000Z</time>
      </trkpt>
      <trkpt lat="47.85629" lon="7.12473">
        <ele>929.9</ele>
        <time>2021-09-28T10:25:10.000Z</time>
      </trkpt>
      <trkpt lat="47.85624" lon="7.12461">
        <ele>926.6</ele>
        <time>2021-09-28T10:25:15.000Z</time>
      </trkpt>
      <trkpt lat="47.85616" lon="7.12454">
        <ele>926.4</ele>
        <time>2021-09-28T10:25:24.000Z</time>
      </trkpt>
      <trkpt lat="47.85607" lon="7.12449">
        <ele>927.1</ele>
        <time>2021-09-28T10:25:36.000Z</time>
      </trkpt>
      <trkpt lat="47.85601" lon="7.12438">
        <ele>924.6</ele>
        <time>2021-09-28T10:25:46.000Z</time>
      </trkpt>
      <trkpt lat="47.85593" lon="7.1243">
        <ele>924.1</ele>
        <time>2021-09-28T10:25:53.000Z</time>
      </trkpt>
      <trkpt lat="47.85585" lon="7.12424">
        <ele>924.4</ele>
        <time>2021-09-28T10:26:00.000Z</time>
      </trkpt>
      <trkpt lat="47.85576" lon="7.1242">
        <ele>926.7</ele>
        <time>2021-09-28T10:26:09.000Z</time>
      </trkpt>
      <trkpt lat="47.85567" lon="7.12415">
        <ele>929.3</ele>
        <time>2021-09-28T10:26:14.000Z</time>
      </trkpt>
      <trkpt lat="47.85559" lon="7.12408">
        <ele>930.7</ele>
        <time>2021-09-28T10:26:20.000Z</time>
      </trkpt>
      <trkpt lat="47.85553" lon="7.12397">
        <ele>930.1</ele>
        <time>2021-09-28T10:26:32.000Z</time>
      </trkpt>
      <trkpt lat="47.85546" lon="7.12387">
        <ele>930.3</ele>
        <time>2021-09-28T10:26:39.000Z</time>
      </trkpt>
      <trkpt lat="47.85539" lon="7.12377">
        <ele>930.1</ele>
        <time>2021-09-28T10:26:48.000Z</time>
      </trkpt>
      <trkpt lat="47.85534" lon="7.12366">
        <ele>928.6</ele>
        <time>2021-09-28T10:26:56.000Z</time>
      </trkpt>
      <trkpt lat="47.85527" lon="7.12355">
        <ele>928.2</ele>
        <time>2021-09-28T10:27:07.000Z</time>
      </trkpt>
      <trkpt lat="47.85524" lon="7.12336">
        <ele>922.9</ele>
        <time>2021-09-28T10:27:12.000Z</time>
      </trkpt>
      <trkpt lat="47.85516" lon="7.12328">
        <ele>923.7</ele>
        <time>2021-09-28T10:27:23.000Z</time>
      </trkpt>
      <trkpt lat="47.85511" lon="7.12318">
        <ele>922.7</ele>
        <time>2021-09-28T10:27:29.000Z</time>
      </trkpt>
      <trkpt lat="47.85505" lon="7.12307">
        <ele>921.4</ele>
        <time>2021-09-28T10:27:37.000Z</time>
      </trkpt>
      <trkpt lat="47.85498" lon="7.12298">
        <ele>921.1</ele>
        <time>2021-09-28T10:27:44.000Z</time>
      </trkpt>
      <trkpt lat="47.8549" lon="7.12288">
        <ele>920.3</ele>
        <time>2021-09-28T10:27:51.000Z</time>
      </trkpt>
      <trkpt lat="47.85481" lon="7.12282">
        <ele>921</ele>
        <time>2021-09-28T10:27:58.000Z</time>
      </trkpt>
      <trkpt lat="47.85472" lon="7.12277">
        <ele>922.1</ele>
        <time>2021-09-28T10:28:05.000Z</time>
      </trkpt>
      <trkpt lat="47.85462" lon="7.12273">
        <ele>923.4</ele>
        <time>2021-09-28T10:28:14.000Z</time>
      </trkpt>
      <trkpt lat="47.85454" lon="7.12264">
        <ele>922.9</ele>
        <time>2021-09-28T10:28:22.000Z</time>
      </trkpt>
      <trkpt lat="47.85446" lon="7.12256">
        <ele>922.7</ele>
        <time>2021-09-28T10:28:32.000Z</time>
      </trkpt>
      <trkpt lat="47.85437" lon="7.1225">
        <ele>923.1</ele>
        <time>2021-09-28T10:28:42.000Z</time>
      </trkpt>
      <trkpt lat="47.85429" lon="7.12244">
        <ele>923.8</ele>
        <time>2021-09-28T10:28:51.000Z</time>
      </trkpt>
      <trkpt lat="47.85421" lon="7.12234">
        <ele>923.3</ele>
        <time>2021-09-28T10:28:59.000Z</time>
      </trkpt>
      <trkpt lat="47.85413" lon="7.12225">
        <ele>923.4</ele>
        <time>2021-09-28T10:29:07.000Z</time>
      </trkpt>
      <trkpt lat="47.85407" lon="7.12214">
        <ele>923.1</ele>
        <time>2021-09-28T10:29:14.000Z</time>
      </trkpt>
      <trkpt lat="47.85399" lon="7.12205">
        <ele>923.5</ele>
        <time>2021-09-28T10:29:21.000Z</time>
      </trkpt>
      <trkpt lat="47.85392" lon="7.12196">
        <ele>923.9</ele>
        <time>2021-09-28T10:29:29.000Z</time>
      </trkpt>
      <trkpt lat="47.85386" lon="7.12185">
        <ele>923.7</ele>
        <time>2021-09-28T10:29:37.000Z</time>
      </trkpt>
      <trkpt lat="47.85378" lon="7.12176">
        <ele>924.2</ele>
        <time>2021-09-28T10:29:45.000Z</time>
      </trkpt>
      <trkpt lat="47.8537" lon="7.12168">
        <ele>925.5</ele>
        <time>2021-09-28T10:29:51.000Z</time>
      </trkpt>
      <trkpt lat="47.85364" lon="7.12156">
        <ele>924.6</ele>
        <time>2021-09-28T10:30:01.000Z</time>
      </trkpt>
      <trkpt lat="47.85359" lon="7.12146">
        <ele>924.1</ele>
        <time>2021-09-28T10:30:10.000Z</time>
      </trkpt>
      <trkpt lat="47.85352" lon="7.12136">
        <ele>924</ele>
        <time>2021-09-28T10:30:16.000Z</time>
      </trkpt>
      <trkpt lat="47.85346" lon="7.12125">
        <ele>923.6</ele>
        <time>2021-09-28T10:30:22.000Z</time>
      </trkpt>
      <trkpt lat="47.85342" lon="7.12112">
        <ele>921.6</ele>
        <time>2021-09-28T10:30:30.000Z</time>
      </trkpt>
      <trkpt lat="47.85335" lon="7.12103">
        <ele>921.7</ele>
        <time>2021-09-28T10:30:38.000Z</time>
      </trkpt>
      <trkpt lat="47.85328" lon="7.12093">
        <ele>922</ele>
        <time>2021-09-28T10:30:48.000Z</time>
      </trkpt>
      <trkpt lat="47.85322" lon="7.12082">
        <ele>921.4</ele>
        <time>2021-09-28T10:30:57.000Z</time>
      </trkpt>
      <trkpt lat="47.85315" lon="7.12074">
        <ele>923</ele>
        <time>2021-09-28T10:31:05.000Z</time>
      </trkpt>
      <trkpt lat="47.8531" lon="7.12062">
        <ele>922.2</ele>
        <time>2021-09-28T10:31:13.000Z</time>
      </trkpt>
      <trkpt lat="47.85305" lon="7.12049">
        <ele>921.5</ele>
        <time>2021-09-28T10:31:20.000Z</time>
      </trkpt>
      <trkpt lat="47.853" lon="7.12037">
        <ele>920.7</ele>
        <time>2021-09-28T10:31:26.000Z</time>
      </trkpt>
      <trkpt lat="47.85294" lon="7.12025">
        <ele>920</ele>
        <time>2021-09-28T10:31:35.000Z</time>
      </trkpt>
      <trkpt lat="47.85289" lon="7.12013">
        <ele>919</ele>
        <time>2021-09-28T10:31:43.000Z</time>
      </trkpt>
      <trkpt lat="47.8528" lon="7.12004">
        <ele>919.4</ele>
        <time>2021-09-28T10:31:51.000Z</time>
      </trkpt>
      <trkpt lat="47.85273" lon="7.11994">
        <ele>919.2</ele>
        <time>2021-09-28T10:32:00.000Z</time>
      </trkpt>
      <trkpt lat="47.85267" lon="7.11984">
        <ele>918</ele>
        <time>2021-09-28T10:32:07.000Z</time>
      </trkpt>
      <trkpt lat="47.85258" lon="7.11976">
        <ele>918.1</ele>
        <time>2021-09-28T10:32:16.000Z</time>
      </trkpt>
      <trkpt lat="47.8525" lon="7.11966">
        <ele>917</ele>
        <time>2021-09-28T10:32:23.000Z</time>
      </trkpt>
      <trkpt lat="47.85242" lon="7.11961">
        <ele>916.3</ele>
        <time>2021-09-28T10:32:32.000Z</time>
      </trkpt>
      <trkpt lat="47.85232" lon="7.11958">
        <ele>916.8</ele>
        <time>2021-09-28T10:32:39.000Z</time>
      </trkpt>
      <trkpt lat="47.85222" lon="7.11959">
        <ele>918.5</ele>
        <time>2021-09-28T10:32:45.000Z</time>
      </trkpt>
      <trkpt lat="47.85213" lon="7.11954">
        <ele>917.7</ele>
        <time>2021-09-28T10:32:52.000Z</time>
      </trkpt>
      <trkpt lat="47.85205" lon="7.11948">
        <ele>916.6</ele>
        <time>2021-09-28T10:33:00.000Z</time>
      </trkpt>
      <trkpt lat="47.85195" lon="7.11946">
        <ele>917.1</ele>
        <time>2021-09-28T10:33:10.000Z</time>
      </trkpt>
      <trkpt lat="47.85186" lon="7.11944">
        <ele>917.6</ele>
        <time>2021-09-28T10:33:18.000Z</time>
      </trkpt>
      <trkpt lat="47.85176" lon="7.11942">
        <ele>918.1</ele>
        <time>2021-09-28T10:33:26.000Z</time>
      </trkpt>
      <trkpt lat="47.85167" lon="7.11941">
        <ele>918.7</ele>
        <time>2021-09-28T10:33:33.000Z</time>
      </trkpt>
      <trkpt lat="47.85158" lon="7.1194">
        <ele>919.5</ele>
        <time>2021-09-28T10:33:41.000Z</time>
      </trkpt>
      <trkpt lat="47.85148" lon="7.11936">
        <ele>919.6</ele>
        <time>2021-09-28T10:33:51.000Z</time>
      </trkpt>
      <trkpt lat="47.8514" lon="7.11929">
        <ele>918.2</ele>
        <time>2021-09-28T10:34:00.000Z</time>
      </trkpt>
      <trkpt lat="47.8513" lon="7.11927">
        <ele>919</ele>
        <time>2021-09-28T10:34:07.000Z</time>
      </trkpt>
      <trkpt lat="47.85121" lon="7.11923">
        <ele>919.1</ele>
        <time>2021-09-28T10:34:13.000Z</time>
      </trkpt>
      <trkpt lat="47.85112" lon="7.11916">
        <ele>917.9</ele>
        <time>2021-09-28T10:34:22.000Z</time>
      </trkpt>
      <trkpt lat="47.85102" lon="7.11913">
        <ele>918.3</ele>
        <time>2021-09-28T10:34:28.000Z</time>
      </trkpt>
      <trkpt lat="47.85092" lon="7.11913">
        <ele>919.8</ele>
        <time>2021-09-28T10:34:36.000Z</time>
      </trkpt>
      <trkpt lat="47.85083" lon="7.11908">
        <ele>918.9</ele>
        <time>2021-09-28T10:34:45.000Z</time>
      </trkpt>
      <trkpt lat="47.85074" lon="7.11905">
        <ele>918</ele>
        <time>2021-09-28T10:34:53.000Z</time>
      </trkpt>
      <trkpt lat="47.85064" lon="7.119">
        <ele>916.6</ele>
        <time>2021-09-28T10:35:02.000Z</time>
      </trkpt>
      <trkpt lat="47.85057" lon="7.1189">
        <ele>912.8</ele>
        <time>2021-09-28T10:35:12.000Z</time>
      </trkpt>
      <trkpt lat="47.8505" lon="7.1188">
        <ele>909.7</ele>
        <time>2021-09-28T10:35:19.000Z</time>
      </trkpt>
      <trkpt lat="47.85041" lon="7.11879">
        <ele>910.1</ele>
        <time>2021-09-28T10:35:38.000Z</time>
      </trkpt>
      <trkpt lat="47.85031" lon="7.11885">
        <ele>913.3</ele>
        <time>2021-09-28T10:35:46.000Z</time>
      </trkpt>
      <trkpt lat="47.85022" lon="7.11886">
        <ele>914.9</ele>
        <time>2021-09-28T10:35:52.000Z</time>
      </trkpt>
      <trkpt lat="47.85014" lon="7.11892">
        <ele>917.7</ele>
        <time>2021-09-28T10:35:58.000Z</time>
      </trkpt>
      <trkpt lat="47.85005" lon="7.11895">
        <ele>919.5</ele>
        <time>2021-09-28T10:36:07.000Z</time>
      </trkpt>
      <trkpt lat="47.84996" lon="7.119">
        <ele>921.5</ele>
        <time>2021-09-28T10:36:16.000Z</time>
      </trkpt>
      <trkpt lat="47.84987" lon="7.119">
        <ele>921.5</ele>
        <time>2021-09-28T10:36:24.000Z</time>
      </trkpt>
      <trkpt lat="47.84977" lon="7.11896">
        <ele>920.5</ele>
        <time>2021-09-28T10:36:32.000Z</time>
      </trkpt>
      <trkpt lat="47.84969" lon="7.1189">
        <ele>919.4</ele>
        <time>2021-09-28T10:36:48.000Z</time>
      </trkpt>
      <trkpt lat="47.84961" lon="7.11879">
        <ele>917.4</ele>
        <time>2021-09-28T10:37:06.000Z</time>
      </trkpt>
      <trkpt lat="47.84957" lon="7.11866">
        <ele>915.2</ele>
        <time>2021-09-28T10:37:16.000Z</time>
      </trkpt>
      <trkpt lat="47.84949" lon="7.11858">
        <ele>914.5</ele>
        <time>2021-09-28T10:37:22.000Z</time>
      </trkpt>
      <trkpt lat="47.84942" lon="7.11849">
        <ele>914.1</ele>
        <time>2021-09-28T10:37:31.000Z</time>
      </trkpt>
      <trkpt lat="47.84935" lon="7.1184">
        <ele>914.2</ele>
        <time>2021-09-28T10:37:37.000Z</time>
      </trkpt>
      <trkpt lat="47.84927" lon="7.11831">
        <ele>914.4</ele>
        <time>2021-09-28T10:37:44.000Z</time>
      </trkpt>
      <trkpt lat="47.84921" lon="7.1182">
        <ele>913.6</ele>
        <time>2021-09-28T10:37:53.000Z</time>
      </trkpt>
      <trkpt lat="47.84919" lon="7.11805">
        <ele>911.2</ele>
        <time>2021-09-28T10:38:04.000Z</time>
      </trkpt>
      <trkpt lat="47.84915" lon="7.11793">
        <ele>909.7</ele>
        <time>2021-09-28T10:38:12.000Z</time>
      </trkpt>
      <trkpt lat="47.84908" lon="7.11783">
        <ele>908.4</ele>
        <time>2021-09-28T10:38:20.000Z</time>
      </trkpt>
      <trkpt lat="47.84901" lon="7.11775">
        <ele>907.8</ele>
        <time>2021-09-28T10:38:27.000Z</time>
      </trkpt>
      <trkpt lat="47.84892" lon="7.11769">
        <ele>908.1</ele>
        <time>2021-09-28T10:38:34.000Z</time>
      </trkpt>
      <trkpt lat="47.84882" lon="7.11765">
        <ele>908.8</ele>
        <time>2021-09-28T10:38:40.000Z</time>
      </trkpt>
      <trkpt lat="47.84874" lon="7.11771">
        <ele>910</ele>
        <time>2021-09-28T10:38:47.000Z</time>
      </trkpt>
      <trkpt lat="47.84876" lon="7.11789">
        <ele>910.6</ele>
        <time>2021-09-28T10:39:06.000Z</time>
      </trkpt>
      <trkpt lat="47.84879" lon="7.11797">
        <ele>910.9</ele>
        <time>2021-09-28T10:39:11.000Z</time>
      </trkpt>
      <trkpt lat="47.84884" lon="7.11785">
        <ele>910</ele>
        <time>2021-09-28T10:39:34.000Z</time>
      </trkpt>
      <trkpt lat="47.84877" lon="7.11798">
        <ele>911</ele>
        <time>2021-09-28T10:52:08.000Z</time>
      </trkpt>
      <trkpt lat="47.84872" lon="7.11786">
        <ele>910.7</ele>
        <time>2021-09-28T10:59:53.000Z</time>
      </trkpt>
      <trkpt lat="47.84877" lon="7.11797">
        <ele>910.9</ele>
        <time>2021-09-28T11:00:44.000Z</time>
      </trkpt>
      <trkpt lat="47.84881" lon="7.11785">
        <ele>910.1</ele>
        <time>2021-09-28T11:01:27.000Z</time>
      </trkpt>
      <trkpt lat="47.8488" lon="7.1177">
        <ele>909.4</ele>
        <time>2021-09-28T11:01:33.000Z</time>
      </trkpt>
      <trkpt lat="47.84881" lon="7.11757">
        <ele>908.5</ele>
        <time>2021-09-28T11:01:40.000Z</time>
      </trkpt>
      <trkpt lat="47.84872" lon="7.11763">
        <ele>909.9</ele>
        <time>2021-09-28T11:01:52.000Z</time>
      </trkpt>
      <trkpt lat="47.84869" lon="7.11778">
        <ele>910.6</ele>
        <time>2021-09-28T11:02:02.000Z</time>
      </trkpt>
      <trkpt lat="47.84872" lon="7.11765">
        <ele>910</ele>
        <time>2021-09-28T11:02:33.000Z</time>
      </trkpt>
      <trkpt lat="47.84872" lon="7.11751">
        <ele>909.5</ele>
        <time>2021-09-28T11:02:40.000Z</time>
      </trkpt>
      <trkpt lat="47.84874" lon="7.11736">
        <ele>908.3</ele>
        <time>2021-09-28T11:02:51.000Z</time>
      </trkpt>
      <trkpt lat="47.8487" lon="7.11723">
        <ele>908</ele>
        <time>2021-09-28T11:02:58.000Z</time>
      </trkpt>
      <trkpt lat="47.8487" lon="7.11709">
        <ele>907</ele>
        <time>2021-09-28T11:03:06.000Z</time>
      </trkpt>
      <trkpt lat="47.84868" lon="7.11694">
        <ele>906.6</ele>
        <time>2021-09-28T11:03:13.000Z</time>
      </trkpt>
      <trkpt lat="47.84865" lon="7.11679">
        <ele>906.3</ele>
        <time>2021-09-28T11:03:21.000Z</time>
      </trkpt>
      <trkpt lat="47.84863" lon="7.11661">
        <ele>905.7</ele>
        <time>2021-09-28T11:03:26.000Z</time>
      </trkpt>
      <trkpt lat="47.84859" lon="7.11639">
        <ele>905.1</ele>
        <time>2021-09-28T11:03:31.000Z</time>
      </trkpt>
      <trkpt lat="47.84854" lon="7.11627">
        <ele>905.6</ele>
        <time>2021-09-28T11:03:38.000Z</time>
      </trkpt>
      <trkpt lat="47.84853" lon="7.11613">
        <ele>904.7</ele>
        <time>2021-09-28T11:03:54.000Z</time>
      </trkpt>
      <trkpt lat="47.84852" lon="7.11599">
        <ele>903.7</ele>
        <time>2021-09-28T11:04:02.000Z</time>
      </trkpt>
      <trkpt lat="47.84852" lon="7.11584">
        <ele>902.7</ele>
        <time>2021-09-28T11:04:09.000Z</time>
      </trkpt>
      <trkpt lat="47.84855" lon="7.11569">
        <ele>898.7</ele>
        <time>2021-09-28T11:04:18.000Z</time>
      </trkpt>
      <trkpt lat="47.84858" lon="7.11555">
        <ele>894.6</ele>
        <time>2021-09-28T11:04:25.000Z</time>
      </trkpt>
      <trkpt lat="47.8486" lon="7.11539">
        <ele>890.6</ele>
        <time>2021-09-28T11:04:33.000Z</time>
      </trkpt>
      <trkpt lat="47.84859" lon="7.11525">
        <ele>887.8</ele>
        <time>2021-09-28T11:04:40.000Z</time>
      </trkpt>
      <trkpt lat="47.84854" lon="7.11512">
        <ele>886.3</ele>
        <time>2021-09-28T11:04:47.000Z</time>
      </trkpt>
      <trkpt lat="47.84845" lon="7.11507">
        <ele>887.5</ele>
        <time>2021-09-28T11:04:54.000Z</time>
      </trkpt>
      <trkpt lat="47.84835" lon="7.11507">
        <ele>890</ele>
        <time>2021-09-28T11:05:03.000Z</time>
      </trkpt>
      <trkpt lat="47.84826" lon="7.11505">
        <ele>888.9</ele>
        <time>2021-09-28T11:05:11.000Z</time>
      </trkpt>
      <trkpt lat="47.84818" lon="7.11515">
        <ele>889.9</ele>
        <time>2021-09-28T11:05:18.000Z</time>
      </trkpt>
      <trkpt lat="47.84811" lon="7.11525">
        <ele>891</ele>
        <time>2021-09-28T11:05:25.000Z</time>
      </trkpt>
      <trkpt lat="47.84804" lon="7.11535">
        <ele>892.4</ele>
        <time>2021-09-28T11:05:31.000Z</time>
      </trkpt>
      <trkpt lat="47.84798" lon="7.11545">
        <ele>894</ele>
        <time>2021-09-28T11:05:37.000Z</time>
      </trkpt>
      <trkpt lat="47.8479" lon="7.11552">
        <ele>894.6</ele>
        <time>2021-09-28T11:05:44.000Z</time>
      </trkpt>
      <trkpt lat="47.84781" lon="7.1156">
        <ele>895.1</ele>
        <time>2021-09-28T11:05:50.000Z</time>
      </trkpt>
      <trkpt lat="47.84772" lon="7.11568">
        <ele>895.9</ele>
        <time>2021-09-28T11:05:58.000Z</time>
      </trkpt>
      <trkpt lat="47.84764" lon="7.11577">
        <ele>897.3</ele>
        <time>2021-09-28T11:06:07.000Z</time>
      </trkpt>
      <trkpt lat="47.84754" lon="7.1158">
        <ele>896.7</ele>
        <time>2021-09-28T11:06:16.000Z</time>
      </trkpt>
      <trkpt lat="47.84745" lon="7.11584">
        <ele>895.7</ele>
        <time>2021-09-28T11:06:22.000Z</time>
      </trkpt>
      <trkpt lat="47.84735" lon="7.11588">
        <ele>893.8</ele>
        <time>2021-09-28T11:06:30.000Z</time>
      </trkpt>
      <trkpt lat="47.84724" lon="7.11585">
        <ele>890.4</ele>
        <time>2021-09-28T11:06:36.000Z</time>
      </trkpt>
      <trkpt lat="47.84714" lon="7.11587">
        <ele>888.1</ele>
        <time>2021-09-28T11:06:41.000Z</time>
      </trkpt>
      <trkpt lat="47.84708" lon="7.11598">
        <ele>888.5</ele>
        <time>2021-09-28T11:06:49.000Z</time>
      </trkpt>
      <trkpt lat="47.847" lon="7.11605">
        <ele>887.9</ele>
        <time>2021-09-28T11:06:56.000Z</time>
      </trkpt>
      <trkpt lat="47.84695" lon="7.11617">
        <ele>888.8</ele>
        <time>2021-09-28T11:07:04.000Z</time>
      </trkpt>
      <trkpt lat="47.84685" lon="7.11624">
        <ele>887.9</ele>
        <time>2021-09-28T11:07:12.000Z</time>
      </trkpt>
      <trkpt lat="47.84676" lon="7.11626">
        <ele>886.3</ele>
        <time>2021-09-28T11:07:19.000Z</time>
      </trkpt>
      <trkpt lat="47.84666" lon="7.11626">
        <ele>884.1</ele>
        <time>2021-09-28T11:07:25.000Z</time>
      </trkpt>
      <trkpt lat="47.84657" lon="7.11627">
        <ele>883.9</ele>
        <time>2021-09-28T11:07:33.000Z</time>
      </trkpt>
      <trkpt lat="47.84648" lon="7.11627">
        <ele>883.5</ele>
        <time>2021-09-28T11:07:40.000Z</time>
      </trkpt>
      <trkpt lat="47.84639" lon="7.11629">
        <ele>883.4</ele>
        <time>2021-09-28T11:07:47.000Z</time>
      </trkpt>
      <trkpt lat="47.84629" lon="7.11627">
        <ele>882.5</ele>
        <time>2021-09-28T11:07:55.000Z</time>
      </trkpt>
      <trkpt lat="47.8462" lon="7.11629">
        <ele>882.4</ele>
        <time>2021-09-28T11:08:03.000Z</time>
      </trkpt>
      <trkpt lat="47.84611" lon="7.11627">
        <ele>881.5</ele>
        <time>2021-09-28T11:08:09.000Z</time>
      </trkpt>
      <trkpt lat="47.84602" lon="7.11623">
        <ele>880.6</ele>
        <time>2021-09-28T11:08:19.000Z</time>
      </trkpt>
      <trkpt lat="47.84592" lon="7.1162">
        <ele>879.8</ele>
        <time>2021-09-28T11:08:26.000Z</time>
      </trkpt>
      <trkpt lat="47.84583" lon="7.11619">
        <ele>879.3</ele>
        <time>2021-09-28T11:08:33.000Z</time>
      </trkpt>
      <trkpt lat="47.84573" lon="7.11614">
        <ele>879.2</ele>
        <time>2021-09-28T11:08:40.000Z</time>
      </trkpt>
      <trkpt lat="47.84565" lon="7.11607">
        <ele>878.8</ele>
        <time>2021-09-28T11:08:46.000Z</time>
      </trkpt>
      <trkpt lat="47.84557" lon="7.116">
        <ele>878.4</ele>
        <time>2021-09-28T11:08:53.000Z</time>
      </trkpt>
      <trkpt lat="47.84547" lon="7.11595">
        <ele>878.5</ele>
        <time>2021-09-28T11:09:01.000Z</time>
      </trkpt>
      <trkpt lat="47.84536" lon="7.11587">
        <ele>878.2</ele>
        <time>2021-09-28T11:09:06.000Z</time>
      </trkpt>
      <trkpt lat="47.84527" lon="7.11583">
        <ele>878.1</ele>
        <time>2021-09-28T11:09:13.000Z</time>
      </trkpt>
      <trkpt lat="47.84518" lon="7.11584">
        <ele>879</ele>
        <time>2021-09-28T11:09:25.000Z</time>
      </trkpt>
      <trkpt lat="47.84507" lon="7.11581">
        <ele>878.8</ele>
        <time>2021-09-28T11:09:31.000Z</time>
      </trkpt>
      <trkpt lat="47.84498" lon="7.11578">
        <ele>878.9</ele>
        <time>2021-09-28T11:09:37.000Z</time>
      </trkpt>
      <trkpt lat="47.84489" lon="7.11574">
        <ele>880.1</ele>
        <time>2021-09-28T11:09:42.000Z</time>
      </trkpt>
      <trkpt lat="47.84481" lon="7.11567">
        <ele>880.1</ele>
        <time>2021-09-28T11:09:50.000Z</time>
      </trkpt>
      <trkpt lat="47.84473" lon="7.1156">
        <ele>880.4</ele>
        <time>2021-09-28T11:09:59.000Z</time>
      </trkpt>
      <trkpt lat="47.84465" lon="7.1155">
        <ele>880</ele>
        <time>2021-09-28T11:10:09.000Z</time>
      </trkpt>
      <trkpt lat="47.84457" lon="7.1154">
        <ele>880.1</ele>
        <time>2021-09-28T11:10:15.000Z</time>
      </trkpt>
      <trkpt lat="47.84451" lon="7.11531">
        <ele>879.7</ele>
        <time>2021-09-28T11:10:22.000Z</time>
      </trkpt>
      <trkpt lat="47.84445" lon="7.11521">
        <ele>879.6</ele>
        <time>2021-09-28T11:10:31.000Z</time>
      </trkpt>
      <trkpt lat="47.84438" lon="7.11509">
        <ele>879.4</ele>
        <time>2021-09-28T11:10:39.000Z</time>
      </trkpt>
      <trkpt lat="47.84431" lon="7.11498">
        <ele>879.6</ele>
        <time>2021-09-28T11:10:45.000Z</time>
      </trkpt>
      <trkpt lat="47.84427" lon="7.11487">
        <ele>878.7</ele>
        <time>2021-09-28T11:10:50.000Z</time>
      </trkpt>
      <trkpt lat="47.84421" lon="7.11474">
        <ele>878</ele>
        <time>2021-09-28T11:10:58.000Z</time>
      </trkpt>
      <trkpt lat="47.84416" lon="7.11461">
        <ele>877.4</ele>
        <time>2021-09-28T11:11:06.000Z</time>
      </trkpt>
      <trkpt lat="47.84415" lon="7.11447">
        <ele>874.8</ele>
        <time>2021-09-28T11:11:14.000Z</time>
      </trkpt>
      <trkpt lat="47.84409" lon="7.11436">
        <ele>874.7</ele>
        <time>2021-09-28T11:11:21.000Z</time>
      </trkpt>
      <trkpt lat="47.84407" lon="7.11422">
        <ele>873</ele>
        <time>2021-09-28T11:11:29.000Z</time>
      </trkpt>
      <trkpt lat="47.84403" lon="7.11408">
        <ele>872.1</ele>
        <time>2021-09-28T11:11:37.000Z</time>
      </trkpt>
      <trkpt lat="47.844" lon="7.11395">
        <ele>871.2</ele>
        <time>2021-09-28T11:11:43.000Z</time>
      </trkpt>
      <trkpt lat="47.84397" lon="7.11382">
        <ele>869.8</ele>
        <time>2021-09-28T11:11:50.000Z</time>
      </trkpt>
      <trkpt lat="47.84393" lon="7.11369">
        <ele>869</ele>
        <time>2021-09-28T11:11:58.000Z</time>
      </trkpt>
      <trkpt lat="47.84389" lon="7.11356">
        <ele>868.1</ele>
        <time>2021-09-28T11:12:05.000Z</time>
      </trkpt>
      <trkpt lat="47.84388" lon="7.11341">
        <ele>865.5</ele>
        <time>2021-09-28T11:12:13.000Z</time>
      </trkpt>
      <trkpt lat="47.84387" lon="7.11326">
        <ele>862.2</ele>
        <time>2021-09-28T11:12:19.000Z</time>
      </trkpt>
      <trkpt lat="47.84385" lon="7.11312">
        <ele>857.8</ele>
        <time>2021-09-28T11:12:26.000Z</time>
      </trkpt>
      <trkpt lat="47.84381" lon="7.11299">
        <ele>855.3</ele>
        <time>2021-09-28T11:12:35.000Z</time>
      </trkpt>
      <trkpt lat="47.84375" lon="7.11287">
        <ele>852.9</ele>
        <time>2021-09-28T11:12:43.000Z</time>
      </trkpt>
      <trkpt lat="47.84368" lon="7.11277">
        <ele>851.9</ele>
        <time>2021-09-28T11:12:48.000Z</time>
      </trkpt>
      <trkpt lat="47.84362" lon="7.11267">
        <ele>850.5</ele>
        <time>2021-09-28T11:12:54.000Z</time>
      </trkpt>
      <trkpt lat="47.84353" lon="7.11261">
        <ele>850.9</ele>
        <time>2021-09-28T11:13:01.000Z</time>
      </trkpt>
      <trkpt lat="47.84342" lon="7.11263">
        <ele>855.3</ele>
        <time>2021-09-28T11:13:10.000Z</time>
      </trkpt>
      <trkpt lat="47.8433" lon="7.11258">
        <ele>855.2</ele>
        <time>2021-09-28T11:13:15.000Z</time>
      </trkpt>
      <trkpt lat="47.84321" lon="7.11252">
        <ele>850.2</ele>
        <time>2021-09-28T11:13:20.000Z</time>
      </trkpt>
      <trkpt lat="47.84312" lon="7.1125">
        <ele>846.7</ele>
        <time>2021-09-28T11:13:26.000Z</time>
      </trkpt>
      <trkpt lat="47.84304" lon="7.11237">
        <ele>839.2</ele>
        <time>2021-09-28T11:13:39.000Z</time>
      </trkpt>
      <trkpt lat="47.84316" lon="7.11292">
        <ele>865.6</ele>
        <time>2021-09-28T11:13:44.000Z</time>
      </trkpt>
      <trkpt lat="47.84331" lon="7.11291">
        <ele>868.9</ele>
        <time>2021-09-28T11:13:54.000Z</time>
      </trkpt>
      <trkpt lat="47.84321" lon="7.1125">
        <ele>849.3</ele>
        <time>2021-09-28T11:13:59.000Z</time>
      </trkpt>
      <trkpt lat="47.84307" lon="7.11257">
        <ele>848.3</ele>
        <time>2021-09-28T11:14:04.000Z</time>
      </trkpt>
      <trkpt lat="47.84312" lon="7.11269">
        <ele>854.6</ele>
        <time>2021-09-28T11:14:12.000Z</time>
      </trkpt>
      <trkpt lat="47.843" lon="7.11285">
        <ele>858.5</ele>
        <time>2021-09-28T11:15:26.000Z</time>
      </trkpt>
      <trkpt lat="47.8429" lon="7.11278">
        <ele>852.7</ele>
        <time>2021-09-28T11:15:48.000Z</time>
      </trkpt>
      <trkpt lat="47.84282" lon="7.11283">
        <ele>852.6</ele>
        <time>2021-09-28T11:16:00.000Z</time>
      </trkpt>
      <trkpt lat="47.84271" lon="7.11287">
        <ele>852</ele>
        <time>2021-09-28T11:16:10.000Z</time>
      </trkpt>
      <trkpt lat="47.84265" lon="7.11297">
        <ele>854.6</ele>
        <time>2021-09-28T11:16:18.000Z</time>
      </trkpt>
      <trkpt lat="47.84255" lon="7.11303">
        <ele>854.9</ele>
        <time>2021-09-28T11:16:25.000Z</time>
      </trkpt>
      <trkpt lat="47.84247" lon="7.11309">
        <ele>855.7</ele>
        <time>2021-09-28T11:16:31.000Z</time>
      </trkpt>
      <trkpt lat="47.84239" lon="7.11318">
        <ele>856.8</ele>
        <time>2021-09-28T11:16:38.000Z</time>
      </trkpt>
      <trkpt lat="47.84229" lon="7.11324">
        <ele>855.9</ele>
        <time>2021-09-28T11:16:45.000Z</time>
      </trkpt>
      <trkpt lat="47.8422" lon="7.1133">
        <ele>855.1</ele>
        <time>2021-09-28T11:16:54.000Z</time>
      </trkpt>
      <trkpt lat="47.84213" lon="7.11339">
        <ele>855.8</ele>
        <time>2021-09-28T11:17:02.000Z</time>
      </trkpt>
      <trkpt lat="47.84207" lon="7.11352">
        <ele>857.2</ele>
        <time>2021-09-28T11:17:10.000Z</time>
      </trkpt>
      <trkpt lat="47.842" lon="7.1136">
        <ele>857.2</ele>
        <time>2021-09-28T11:17:18.000Z</time>
      </trkpt>
      <trkpt lat="47.84191" lon="7.1137">
        <ele>857</ele>
        <time>2021-09-28T11:17:26.000Z</time>
      </trkpt>
      <trkpt lat="47.84182" lon="7.11377">
        <ele>856.2</ele>
        <time>2021-09-28T11:17:34.000Z</time>
      </trkpt>
      <trkpt lat="47.84172" lon="7.11378">
        <ele>853.3</ele>
        <time>2021-09-28T11:17:39.000Z</time>
      </trkpt>
      <trkpt lat="47.84163" lon="7.11377">
        <ele>850.7</ele>
        <time>2021-09-28T11:17:44.000Z</time>
      </trkpt>
      <trkpt lat="47.84154" lon="7.11378">
        <ele>849.8</ele>
        <time>2021-09-28T11:17:51.000Z</time>
      </trkpt>
      <trkpt lat="47.84143" lon="7.11382">
        <ele>849.4</ele>
        <time>2021-09-28T11:17:57.000Z</time>
      </trkpt>
      <trkpt lat="47.84134" lon="7.11387">
        <ele>849.4</ele>
        <time>2021-09-28T11:18:04.000Z</time>
      </trkpt>
      <trkpt lat="47.84127" lon="7.11395">
        <ele>850.8</ele>
        <time>2021-09-28T11:18:11.000Z</time>
      </trkpt>
      <trkpt lat="47.84118" lon="7.114">
        <ele>851.2</ele>
        <time>2021-09-28T11:18:18.000Z</time>
      </trkpt>
      <trkpt lat="47.84109" lon="7.11402">
        <ele>850.1</ele>
        <time>2021-09-28T11:18:25.000Z</time>
      </trkpt>
      <trkpt lat="47.841" lon="7.11405">
        <ele>849.6</ele>
        <time>2021-09-28T11:18:32.000Z</time>
      </trkpt>
      <trkpt lat="47.84091" lon="7.11411">
        <ele>849.8</ele>
        <time>2021-09-28T11:18:40.000Z</time>
      </trkpt>
      <trkpt lat="47.84083" lon="7.11419">
        <ele>850.1</ele>
        <time>2021-09-28T11:18:50.000Z</time>
      </trkpt>
      <trkpt lat="47.84074" lon="7.1142">
        <ele>853</ele>
        <time>2021-09-28T11:19:13.000Z</time>
      </trkpt>
      <trkpt lat="47.84065" lon="7.11412">
        <ele>854.9</ele>
        <time>2021-09-28T11:19:20.000Z</time>
      </trkpt>
      <trkpt lat="47.84057" lon="7.11403">
        <ele>855</ele>
        <time>2021-09-28T11:19:27.000Z</time>
      </trkpt>
      <trkpt lat="47.84048" lon="7.11399">
        <ele>856.9</ele>
        <time>2021-09-28T11:19:34.000Z</time>
      </trkpt>
      <trkpt lat="47.8404" lon="7.11391">
        <ele>857.5</ele>
        <time>2021-09-28T11:19:43.000Z</time>
      </trkpt>
      <trkpt lat="47.84033" lon="7.11382">
        <ele>857.8</ele>
        <time>2021-09-28T11:19:51.000Z</time>
      </trkpt>
      <trkpt lat="47.84028" lon="7.1137">
        <ele>856.5</ele>
        <time>2021-09-28T11:19:59.000Z</time>
      </trkpt>
      <trkpt lat="47.84022" lon="7.11359">
        <ele>855.8</ele>
        <time>2021-09-28T11:20:06.000Z</time>
      </trkpt>
      <trkpt lat="47.8402" lon="7.11346">
        <ele>853.1</ele>
        <time>2021-09-28T11:20:13.000Z</time>
      </trkpt>
      <trkpt lat="47.84022" lon="7.11332">
        <ele>849.2</ele>
        <time>2021-09-28T11:20:21.000Z</time>
      </trkpt>
      <trkpt lat="47.8402" lon="7.11317">
        <ele>844.6</ele>
        <time>2021-09-28T11:20:29.000Z</time>
      </trkpt>
      <trkpt lat="47.84017" lon="7.11303">
        <ele>841.4</ele>
        <time>2021-09-28T11:20:36.000Z</time>
      </trkpt>
      <trkpt lat="47.8401" lon="7.11294">
        <ele>841.2</ele>
        <time>2021-09-28T11:20:44.000Z</time>
      </trkpt>
      <trkpt lat="47.84004" lon="7.11282">
        <ele>840.1</ele>
        <time>2021-09-28T11:20:53.000Z</time>
      </trkpt>
      <trkpt lat="47.83997" lon="7.11271">
        <ele>840.2</ele>
        <time>2021-09-28T11:21:00.000Z</time>
      </trkpt>
      <trkpt lat="47.8399" lon="7.1126">
        <ele>840.8</ele>
        <time>2021-09-28T11:21:07.000Z</time>
      </trkpt>
      <trkpt lat="47.83987" lon="7.11247">
        <ele>838.7</ele>
        <time>2021-09-28T11:21:15.000Z</time>
      </trkpt>
      <trkpt lat="47.83984" lon="7.11232">
        <ele>836.5</ele>
        <time>2021-09-28T11:21:22.000Z</time>
      </trkpt>
      <trkpt lat="47.83983" lon="7.11218">
        <ele>833.3</ele>
        <time>2021-09-28T11:21:29.000Z</time>
      </trkpt>
      <trkpt lat="47.83981" lon="7.11204">
        <ele>830.9</ele>
        <time>2021-09-28T11:21:34.000Z</time>
      </trkpt>
      <trkpt lat="47.83977" lon="7.11191">
        <ele>829.5</ele>
        <time>2021-09-28T11:21:40.000Z</time>
      </trkpt>
      <trkpt lat="47.83971" lon="7.1118">
        <ele>829.8</ele>
        <time>2021-09-28T11:21:47.000Z</time>
      </trkpt>
      <trkpt lat="47.83965" lon="7.1117">
        <ele>830.9</ele>
        <time>2021-09-28T11:21:53.000Z</time>
      </trkpt>
      <trkpt lat="47.83962" lon="7.11157">
        <ele>829.4</ele>
        <time>2021-09-28T11:22:00.000Z</time>
      </trkpt>
      <trkpt lat="47.83957" lon="7.11145">
        <ele>829.8</ele>
        <time>2021-09-28T11:22:08.000Z</time>
      </trkpt>
      <trkpt lat="47.83953" lon="7.11132">
        <ele>828.7</ele>
        <time>2021-09-28T11:22:15.000Z</time>
      </trkpt>
      <trkpt lat="47.83946" lon="7.11121">
        <ele>830.4</ele>
        <time>2021-09-28T11:22:21.000Z</time>
      </trkpt>
      <trkpt lat="47.83941" lon="7.11109">
        <ele>830.7</ele>
        <time>2021-09-28T11:22:29.000Z</time>
      </trkpt>
      <trkpt lat="47.83935" lon="7.11096">
        <ele>831.1</ele>
        <time>2021-09-28T11:22:37.000Z</time>
      </trkpt>
      <trkpt lat="47.83932" lon="7.11084">
        <ele>830.2</ele>
        <time>2021-09-28T11:22:44.000Z</time>
      </trkpt>
      <trkpt lat="47.83927" lon="7.11071">
        <ele>829</ele>
        <time>2021-09-28T11:22:51.000Z</time>
      </trkpt>
      <trkpt lat="47.83926" lon="7.11056">
        <ele>825.1</ele>
        <time>2021-09-28T11:22:59.000Z</time>
      </trkpt>
      <trkpt lat="47.83922" lon="7.11043">
        <ele>823.3</ele>
        <time>2021-09-28T11:23:06.000Z</time>
      </trkpt>
      <trkpt lat="47.83916" lon="7.1103">
        <ele>821.8</ele>
        <time>2021-09-28T11:23:15.000Z</time>
      </trkpt>
      <trkpt lat="47.83911" lon="7.11019">
        <ele>818.5</ele>
        <time>2021-09-28T11:23:21.000Z</time>
      </trkpt>
      <trkpt lat="47.83904" lon="7.11008">
        <ele>815.9</ele>
        <time>2021-09-28T11:23:28.000Z</time>
      </trkpt>
      <trkpt lat="47.83896" lon="7.11004">
        <ele>815.4</ele>
        <time>2021-09-28T11:23:36.000Z</time>
      </trkpt>
      <trkpt lat="47.83886" lon="7.11002">
        <ele>815.9</ele>
        <time>2021-09-28T11:23:43.000Z</time>
      </trkpt>
      <trkpt lat="47.83877" lon="7.10996">
        <ele>815</ele>
        <time>2021-09-28T11:23:53.000Z</time>
      </trkpt>
      <trkpt lat="47.83869" lon="7.10988">
        <ele>813</ele>
        <time>2021-09-28T11:24:01.000Z</time>
      </trkpt>
      <trkpt lat="47.83863" lon="7.10977">
        <ele>810.3</ele>
        <time>2021-09-28T11:24:07.000Z</time>
      </trkpt>
      <trkpt lat="47.83858" lon="7.10966">
        <ele>807.7</ele>
        <time>2021-09-28T11:24:14.000Z</time>
      </trkpt>
      <trkpt lat="47.83851" lon="7.10955">
        <ele>805.5</ele>
        <time>2021-09-28T11:24:23.000Z</time>
      </trkpt>
      <trkpt lat="47.83842" lon="7.10946">
        <ele>804.9</ele>
        <time>2021-09-28T11:24:32.000Z</time>
      </trkpt>
      <trkpt lat="47.83836" lon="7.10935">
        <ele>803.2</ele>
        <time>2021-09-28T11:24:38.000Z</time>
      </trkpt>
      <trkpt lat="47.83829" lon="7.10924">
        <ele>800</ele>
        <time>2021-09-28T11:24:45.000Z</time>
      </trkpt>
      <trkpt lat="47.83821" lon="7.10915">
        <ele>796.4</ele>
        <time>2021-09-28T11:24:52.000Z</time>
      </trkpt>
      <trkpt lat="47.83814" lon="7.10906">
        <ele>793</ele>
        <time>2021-09-28T11:24:57.000Z</time>
      </trkpt>
      <trkpt lat="47.83809" lon="7.10895">
        <ele>789.5</ele>
        <time>2021-09-28T11:25:04.000Z</time>
      </trkpt>
      <trkpt lat="47.83804" lon="7.10884">
        <ele>786.5</ele>
        <time>2021-09-28T11:25:13.000Z</time>
      </trkpt>
      <trkpt lat="47.83796" lon="7.10874">
        <ele>784.4</ele>
        <time>2021-09-28T11:25:22.000Z</time>
      </trkpt>
      <trkpt lat="47.8379" lon="7.10862">
        <ele>782.2</ele>
        <time>2021-09-28T11:25:30.000Z</time>
      </trkpt>
      <trkpt lat="47.83785" lon="7.10851">
        <ele>780.9</ele>
        <time>2021-09-28T11:25:38.000Z</time>
      </trkpt>
      <trkpt lat="47.83775" lon="7.10851">
        <ele>781.8</ele>
        <time>2021-09-28T11:25:45.000Z</time>
      </trkpt>
      <trkpt lat="47.83765" lon="7.10851">
        <ele>782.8</ele>
        <time>2021-09-28T11:25:52.000Z</time>
      </trkpt>
      <trkpt lat="47.83755" lon="7.1085">
        <ele>783.7</ele>
        <time>2021-09-28T11:26:30.000Z</time>
      </trkpt>
      <trkpt lat="47.8375" lon="7.10839">
        <ele>784</ele>
        <time>2021-09-28T11:26:35.000Z</time>
      </trkpt>
      <trkpt lat="47.83746" lon="7.10827">
        <ele>782.5</ele>
        <time>2021-09-28T11:26:43.000Z</time>
      </trkpt>
      <trkpt lat="47.83741" lon="7.10813">
        <ele>781.1</ele>
        <time>2021-09-28T11:26:50.000Z</time>
      </trkpt>
      <trkpt lat="47.83737" lon="7.10801">
        <ele>780.1</ele>
        <time>2021-09-28T11:26:57.000Z</time>
      </trkpt>
      <trkpt lat="47.83739" lon="7.10787">
        <ele>780.2</ele>
        <time>2021-09-28T11:27:03.000Z</time>
      </trkpt>
      <trkpt lat="47.83742" lon="7.10774">
        <ele>780.3</ele>
        <time>2021-09-28T11:27:12.000Z</time>
      </trkpt>
      <trkpt lat="47.83741" lon="7.1076">
        <ele>779.9</ele>
        <time>2021-09-28T11:27:20.000Z</time>
      </trkpt>
      <trkpt lat="47.83741" lon="7.10745">
        <ele>779.3</ele>
        <time>2021-09-28T11:27:28.000Z</time>
      </trkpt>
      <trkpt lat="47.83738" lon="7.10731">
        <ele>778.2</ele>
        <time>2021-09-28T11:27:35.000Z</time>
      </trkpt>
      <trkpt lat="47.83737" lon="7.10717">
        <ele>777.3</ele>
        <time>2021-09-28T11:27:42.000Z</time>
      </trkpt>
      <trkpt lat="47.83736" lon="7.10702">
        <ele>776.4</ele>
        <time>2021-09-28T11:27:49.000Z</time>
      </trkpt>
      <trkpt lat="47.83736" lon="7.10687">
        <ele>775.4</ele>
        <time>2021-09-28T11:27:58.000Z</time>
      </trkpt>
      <trkpt lat="47.83737" lon="7.10672">
        <ele>774.3</ele>
        <time>2021-09-28T11:28:06.000Z</time>
      </trkpt>
      <trkpt lat="47.83737" lon="7.10658">
        <ele>773.3</ele>
        <time>2021-09-28T11:28:13.000Z</time>
      </trkpt>
      <trkpt lat="47.83738" lon="7.10644">
        <ele>772</ele>
        <time>2021-09-28T11:28:21.000Z</time>
      </trkpt>
      <trkpt lat="47.83736" lon="7.1063">
        <ele>771.5</ele>
        <time>2021-09-28T11:28:29.000Z</time>
      </trkpt>
      <trkpt lat="47.83734" lon="7.10616">
        <ele>771</ele>
        <time>2021-09-28T11:28:37.000Z</time>
      </trkpt>
      <trkpt lat="47.83732" lon="7.10601">
        <ele>770.6</ele>
        <time>2021-09-28T11:28:44.000Z</time>
      </trkpt>
      <trkpt lat="47.83732" lon="7.10587">
        <ele>770</ele>
        <time>2021-09-28T11:28:51.000Z</time>
      </trkpt>
      <trkpt lat="47.83731" lon="7.10573">
        <ele>769</ele>
        <time>2021-09-28T11:28:59.000Z</time>
      </trkpt>
      <trkpt lat="47.83728" lon="7.10559">
        <ele>768.4</ele>
        <time>2021-09-28T11:29:41.000Z</time>
      </trkpt>
      <trkpt lat="47.83731" lon="7.10546">
        <ele>766.1</ele>
        <time>2021-09-28T11:29:48.000Z</time>
      </trkpt>
      <trkpt lat="47.8373" lon="7.10531">
        <ele>764.7</ele>
        <time>2021-09-28T11:29:57.000Z</time>
      </trkpt>
      <trkpt lat="47.83727" lon="7.10517">
        <ele>764.3</ele>
        <time>2021-09-28T11:30:05.000Z</time>
      </trkpt>
      <trkpt lat="47.83721" lon="7.10506">
        <ele>765.2</ele>
        <time>2021-09-28T11:30:12.000Z</time>
      </trkpt>
      <trkpt lat="47.83714" lon="7.10496">
        <ele>766.3</ele>
        <time>2021-09-28T11:30:19.000Z</time>
      </trkpt>
      <trkpt lat="47.83704" lon="7.10496">
        <ele>770</ele>
        <time>2021-09-28T11:30:27.000Z</time>
      </trkpt>
      <trkpt lat="47.83696" lon="7.10487">
        <ele>770.5</ele>
        <time>2021-09-28T11:30:37.000Z</time>
      </trkpt>
      <trkpt lat="47.83688" lon="7.10477">
        <ele>771</ele>
        <time>2021-09-28T11:30:44.000Z</time>
      </trkpt>
      <trkpt lat="47.83682" lon="7.10466">
        <ele>770.3</ele>
        <time>2021-09-28T11:30:52.000Z</time>
      </trkpt>
      <trkpt lat="47.83672" lon="7.10466">
        <ele>773.6</ele>
        <time>2021-09-28T11:31:00.000Z</time>
      </trkpt>
      <trkpt lat="47.83665" lon="7.10456">
        <ele>772.6</ele>
        <time>2021-09-28T11:31:07.000Z</time>
      </trkpt>
      <trkpt lat="47.83657" lon="7.10446">
        <ele>769.6</ele>
        <time>2021-09-28T11:31:14.000Z</time>
      </trkpt>
      <trkpt lat="47.83652" lon="7.10435">
        <ele>766.8</ele>
        <time>2021-09-28T11:31:20.000Z</time>
      </trkpt>
      <trkpt lat="47.83644" lon="7.10426">
        <ele>765</ele>
        <time>2021-09-28T11:31:28.000Z</time>
      </trkpt>
      <trkpt lat="47.83635" lon="7.10422">
        <ele>764.7</ele>
        <time>2021-09-28T11:31:35.000Z</time>
      </trkpt>
      <trkpt lat="47.83625" lon="7.10419">
        <ele>764.8</ele>
        <time>2021-09-28T11:31:43.000Z</time>
      </trkpt>
      <trkpt lat="47.83616" lon="7.10417">
        <ele>765.1</ele>
        <time>2021-09-28T11:31:52.000Z</time>
      </trkpt>
      <trkpt lat="47.83608" lon="7.10411">
        <ele>764.5</ele>
        <time>2021-09-28T11:32:00.000Z</time>
      </trkpt>
      <trkpt lat="47.83599" lon="7.10405">
        <ele>764.2</ele>
        <time>2021-09-28T11:32:07.000Z</time>
      </trkpt>
      <trkpt lat="47.83591" lon="7.10397">
        <ele>763.9</ele>
        <time>2021-09-28T11:32:13.000Z</time>
      </trkpt>
      <trkpt lat="47.83583" lon="7.10389">
        <ele>764</ele>
        <time>2021-09-28T11:32:21.000Z</time>
      </trkpt>
      <trkpt lat="47.83577" lon="7.10379">
        <ele>763.4</ele>
        <time>2021-09-28T11:32:30.000Z</time>
      </trkpt>
      <trkpt lat="47.83569" lon="7.10371">
        <ele>763.6</ele>
        <time>2021-09-28T11:32:37.000Z</time>
      </trkpt>
      <trkpt lat="47.83561" lon="7.10364">
        <ele>764.4</ele>
        <time>2021-09-28T11:32:47.000Z</time>
      </trkpt>
      <trkpt lat="47.83557" lon="7.1035">
        <ele>765</ele>
        <time>2021-09-28T11:32:58.000Z</time>
      </trkpt>
      <trkpt lat="47.83557" lon="7.10337">
        <ele>765.2</ele>
        <time>2021-09-28T11:33:05.000Z</time>
      </trkpt>
      <trkpt lat="47.83559" lon="7.10322">
        <ele>763.8</ele>
        <time>2021-09-28T11:33:13.000Z</time>
      </trkpt>
      <trkpt lat="47.83562" lon="7.10309">
        <ele>762</ele>
        <time>2021-09-28T11:33:19.000Z</time>
      </trkpt>
      <trkpt lat="47.83559" lon="7.10294">
        <ele>761.5</ele>
        <time>2021-09-28T11:33:27.000Z</time>
      </trkpt>
      <trkpt lat="47.83556" lon="7.1028">
        <ele>761.4</ele>
        <time>2021-09-28T11:33:37.000Z</time>
      </trkpt>
      <trkpt lat="47.83555" lon="7.10267">
        <ele>760.8</ele>
        <time>2021-09-28T11:33:45.000Z</time>
      </trkpt>
      <trkpt lat="47.83554" lon="7.10253">
        <ele>760.1</ele>
        <time>2021-09-28T11:33:53.000Z</time>
      </trkpt>
      <trkpt lat="47.83553" lon="7.10239">
        <ele>757.8</ele>
        <time>2021-09-28T11:34:03.000Z</time>
      </trkpt>
      <trkpt lat="47.83548" lon="7.10226">
        <ele>756.9</ele>
        <time>2021-09-28T11:34:11.000Z</time>
      </trkpt>
      <trkpt lat="47.83544" lon="7.10212">
        <ele>755.2</ele>
        <time>2021-09-28T11:34:19.000Z</time>
      </trkpt>
      <trkpt lat="47.83538" lon="7.102">
        <ele>754.2</ele>
        <time>2021-09-28T11:34:28.000Z</time>
      </trkpt>
      <trkpt lat="47.83532" lon="7.10191">
        <ele>753.9</ele>
        <time>2021-09-28T11:34:36.000Z</time>
      </trkpt>
      <trkpt lat="47.83524" lon="7.10182">
        <ele>753.8</ele>
        <time>2021-09-28T11:34:43.000Z</time>
      </trkpt>
      <trkpt lat="47.83517" lon="7.10174">
        <ele>753.9</ele>
        <time>2021-09-28T11:34:51.000Z</time>
      </trkpt>
      <trkpt lat="47.83511" lon="7.10163">
        <ele>752.5</ele>
        <time>2021-09-28T11:34:59.000Z</time>
      </trkpt>
      <trkpt lat="47.83504" lon="7.10154">
        <ele>751.6</ele>
        <time>2021-09-28T11:35:06.000Z</time>
      </trkpt>
      <trkpt lat="47.83501" lon="7.1014">
        <ele>748.4</ele>
        <time>2021-09-28T11:35:14.000Z</time>
      </trkpt>
      <trkpt lat="47.83497" lon="7.10126">
        <ele>744.5</ele>
        <time>2021-09-28T11:35:22.000Z</time>
      </trkpt>
      <trkpt lat="47.83489" lon="7.1012">
        <ele>742.2</ele>
        <time>2021-09-28T11:35:28.000Z</time>
      </trkpt>
      <trkpt lat="47.83487" lon="7.10105">
        <ele>737.5</ele>
        <time>2021-09-28T11:35:37.000Z</time>
      </trkpt>
      <trkpt lat="47.83482" lon="7.10091">
        <ele>733</ele>
        <time>2021-09-28T11:35:47.000Z</time>
      </trkpt>
      <trkpt lat="47.83476" lon="7.1008">
        <ele>728.7</ele>
        <time>2021-09-28T11:35:54.000Z</time>
      </trkpt>
      <trkpt lat="47.83471" lon="7.10067">
        <ele>724.2</ele>
        <time>2021-09-28T11:36:02.000Z</time>
      </trkpt>
      <trkpt lat="47.83464" lon="7.10058">
        <ele>720.5</ele>
        <time>2021-09-28T11:36:11.000Z</time>
      </trkpt>
      <trkpt lat="47.83455" lon="7.10059">
        <ele>719.2</ele>
        <time>2021-09-28T11:36:20.000Z</time>
      </trkpt>
      <trkpt lat="47.83446" lon="7.1006">
        <ele>718</ele>
        <time>2021-09-28T11:36:28.000Z</time>
      </trkpt>
      <trkpt lat="47.83437" lon="7.10056">
        <ele>715</ele>
        <time>2021-09-28T11:36:34.000Z</time>
      </trkpt>
      <trkpt lat="47.83427" lon="7.10058">
        <ele>714.3</ele>
        <time>2021-09-28T11:36:41.000Z</time>
      </trkpt>
      <trkpt lat="47.83419" lon="7.10066">
        <ele>716</ele>
        <time>2021-09-28T11:36:49.000Z</time>
      </trkpt>
      <trkpt lat="47.8341" lon="7.10073">
        <ele>715.8</ele>
        <time>2021-09-28T11:36:58.000Z</time>
      </trkpt>
      <trkpt lat="47.83402" lon="7.10081">
        <ele>715.5</ele>
        <time>2021-09-28T11:37:07.000Z</time>
      </trkpt>
      <trkpt lat="47.83393" lon="7.10085">
        <ele>714</ele>
        <time>2021-09-28T11:37:17.000Z</time>
      </trkpt>
      <trkpt lat="47.83385" lon="7.10092">
        <ele>713.4</ele>
        <time>2021-09-28T11:37:25.000Z</time>
      </trkpt>
      <trkpt lat="47.83378" lon="7.10103">
        <ele>714.9</ele>
        <time>2021-09-28T11:37:33.000Z</time>
      </trkpt>
      <trkpt lat="47.83371" lon="7.10112">
        <ele>715.7</ele>
        <time>2021-09-28T11:37:40.000Z</time>
      </trkpt>
      <trkpt lat="47.83362" lon="7.10116">
        <ele>714</ele>
        <time>2021-09-28T11:37:47.000Z</time>
      </trkpt>
      <trkpt lat="47.83354" lon="7.10123">
        <ele>713.6</ele>
        <time>2021-09-28T11:37:54.000Z</time>
      </trkpt>
      <trkpt lat="47.83345" lon="7.10128">
        <ele>712.3</ele>
        <time>2021-09-28T11:38:01.000Z</time>
      </trkpt>
      <trkpt lat="47.83336" lon="7.10134">
        <ele>710.6</ele>
        <time>2021-09-28T11:38:08.000Z</time>
      </trkpt>
      <trkpt lat="47.83328" lon="7.10142">
        <ele>711.9</ele>
        <time>2021-09-28T11:38:18.000Z</time>
      </trkpt>
      <trkpt lat="47.83318" lon="7.10146">
        <ele>711.8</ele>
        <time>2021-09-28T11:38:26.000Z</time>
      </trkpt>
      <trkpt lat="47.83309" lon="7.10147">
        <ele>710.4</ele>
        <time>2021-09-28T11:38:36.000Z</time>
      </trkpt>
      <trkpt lat="47.83299" lon="7.10149">
        <ele>709.3</ele>
        <time>2021-09-28T11:38:43.000Z</time>
      </trkpt>
      <trkpt lat="47.83289" lon="7.10151">
        <ele>708.7</ele>
        <time>2021-09-28T11:38:50.000Z</time>
      </trkpt>
      <trkpt lat="47.8328" lon="7.10152">
        <ele>707.2</ele>
        <time>2021-09-28T11:38:58.000Z</time>
      </trkpt>
      <trkpt lat="47.83271" lon="7.10148">
        <ele>704.3</ele>
        <time>2021-09-28T11:39:06.000Z</time>
      </trkpt>
      <trkpt lat="47.83261" lon="7.10145">
        <ele>701.3</ele>
        <time>2021-09-28T11:39:13.000Z</time>
      </trkpt>
      <trkpt lat="47.83251" lon="7.10149">
        <ele>701.1</ele>
        <time>2021-09-28T11:39:24.000Z</time>
      </trkpt>
      <trkpt lat="47.83242" lon="7.10153">
        <ele>702.8</ele>
        <time>2021-09-28T11:39:31.000Z</time>
      </trkpt>
      <trkpt lat="47.83233" lon="7.10154">
        <ele>703.5</ele>
        <time>2021-09-28T11:39:38.000Z</time>
      </trkpt>
      <trkpt lat="47.83224" lon="7.10151">
        <ele>702.7</ele>
        <time>2021-09-28T11:39:46.000Z</time>
      </trkpt>
      <trkpt lat="47.83216" lon="7.10143">
        <ele>700.3</ele>
        <time>2021-09-28T11:39:57.000Z</time>
      </trkpt>
      <trkpt lat="47.83209" lon="7.10134">
        <ele>697.6</ele>
        <time>2021-09-28T11:40:07.000Z</time>
      </trkpt>
      <trkpt lat="47.83202" lon="7.10123">
        <ele>694.5</ele>
        <time>2021-09-28T11:40:20.000Z</time>
      </trkpt>
      <trkpt lat="47.83194" lon="7.10113">
        <ele>692.1</ele>
        <time>2021-09-28T11:40:27.000Z</time>
      </trkpt>
      <trkpt lat="47.83186" lon="7.10105">
        <ele>690.7</ele>
        <time>2021-09-28T11:40:35.000Z</time>
      </trkpt>
      <trkpt lat="47.83179" lon="7.10093">
        <ele>688</ele>
        <time>2021-09-28T11:40:43.000Z</time>
      </trkpt>
      <trkpt lat="47.83174" lon="7.10082">
        <ele>685.4</ele>
        <time>2021-09-28T11:40:48.000Z</time>
      </trkpt>
      <trkpt lat="47.83167" lon="7.10071">
        <ele>682.9</ele>
        <time>2021-09-28T11:40:56.000Z</time>
      </trkpt>
      <trkpt lat="47.83163" lon="7.10057">
        <ele>677.9</ele>
        <time>2021-09-28T11:41:03.000Z</time>
      </trkpt>
      <trkpt lat="47.83159" lon="7.10044">
        <ele>673.3</ele>
        <time>2021-09-28T11:41:10.000Z</time>
      </trkpt>
      <trkpt lat="47.8315" lon="7.1004">
        <ele>671.4</ele>
        <time>2021-09-28T11:41:19.000Z</time>
      </trkpt>
      <trkpt lat="47.83139" lon="7.10039">
        <ele>670.2</ele>
        <time>2021-09-28T11:41:27.000Z</time>
      </trkpt>
      <trkpt lat="47.8313" lon="7.10035">
        <ele>668.5</ele>
        <time>2021-09-28T11:41:35.000Z</time>
      </trkpt>
      <trkpt lat="47.83122" lon="7.1003">
        <ele>666.1</ele>
        <time>2021-09-28T11:41:44.000Z</time>
      </trkpt>
      <trkpt lat="47.83112" lon="7.10032">
        <ele>666.2</ele>
        <time>2021-09-28T11:41:53.000Z</time>
      </trkpt>
      <trkpt lat="47.83102" lon="7.10039">
        <ele>667.8</ele>
        <time>2021-09-28T11:42:00.000Z</time>
      </trkpt>
      <trkpt lat="47.83093" lon="7.10046">
        <ele>669.7</ele>
        <time>2021-09-28T11:42:07.000Z</time>
      </trkpt>
      <trkpt lat="47.83085" lon="7.10053">
        <ele>671.4</ele>
        <time>2021-09-28T11:42:14.000Z</time>
      </trkpt>
      <trkpt lat="47.83078" lon="7.10062">
        <ele>672.3</ele>
        <time>2021-09-28T11:42:24.000Z</time>
      </trkpt>
      <trkpt lat="47.83071" lon="7.10071">
        <ele>673.5</ele>
        <time>2021-09-28T11:42:34.000Z</time>
      </trkpt>
      <trkpt lat="47.83062" lon="7.10081">
        <ele>674.3</ele>
        <time>2021-09-28T11:42:42.000Z</time>
      </trkpt>
      <trkpt lat="47.83054" lon="7.10088">
        <ele>673.5</ele>
        <time>2021-09-28T11:42:49.000Z</time>
      </trkpt>
      <trkpt lat="47.83045" lon="7.10094">
        <ele>672</ele>
        <time>2021-09-28T11:42:58.000Z</time>
      </trkpt>
      <trkpt lat="47.83035" lon="7.10094">
        <ele>669</ele>
        <time>2021-09-28T11:43:05.000Z</time>
      </trkpt>
      <trkpt lat="47.83026" lon="7.10096">
        <ele>666.6</ele>
        <time>2021-09-28T11:43:11.000Z</time>
      </trkpt>
      <trkpt lat="47.83015" lon="7.10098">
        <ele>664.1</ele>
        <time>2021-09-28T11:43:19.000Z</time>
      </trkpt>
      <trkpt lat="47.83005" lon="7.101">
        <ele>661.5</ele>
        <time>2021-09-28T11:43:28.000Z</time>
      </trkpt>
      <trkpt lat="47.82996" lon="7.10106">
        <ele>660.3</ele>
        <time>2021-09-28T11:43:36.000Z</time>
      </trkpt>
      <trkpt lat="47.82988" lon="7.10113">
        <ele>660.3</ele>
        <time>2021-09-28T11:43:43.000Z</time>
      </trkpt>
      <trkpt lat="47.82979" lon="7.10118">
        <ele>659.6</ele>
        <time>2021-09-28T11:43:51.000Z</time>
      </trkpt>
      <trkpt lat="47.82971" lon="7.10124">
        <ele>659</ele>
        <time>2021-09-28T11:43:57.000Z</time>
      </trkpt>
      <trkpt lat="47.82962" lon="7.10129">
        <ele>658.2</ele>
        <time>2021-09-28T11:44:03.000Z</time>
      </trkpt>
      <trkpt lat="47.82953" lon="7.10132">
        <ele>657</ele>
        <time>2021-09-28T11:44:13.000Z</time>
      </trkpt>
      <trkpt lat="47.82944" lon="7.10138">
        <ele>655.9</ele>
        <time>2021-09-28T11:44:24.000Z</time>
      </trkpt>
      <trkpt lat="47.82937" lon="7.10148">
        <ele>655</ele>
        <time>2021-09-28T11:44:36.000Z</time>
      </trkpt>
      <trkpt lat="47.82929" lon="7.10154">
        <ele>653.5</ele>
        <time>2021-09-28T11:44:46.000Z</time>
      </trkpt>
      <trkpt lat="47.8292" lon="7.1016">
        <ele>651.8</ele>
        <time>2021-09-28T11:44:55.000Z</time>
      </trkpt>
      <trkpt lat="47.82911" lon="7.10162">
        <ele>651.2</ele>
        <time>2021-09-28T11:45:04.000Z</time>
      </trkpt>
      <trkpt lat="47.82902" lon="7.10159">
        <ele>651.4</ele>
        <time>2021-09-28T11:45:09.000Z</time>
      </trkpt>
      <trkpt lat="47.82892" lon="7.10156">
        <ele>651.5</ele>
        <time>2021-09-28T11:45:17.000Z</time>
      </trkpt>
      <trkpt lat="47.82882" lon="7.10159">
        <ele>651.6</ele>
        <time>2021-09-28T11:45:27.000Z</time>
      </trkpt>
      <trkpt lat="47.82873" lon="7.10162">
        <ele>651.6</ele>
        <time>2021-09-28T11:45:33.000Z</time>
      </trkpt>
      <trkpt lat="47.82864" lon="7.10167">
        <ele>651.5</ele>
        <time>2021-09-28T11:45:42.000Z</time>
      </trkpt>
      <trkpt lat="47.82857" lon="7.10176">
        <ele>649.4</ele>
        <time>2021-09-28T11:45:48.000Z</time>
      </trkpt>
      <trkpt lat="47.82848" lon="7.10183">
        <ele>647.3</ele>
        <time>2021-09-28T11:45:55.000Z</time>
      </trkpt>
      <trkpt lat="47.82841" lon="7.10191">
        <ele>645.2</ele>
        <time>2021-09-28T11:46:03.000Z</time>
      </trkpt>
      <trkpt lat="47.82832" lon="7.10198">
        <ele>642.7</ele>
        <time>2021-09-28T11:46:12.000Z</time>
      </trkpt>
      <trkpt lat="47.82824" lon="7.10205">
        <ele>638.8</ele>
        <time>2021-09-28T11:46:19.000Z</time>
      </trkpt>
      <trkpt lat="47.82816" lon="7.10212">
        <ele>635.5</ele>
        <time>2021-09-28T11:46:27.000Z</time>
      </trkpt>
      <trkpt lat="47.82809" lon="7.10224">
        <ele>631.4</ele>
        <time>2021-09-28T11:46:37.000Z</time>
      </trkpt>
      <trkpt lat="47.82801" lon="7.10231">
        <ele>628.6</ele>
        <time>2021-09-28T11:46:45.000Z</time>
      </trkpt>
      <trkpt lat="47.82792" lon="7.10237">
        <ele>626</ele>
        <time>2021-09-28T11:46:54.000Z</time>
      </trkpt>
      <trkpt lat="47.82783" lon="7.10242">
        <ele>623.9</ele>
        <time>2021-09-28T11:47:05.000Z</time>
      </trkpt>
      <trkpt lat="47.82774" lon="7.1025">
        <ele>621.6</ele>
        <time>2021-09-28T11:47:14.000Z</time>
      </trkpt>
      <trkpt lat="47.82766" lon="7.1026">
        <ele>618.6</ele>
        <time>2021-09-28T11:47:23.000Z</time>
      </trkpt>
      <trkpt lat="47.82757" lon="7.10268">
        <ele>616.3</ele>
        <time>2021-09-28T11:47:32.000Z</time>
      </trkpt>
      <trkpt lat="47.82749" lon="7.10274">
        <ele>614.5</ele>
        <time>2021-09-28T11:47:38.000Z</time>
      </trkpt>
      <trkpt lat="47.8274" lon="7.1028">
        <ele>611.9</ele>
        <time>2021-09-28T11:47:45.000Z</time>
      </trkpt>
      <trkpt lat="47.82732" lon="7.10287">
        <ele>609.5</ele>
        <time>2021-09-28T11:47:56.000Z</time>
      </trkpt>
      <trkpt lat="47.82722" lon="7.10292">
        <ele>607.5</ele>
        <time>2021-09-28T11:48:03.000Z</time>
      </trkpt>
      <trkpt lat="47.82712" lon="7.10296">
        <ele>605.7</ele>
        <time>2021-09-28T11:48:10.000Z</time>
      </trkpt>
      <trkpt lat="47.82704" lon="7.10302">
        <ele>604.2</ele>
        <time>2021-09-28T11:48:19.000Z</time>
      </trkpt>
      <trkpt lat="47.82696" lon="7.10311">
        <ele>603</ele>
        <time>2021-09-28T11:48:25.000Z</time>
      </trkpt>
      <trkpt lat="47.82687" lon="7.10316">
        <ele>602</ele>
        <time>2021-09-28T11:48:34.000Z</time>
      </trkpt>
      <trkpt lat="47.82678" lon="7.10323">
        <ele>601.3</ele>
        <time>2021-09-28T11:48:44.000Z</time>
      </trkpt>
      <trkpt lat="47.82669" lon="7.10327">
        <ele>600.9</ele>
        <time>2021-09-28T11:48:55.000Z</time>
      </trkpt>
      <trkpt lat="47.82662" lon="7.10338">
        <ele>598.9</ele>
        <time>2021-09-28T11:49:06.000Z</time>
      </trkpt>
      <trkpt lat="47.82658" lon="7.10351">
        <ele>595.2</ele>
        <time>2021-09-28T11:49:14.000Z</time>
      </trkpt>
      <trkpt lat="47.82653" lon="7.10362">
        <ele>591.9</ele>
        <time>2021-09-28T11:49:20.000Z</time>
      </trkpt>
      <trkpt lat="47.82644" lon="7.10353">
        <ele>591.8</ele>
        <time>2021-09-28T11:49:40.000Z</time>
      </trkpt>
      <trkpt lat="47.82643" lon="7.10339">
        <ele>594</ele>
        <time>2021-09-28T11:49:51.000Z</time>
      </trkpt>
      <trkpt lat="47.82634" lon="7.10346">
        <ele>590.8</ele>
        <time>2021-09-28T11:49:59.000Z</time>
      </trkpt>
      <trkpt lat="47.82626" lon="7.10354">
        <ele>588</ele>
        <time>2021-09-28T11:50:06.000Z</time>
      </trkpt>
      <trkpt lat="47.82619" lon="7.10364">
        <ele>585.3</ele>
        <time>2021-09-28T11:50:13.000Z</time>
      </trkpt>
      <trkpt lat="47.82611" lon="7.10358">
        <ele>584.4</ele>
        <time>2021-09-28T11:50:29.000Z</time>
      </trkpt>
      <trkpt lat="47.82602" lon="7.10364">
        <ele>582.3</ele>
        <time>2021-09-28T11:50:36.000Z</time>
      </trkpt>
      <trkpt lat="47.82594" lon="7.10372">
        <ele>580.4</ele>
        <time>2021-09-28T11:50:42.000Z</time>
      </trkpt>
      <trkpt lat="47.82586" lon="7.10378">
        <ele>578.8</ele>
        <time>2021-09-28T11:50:48.000Z</time>
      </trkpt>
      <trkpt lat="47.8258" lon="7.10389">
        <ele>578.2</ele>
        <time>2021-09-28T11:50:59.000Z</time>
      </trkpt>
      <trkpt lat="47.82571" lon="7.10389">
        <ele>578.9</ele>
        <time>2021-09-28T11:51:08.000Z</time>
      </trkpt>
      <trkpt lat="47.82562" lon="7.10386">
        <ele>579.7</ele>
        <time>2021-09-28T11:51:17.000Z</time>
      </trkpt>
      <trkpt lat="47.82552" lon="7.10381">
        <ele>580.3</ele>
        <time>2021-09-28T11:51:23.000Z</time>
      </trkpt>
      <trkpt lat="47.82542" lon="7.10375">
        <ele>580.7</ele>
        <time>2021-09-28T11:51:28.000Z</time>
      </trkpt>
      <trkpt lat="47.82533" lon="7.10373">
        <ele>581.1</ele>
        <time>2021-09-28T11:51:36.000Z</time>
      </trkpt>
      <trkpt lat="47.82523" lon="7.10372">
        <ele>581.6</ele>
        <time>2021-09-28T11:51:43.000Z</time>
      </trkpt>
      <trkpt lat="47.82515" lon="7.10367">
        <ele>581.6</ele>
        <time>2021-09-28T11:51:50.000Z</time>
      </trkpt>
      <trkpt lat="47.82505" lon="7.10362">
        <ele>581.6</ele>
        <time>2021-09-28T11:51:59.000Z</time>
      </trkpt>
      <trkpt lat="47.82495" lon="7.1036">
        <ele>582.6</ele>
        <time>2021-09-28T11:52:09.000Z</time>
      </trkpt>
      <trkpt lat="47.82486" lon="7.10355">
        <ele>583.9</ele>
        <time>2021-09-28T11:52:18.000Z</time>
      </trkpt>
      <trkpt lat="47.82476" lon="7.10353">
        <ele>585.4</ele>
        <time>2021-09-28T11:52:26.000Z</time>
      </trkpt>
      <trkpt lat="47.82467" lon="7.1035">
        <ele>586.9</ele>
        <time>2021-09-28T11:52:32.000Z</time>
      </trkpt>
      <trkpt lat="47.82458" lon="7.10342">
        <ele>587.7</ele>
        <time>2021-09-28T11:52:39.000Z</time>
      </trkpt>
      <trkpt lat="47.82449" lon="7.10338">
        <ele>588.8</ele>
        <time>2021-09-28T11:52:48.000Z</time>
      </trkpt>
      <trkpt lat="47.82439" lon="7.10338">
        <ele>590.6</ele>
        <time>2021-09-28T11:52:55.000Z</time>
      </trkpt>
      <trkpt lat="47.8243" lon="7.10335">
        <ele>591.9</ele>
        <time>2021-09-28T11:53:02.000Z</time>
      </trkpt>
      <trkpt lat="47.82421" lon="7.1033">
        <ele>592.4</ele>
        <time>2021-09-28T11:53:09.000Z</time>
      </trkpt>
      <trkpt lat="47.82414" lon="7.10321">
        <ele>590.5</ele>
        <time>2021-09-28T11:53:19.000Z</time>
      </trkpt>
      <trkpt lat="47.82405" lon="7.10328">
        <ele>592.9</ele>
        <time>2021-09-28T11:53:35.000Z</time>
      </trkpt>
      <trkpt lat="47.82395" lon="7.10325">
        <ele>592.6</ele>
        <time>2021-09-28T11:53:40.000Z</time>
      </trkpt>
      <trkpt lat="47.82383" lon="7.10322">
        <ele>592.6</ele>
        <time>2021-09-28T11:53:45.000Z</time>
      </trkpt>
      <trkpt lat="47.82372" lon="7.10322">
        <ele>593</ele>
        <time>2021-09-28T11:53:50.000Z</time>
      </trkpt>
      <trkpt lat="47.82363" lon="7.1032">
        <ele>593</ele>
        <time>2021-09-28T11:53:58.000Z</time>
      </trkpt>
      <trkpt lat="47.82353" lon="7.10324">
        <ele>594.5</ele>
        <time>2021-09-28T11:54:07.000Z</time>
      </trkpt>
      <trkpt lat="47.82344" lon="7.10326">
        <ele>595.5</ele>
        <time>2021-09-28T11:54:14.000Z</time>
      </trkpt>
      <trkpt lat="47.82333" lon="7.10326">
        <ele>596.2</ele>
        <time>2021-09-28T11:54:25.000Z</time>
      </trkpt>
      <trkpt lat="47.82324" lon="7.1033">
        <ele>597.4</ele>
        <time>2021-09-28T11:54:32.000Z</time>
      </trkpt>
      <trkpt lat="47.82315" lon="7.10331">
        <ele>597.8</ele>
        <time>2021-09-28T11:54:38.000Z</time>
      </trkpt>
      <trkpt lat="47.82304" lon="7.10332">
        <ele>598.1</ele>
        <time>2021-09-28T11:54:45.000Z</time>
      </trkpt>
      <trkpt lat="47.82296" lon="7.10336">
        <ele>598.5</ele>
        <time>2021-09-28T11:54:53.000Z</time>
      </trkpt>
      <trkpt lat="47.82286" lon="7.10336">
        <ele>598.5</ele>
        <time>2021-09-28T11:55:04.000Z</time>
      </trkpt>
      <trkpt lat="47.82276" lon="7.10337">
        <ele>598.5</ele>
        <time>2021-09-28T11:55:13.000Z</time>
      </trkpt>
      <trkpt lat="47.8227" lon="7.10327">
        <ele>598.6</ele>
        <time>2021-09-28T11:55:21.000Z</time>
      </trkpt>
      <trkpt lat="47.82271" lon="7.10312">
        <ele>598</ele>
        <time>2021-09-28T11:55:29.000Z</time>
      </trkpt>
      <trkpt lat="47.82271" lon="7.10298">
        <ele>597.5</ele>
        <time>2021-09-28T11:55:36.000Z</time>
      </trkpt>
      <trkpt lat="47.82273" lon="7.10283">
        <ele>596.5</ele>
        <time>2021-09-28T11:55:45.000Z</time>
      </trkpt>
      <trkpt lat="47.82276" lon="7.10269">
        <ele>595.2</ele>
        <time>2021-09-28T11:55:54.000Z</time>
      </trkpt>
      <trkpt lat="47.82278" lon="7.10255">
        <ele>593.8</ele>
        <time>2021-09-28T11:56:02.000Z</time>
      </trkpt>
      <trkpt lat="47.82281" lon="7.10241">
        <ele>592.5</ele>
        <time>2021-09-28T11:56:10.000Z</time>
      </trkpt>
      <trkpt lat="47.82283" lon="7.10227">
        <ele>591.7</ele>
        <time>2021-09-28T11:56:18.000Z</time>
      </trkpt>
      <trkpt lat="47.82284" lon="7.10212">
        <ele>591</ele>
        <time>2021-09-28T11:56:26.000Z</time>
      </trkpt>
      <trkpt lat="47.82285" lon="7.10198">
        <ele>590.4</ele>
        <time>2021-09-28T11:56:33.000Z</time>
      </trkpt>
      <trkpt lat="47.82285" lon="7.10183">
        <ele>589.9</ele>
        <time>2021-09-28T11:56:42.000Z</time>
      </trkpt>
      <trkpt lat="47.82286" lon="7.10168">
        <ele>589.3</ele>
        <time>2021-09-28T11:56:48.000Z</time>
      </trkpt>
      <trkpt lat="47.82284" lon="7.10155">
        <ele>588.8</ele>
        <time>2021-09-28T11:56:55.000Z</time>
      </trkpt>
      <trkpt lat="47.8228" lon="7.10143">
        <ele>589.1</ele>
        <time>2021-09-28T11:57:03.000Z</time>
      </trkpt>
      <trkpt lat="47.82277" lon="7.10129">
        <ele>589</ele>
        <time>2021-09-28T11:57:11.000Z</time>
      </trkpt>
      <trkpt lat="47.82275" lon="7.10115">
        <ele>588.3</ele>
        <time>2021-09-28T11:57:19.000Z</time>
      </trkpt>
      <trkpt lat="47.82271" lon="7.10103">
        <ele>588.4</ele>
        <time>2021-09-28T11:57:27.000Z</time>
      </trkpt>
      <trkpt lat="47.82271" lon="7.10088">
        <ele>587.2</ele>
        <time>2021-09-28T11:57:33.000Z</time>
      </trkpt>
      <trkpt lat="47.82272" lon="7.10075">
        <ele>584.4</ele>
        <time>2021-09-28T11:57:41.000Z</time>
      </trkpt>
      <trkpt lat="47.82275" lon="7.10061">
        <ele>580.2</ele>
        <time>2021-09-28T11:57:47.000Z</time>
      </trkpt>
      <trkpt lat="47.82279" lon="7.10048">
        <ele>576.2</ele>
        <time>2021-09-28T11:57:55.000Z</time>
      </trkpt>
      <trkpt lat="47.82284" lon="7.10036">
        <ele>572</ele>
        <time>2021-09-28T11:58:04.000Z</time>
      </trkpt>
      <trkpt lat="47.82289" lon="7.10024">
        <ele>567.8</ele>
        <time>2021-09-28T11:58:12.000Z</time>
      </trkpt>
      <trkpt lat="47.82296" lon="7.10011">
        <ele>563.1</ele>
        <time>2021-09-28T11:58:17.000Z</time>
      </trkpt>
      <trkpt lat="47.82297" lon="7.09997">
        <ele>560.1</ele>
        <time>2021-09-28T11:58:23.000Z</time>
      </trkpt>
      <trkpt lat="47.82294" lon="7.09983">
        <ele>557.7</ele>
        <time>2021-09-28T11:58:30.000Z</time>
      </trkpt>
      <trkpt lat="47.82287" lon="7.09972">
        <ele>557</ele>
        <time>2021-09-28T11:58:37.000Z</time>
      </trkpt>
      <trkpt lat="47.82279" lon="7.09964">
        <ele>557.2</ele>
        <time>2021-09-28T11:58:44.000Z</time>
      </trkpt>
      <trkpt lat="47.8227" lon="7.0996">
        <ele>558.8</ele>
        <time>2021-09-28T11:58:52.000Z</time>
      </trkpt>
      <trkpt lat="47.82262" lon="7.09954">
        <ele>559.5</ele>
        <time>2021-09-28T11:58:59.000Z</time>
      </trkpt>
      <trkpt lat="47.82253" lon="7.09948">
        <ele>560.4</ele>
        <time>2021-09-28T11:59:07.000Z</time>
      </trkpt>
      <trkpt lat="47.82244" lon="7.09941">
        <ele>558.9</ele>
        <time>2021-09-28T11:59:14.000Z</time>
      </trkpt>
      <trkpt lat="47.82236" lon="7.09933">
        <ele>556.1</ele>
        <time>2021-09-28T11:59:20.000Z</time>
      </trkpt>
      <trkpt lat="47.82229" lon="7.09923">
        <ele>552.7</ele>
        <time>2021-09-28T11:59:28.000Z</time>
      </trkpt>
      <trkpt lat="47.8222" lon="7.09918">
        <ele>550</ele>
        <time>2021-09-28T11:59:35.000Z</time>
      </trkpt>
      <trkpt lat="47.82211" lon="7.09914">
        <ele>547.9</ele>
        <time>2021-09-28T11:59:43.000Z</time>
      </trkpt>
      <trkpt lat="47.822" lon="7.09916">
        <ele>547.3</ele>
        <time>2021-09-28T11:59:51.000Z</time>
      </trkpt>
      <trkpt lat="47.8219" lon="7.09921">
        <ele>548.1</ele>
        <time>2021-09-28T12:00:00.000Z</time>
      </trkpt>
      <trkpt lat="47.82181" lon="7.09927">
        <ele>549.2</ele>
        <time>2021-09-28T12:00:07.000Z</time>
      </trkpt>
      <trkpt lat="47.82172" lon="7.09933">
        <ele>550.6</ele>
        <time>2021-09-28T12:00:15.000Z</time>
      </trkpt>
      <trkpt lat="47.82164" lon="7.0994">
        <ele>552.7</ele>
        <time>2021-09-28T12:00:21.000Z</time>
      </trkpt>
      <trkpt lat="47.82156" lon="7.09948">
        <ele>555.5</ele>
        <time>2021-09-28T12:00:29.000Z</time>
      </trkpt>
      <trkpt lat="47.82147" lon="7.09951">
        <ele>556.7</ele>
        <time>2021-09-28T12:00:38.000Z</time>
      </trkpt>
      <trkpt lat="47.82138" lon="7.09959">
        <ele>559.1</ele>
        <time>2021-09-28T12:00:45.000Z</time>
      </trkpt>
      <trkpt lat="47.82129" lon="7.09963">
        <ele>560.1</ele>
        <time>2021-09-28T12:00:51.000Z</time>
      </trkpt>
      <trkpt lat="47.8212" lon="7.09961">
        <ele>559.1</ele>
        <time>2021-09-28T12:00:58.000Z</time>
      </trkpt>
      <trkpt lat="47.82112" lon="7.09955">
        <ele>557</ele>
        <time>2021-09-28T12:01:06.000Z</time>
      </trkpt>
      <trkpt lat="47.82103" lon="7.09962">
        <ele>558.8</ele>
        <time>2021-09-28T12:01:11.000Z</time>
      </trkpt>
      <trkpt lat="47.82092" lon="7.0996">
        <ele>557.8</ele>
        <time>2021-09-28T12:01:19.000Z</time>
      </trkpt>
      <trkpt lat="47.82083" lon="7.09955">
        <ele>555.8</ele>
        <time>2021-09-28T12:01:27.000Z</time>
      </trkpt>
      <trkpt lat="47.82075" lon="7.09949">
        <ele>554.9</ele>
        <time>2021-09-28T12:01:35.000Z</time>
      </trkpt>
      <trkpt lat="47.82067" lon="7.09942">
        <ele>553.8</ele>
        <time>2021-09-28T12:01:41.000Z</time>
      </trkpt>
      <trkpt lat="47.82059" lon="7.09934">
        <ele>552.9</ele>
        <time>2021-09-28T12:01:47.000Z</time>
      </trkpt>
      <trkpt lat="47.82053" lon="7.09923">
        <ele>551.1</ele>
        <time>2021-09-28T12:01:55.000Z</time>
      </trkpt>
      <trkpt lat="47.82045" lon="7.09915">
        <ele>550.4</ele>
        <time>2021-09-28T12:02:02.000Z</time>
      </trkpt>
      <trkpt lat="47.8204" lon="7.09902">
        <ele>548</ele>
        <time>2021-09-28T12:02:10.000Z</time>
      </trkpt>
      <trkpt lat="47.82035" lon="7.0989">
        <ele>545.7</ele>
        <time>2021-09-28T12:02:19.000Z</time>
      </trkpt>
      <trkpt lat="47.82031" lon="7.09875">
        <ele>542.8</ele>
        <time>2021-09-28T12:02:27.000Z</time>
      </trkpt>
      <trkpt lat="47.82025" lon="7.09862">
        <ele>541.2</ele>
        <time>2021-09-28T12:02:34.000Z</time>
      </trkpt>
      <trkpt lat="47.82019" lon="7.09851">
        <ele>540.2</ele>
        <time>2021-09-28T12:02:40.000Z</time>
      </trkpt>
      <trkpt lat="47.82012" lon="7.09843">
        <ele>540.2</ele>
        <time>2021-09-28T12:02:48.000Z</time>
      </trkpt>
      <trkpt lat="47.82005" lon="7.09833">
        <ele>540.3</ele>
        <time>2021-09-28T12:02:57.000Z</time>
      </trkpt>
      <trkpt lat="47.81999" lon="7.09822">
        <ele>538.8</ele>
        <time>2021-09-28T12:03:05.000Z</time>
      </trkpt>
      <trkpt lat="47.81994" lon="7.09811">
        <ele>535.2</ele>
        <time>2021-09-28T12:03:12.000Z</time>
      </trkpt>
      <trkpt lat="47.81986" lon="7.09802">
        <ele>532.3</ele>
        <time>2021-09-28T12:03:21.000Z</time>
      </trkpt>
      <trkpt lat="47.81978" lon="7.09795">
        <ele>530.2</ele>
        <time>2021-09-28T12:03:29.000Z</time>
      </trkpt>
      <trkpt lat="47.8197" lon="7.09786">
        <ele>528.1</ele>
        <time>2021-09-28T12:03:35.000Z</time>
      </trkpt>
      <trkpt lat="47.81962" lon="7.09777">
        <ele>526.5</ele>
        <time>2021-09-28T12:03:41.000Z</time>
      </trkpt>
      <trkpt lat="47.81955" lon="7.09768">
        <ele>525.2</ele>
        <time>2021-09-28T12:03:46.000Z</time>
      </trkpt>
      <trkpt lat="47.81946" lon="7.09761">
        <ele>524.8</ele>
        <time>2021-09-28T12:03:53.000Z</time>
      </trkpt>
      <trkpt lat="47.81938" lon="7.09753">
        <ele>524.5</ele>
        <time>2021-09-28T12:04:01.000Z</time>
      </trkpt>
      <trkpt lat="47.81929" lon="7.09747">
        <ele>524.8</ele>
        <time>2021-09-28T12:04:10.000Z</time>
      </trkpt>
      <trkpt lat="47.8192" lon="7.09753">
        <ele>525.8</ele>
        <time>2021-09-28T12:04:19.000Z</time>
      </trkpt>
      <trkpt lat="47.81921" lon="7.09769">
        <ele>526.3</ele>
        <time>2021-09-28T12:04:24.000Z</time>
      </trkpt>
      <trkpt lat="47.81922" lon="7.09783">
        <ele>526.9</ele>
        <time>2021-09-28T12:04:29.000Z</time>
      </trkpt>
      <trkpt lat="47.81926" lon="7.09796">
        <ele>527.6</ele>
        <time>2021-09-28T12:04:34.000Z</time>
      </trkpt>
      <trkpt lat="47.81926" lon="7.09812">
        <ele>528.4</ele>
        <time>2021-09-28T12:04:43.000Z</time>
      </trkpt>
      <trkpt lat="47.81923" lon="7.09825">
        <ele>528.8</ele>
        <time>2021-09-28T12:04:51.000Z</time>
      </trkpt>
      <trkpt lat="47.81922" lon="7.09839">
        <ele>529.2</ele>
        <time>2021-09-28T12:04:56.000Z</time>
      </trkpt>
      <trkpt lat="47.8192" lon="7.09853">
        <ele>529.8</ele>
        <time>2021-09-28T12:05:05.000Z</time>
      </trkpt>
      <trkpt lat="47.81916" lon="7.09866">
        <ele>529.3</ele>
        <time>2021-09-28T12:05:11.000Z</time>
      </trkpt>
      <trkpt lat="47.81909" lon="7.09875">
        <ele>526.2</ele>
        <time>2021-09-28T12:05:18.000Z</time>
      </trkpt>
      <trkpt lat="47.81907" lon="7.09889">
        <ele>525.7</ele>
        <time>2021-09-28T12:05:25.000Z</time>
      </trkpt>
      <trkpt lat="47.81902" lon="7.09902">
        <ele>523.7</ele>
        <time>2021-09-28T12:05:35.000Z</time>
      </trkpt>
      <trkpt lat="47.81899" lon="7.09916">
        <ele>522.5</ele>
        <time>2021-09-28T12:05:43.000Z</time>
      </trkpt>
      <trkpt lat="47.81895" lon="7.09929">
        <ele>521.1</ele>
        <time>2021-09-28T12:05:52.000Z</time>
      </trkpt>
      <trkpt lat="47.81893" lon="7.09942">
        <ele>521</ele>
        <time>2021-09-28T12:06:00.000Z</time>
      </trkpt>
      <trkpt lat="47.81887" lon="7.09953">
        <ele>518.2</ele>
        <time>2021-09-28T12:06:08.000Z</time>
      </trkpt>
      <trkpt lat="47.81881" lon="7.09963">
        <ele>515.1</ele>
        <time>2021-09-28T12:06:14.000Z</time>
      </trkpt>
      <trkpt lat="47.81875" lon="7.09973">
        <ele>512.3</ele>
        <time>2021-09-28T12:06:21.000Z</time>
      </trkpt>
      <trkpt lat="47.8187" lon="7.09987">
        <ele>510.6</ele>
        <time>2021-09-28T12:06:28.000Z</time>
      </trkpt>
      <trkpt lat="47.81865" lon="7.09999">
        <ele>508.9</ele>
        <time>2021-09-28T12:06:36.000Z</time>
      </trkpt>
      <trkpt lat="47.81864" lon="7.10013">
        <ele>508.4</ele>
        <time>2021-09-28T12:06:44.000Z</time>
      </trkpt>
      <trkpt lat="47.81861" lon="7.10028">
        <ele>507.7</ele>
        <time>2021-09-28T12:06:52.000Z</time>
      </trkpt>
      <trkpt lat="47.8186" lon="7.10044">
        <ele>507.2</ele>
        <time>2021-09-28T12:07:01.000Z</time>
      </trkpt>
      <trkpt lat="47.81857" lon="7.10057">
        <ele>506.3</ele>
        <time>2021-09-28T12:07:06.000Z</time>
      </trkpt>
      <trkpt lat="47.81856" lon="7.1007">
        <ele>506.2</ele>
        <time>2021-09-28T12:07:14.000Z</time>
      </trkpt>
      <trkpt lat="47.81854" lon="7.10085">
        <ele>505.7</ele>
        <time>2021-09-28T12:07:25.000Z</time>
      </trkpt>
      <trkpt lat="47.81851" lon="7.10099">
        <ele>502.6</ele>
        <time>2021-09-28T12:07:31.000Z</time>
      </trkpt>
      <trkpt lat="47.81848" lon="7.10112">
        <ele>499.5</ele>
        <time>2021-09-28T12:07:40.000Z</time>
      </trkpt>
      <trkpt lat="47.81847" lon="7.10126">
        <ele>497.3</ele>
        <time>2021-09-28T12:07:52.000Z</time>
      </trkpt>
      <trkpt lat="47.81842" lon="7.10114">
        <ele>496.2</ele>
        <time>2021-09-28T12:08:00.000Z</time>
      </trkpt>
      <trkpt lat="47.81838" lon="7.10101">
        <ele>496</ele>
        <time>2021-09-28T12:08:12.000Z</time>
      </trkpt>
      <trkpt lat="47.81831" lon="7.10092">
        <ele>493.9</ele>
        <time>2021-09-28T12:08:22.000Z</time>
      </trkpt>
      <trkpt lat="47.81832" lon="7.10079">
        <ele>495.1</ele>
        <time>2021-09-28T12:08:30.000Z</time>
      </trkpt>
      <trkpt lat="47.81831" lon="7.10066">
        <ele>493.7</ele>
        <time>2021-09-28T12:08:40.000Z</time>
      </trkpt>
      <trkpt lat="47.8183" lon="7.10052">
        <ele>492.6</ele>
        <time>2021-09-28T12:08:48.000Z</time>
      </trkpt>
      <trkpt lat="47.81828" lon="7.10036">
        <ele>490.6</ele>
        <time>2021-09-28T12:08:56.000Z</time>
      </trkpt>
      <trkpt lat="47.81829" lon="7.10023">
        <ele>490.2</ele>
        <time>2021-09-28T12:09:06.000Z</time>
      </trkpt>
      <trkpt lat="47.81831" lon="7.1001">
        <ele>490.5</ele>
        <time>2021-09-28T12:09:13.000Z</time>
      </trkpt>
      <trkpt lat="47.81833" lon="7.09996">
        <ele>490.4</ele>
        <time>2021-09-28T12:09:19.000Z</time>
      </trkpt>
      <trkpt lat="47.81833" lon="7.09982">
        <ele>489.5</ele>
        <time>2021-09-28T12:09:27.000Z</time>
      </trkpt>
      <trkpt lat="47.81828" lon="7.0997">
        <ele>485.6</ele>
        <time>2021-09-28T12:09:37.000Z</time>
      </trkpt>
      <trkpt lat="47.8182" lon="7.09982">
        <ele>482.6</ele>
        <time>2021-09-28T12:10:06.000Z</time>
      </trkpt>
      <trkpt lat="47.81814" lon="7.09993">
        <ele>480</ele>
        <time>2021-09-28T12:10:11.000Z</time>
      </trkpt>
      <trkpt lat="47.81811" lon="7.10007">
        <ele>479.7</ele>
        <time>2021-09-28T12:10:19.000Z</time>
      </trkpt>
      <trkpt lat="47.81809" lon="7.10022">
        <ele>479.7</ele>
        <time>2021-09-28T12:10:29.000Z</time>
      </trkpt>
      <trkpt lat="47.81805" lon="7.10034">
        <ele>478</ele>
        <time>2021-09-28T12:10:36.000Z</time>
      </trkpt>
      <trkpt lat="47.818" lon="7.10046">
        <ele>476.2</ele>
        <time>2021-09-28T12:10:44.000Z</time>
      </trkpt>
      <trkpt lat="47.81796" lon="7.1006">
        <ele>475</ele>
        <time>2021-09-28T12:10:51.000Z</time>
      </trkpt>
      <trkpt lat="47.81793" lon="7.10073">
        <ele>474.7</ele>
        <time>2021-09-28T12:11:00.000Z</time>
      </trkpt>
      <trkpt lat="47.81789" lon="7.10085">
        <ele>473.3</ele>
        <time>2021-09-28T12:11:08.000Z</time>
      </trkpt>
      <trkpt lat="47.81785" lon="7.10099">
        <ele>471</ele>
        <time>2021-09-28T12:11:15.000Z</time>
      </trkpt>
      <trkpt lat="47.81781" lon="7.10112">
        <ele>469.1</ele>
        <time>2021-09-28T12:11:23.000Z</time>
      </trkpt>
      <trkpt lat="47.81776" lon="7.10123">
        <ele>467</ele>
        <time>2021-09-28T12:11:31.000Z</time>
      </trkpt>
      <trkpt lat="47.81774" lon="7.10138">
        <ele>466.7</ele>
        <time>2021-09-28T12:11:38.000Z</time>
      </trkpt>
      <trkpt lat="47.8177" lon="7.10151">
        <ele>465.7</ele>
        <time>2021-09-28T12:11:46.000Z</time>
      </trkpt>
      <trkpt lat="47.81768" lon="7.10166">
        <ele>465.5</ele>
        <time>2021-09-28T12:11:55.000Z</time>
      </trkpt>
      <trkpt lat="47.81764" lon="7.1018">
        <ele>461.7</ele>
        <time>2021-09-28T12:12:04.000Z</time>
      </trkpt>
      <trkpt lat="47.81755" lon="7.10176">
        <ele>459.7</ele>
        <time>2021-09-28T12:12:13.000Z</time>
      </trkpt>
      <trkpt lat="47.81747" lon="7.10182">
        <ele>455.9</ele>
        <time>2021-09-28T12:12:31.000Z</time>
      </trkpt>
      <trkpt lat="47.81738" lon="7.10181">
        <ele>453.2</ele>
        <time>2021-09-28T12:12:45.000Z</time>
      </trkpt>
      <trkpt lat="47.81729" lon="7.10181">
        <ele>450.3</ele>
        <time>2021-09-28T12:13:05.000Z</time>
      </trkpt>
      <trkpt lat="47.8172" lon="7.10184">
        <ele>447</ele>
        <time>2021-09-28T12:13:12.000Z</time>
      </trkpt>
      <trkpt lat="47.8171" lon="7.10185">
        <ele>444</ele>
        <time>2021-09-28T12:13:19.000Z</time>
      </trkpt>
      <trkpt lat="47.81701" lon="7.10183">
        <ele>441.1</ele>
        <time>2021-09-28T12:13:28.000Z</time>
      </trkpt>
      <trkpt lat="47.81691" lon="7.10181">
        <ele>438.3</ele>
        <time>2021-09-28T12:13:40.000Z</time>
      </trkpt>
      <trkpt lat="47.81681" lon="7.10177">
        <ele>435.5</ele>
        <time>2021-09-28T12:13:52.000Z</time>
      </trkpt>
      <trkpt lat="47.81672" lon="7.10179">
        <ele>432.5</ele>
        <time>2021-09-28T12:14:09.000Z</time>
      </trkpt>
      <trkpt lat="47.81665" lon="7.10188">
        <ele>430.2</ele>
        <time>2021-09-28T12:14:18.000Z</time>
      </trkpt>
      <trkpt lat="47.81657" lon="7.10194">
        <ele>428.7</ele>
        <time>2021-09-28T12:14:28.000Z</time>
      </trkpt>
      <trkpt lat="47.81648" lon="7.10202">
        <ele>426.8</ele>
        <time>2021-09-28T12:14:38.000Z</time>
      </trkpt>
      <trkpt lat="47.8164" lon="7.10208">
        <ele>424.9</ele>
        <time>2021-09-28T12:14:47.000Z</time>
      </trkpt>
      <trkpt lat="47.81631" lon="7.1021">
        <ele>423</ele>
        <time>2021-09-28T12:14:56.000Z</time>
      </trkpt>
      <trkpt lat="47.81621" lon="7.10203">
        <ele>421.7</ele>
        <time>2021-09-28T12:15:05.000Z</time>
      </trkpt>
      <trkpt lat="47.81615" lon="7.10194">
        <ele>421.5</ele>
        <time>2021-09-28T12:15:13.000Z</time>
      </trkpt>
      <trkpt lat="47.81611" lon="7.10182">
        <ele>422.1</ele>
        <time>2021-09-28T12:15:21.000Z</time>
      </trkpt>
      <trkpt lat="47.81607" lon="7.10168">
        <ele>423</ele>
        <time>2021-09-28T12:15:32.000Z</time>
      </trkpt>
      <trkpt lat="47.81602" lon="7.10155">
        <ele>421.7</ele>
        <time>2021-09-28T12:15:37.000Z</time>
      </trkpt>
      <trkpt lat="47.81599" lon="7.10142">
        <ele>420.5</ele>
        <time>2021-09-28T12:15:43.000Z</time>
      </trkpt>
      <trkpt lat="47.816" lon="7.10128">
        <ele>419.5</ele>
        <time>2021-09-28T12:15:50.000Z</time>
      </trkpt>
      <trkpt lat="47.81594" lon="7.10116">
        <ele>418.3</ele>
        <time>2021-09-28T12:16:01.000Z</time>
      </trkpt>
      <trkpt lat="47.81586" lon="7.10108">
        <ele>417.4</ele>
        <time>2021-09-28T12:16:08.000Z</time>
      </trkpt>
      <trkpt lat="47.81577" lon="7.10101">
        <ele>417.4</ele>
        <time>2021-09-28T12:16:17.000Z</time>
      </trkpt>
      <trkpt lat="47.81568" lon="7.10097">
        <ele>418</ele>
        <time>2021-09-28T12:16:23.000Z</time>
      </trkpt>
      <trkpt lat="47.81559" lon="7.10095">
        <ele>418.9</ele>
        <time>2021-09-28T12:16:30.000Z</time>
      </trkpt>
      <trkpt lat="47.8155" lon="7.10088">
        <ele>419.6</ele>
        <time>2021-09-28T12:16:41.000Z</time>
      </trkpt>
      <trkpt lat="47.81542" lon="7.10095">
        <ele>420.4</ele>
        <time>2021-09-28T12:16:51.000Z</time>
      </trkpt>
      <trkpt lat="47.81535" lon="7.10085">
        <ele>421.2</ele>
        <time>2021-09-28T12:17:03.000Z</time>
      </trkpt>
      <trkpt lat="47.8153" lon="7.10097">
        <ele>421.5</ele>
        <time>2021-09-28T12:17:24.000Z</time>
      </trkpt>
      <trkpt lat="47.8153" lon="7.10111">
        <ele>421.2</ele>
        <time>2021-09-28T12:17:34.000Z</time>
      </trkpt>
      <trkpt lat="47.8152" lon="7.10111">
        <ele>421.9</ele>
        <time>2021-09-28T12:17:47.000Z</time>
      </trkpt>
      <trkpt lat="47.81513" lon="7.10101">
        <ele>422.8</ele>
        <time>2021-09-28T12:18:04.000Z</time>
      </trkpt>
      <trkpt lat="47.81506" lon="7.10093">
        <ele>423.9</ele>
        <time>2021-09-28T12:18:13.000Z</time>
      </trkpt>
      <trkpt lat="47.815" lon="7.10082">
        <ele>424.7</ele>
        <time>2021-09-28T12:18:24.000Z</time>
      </trkpt>
      <trkpt lat="47.81492" lon="7.10077">
        <ele>420.8</ele>
        <time>2021-09-28T12:18:35.000Z</time>
      </trkpt>
      <trkpt lat="47.8149" lon="7.10064">
        <ele>417.2</ele>
        <time>2021-09-28T12:18:46.000Z</time>
      </trkpt>
      <trkpt lat="47.81479" lon="7.10066">
        <ele>413.9</ele>
        <time>2021-09-28T12:19:51.000Z</time>
      </trkpt>
      <trkpt lat="47.81471" lon="7.10075">
        <ele>413.4</ele>
        <time>2021-09-28T12:19:57.000Z</time>
      </trkpt>
      <trkpt lat="47.81476" lon="7.10098">
        <ele>416.6</ele>
        <time>2021-09-28T12:20:02.000Z</time>
      </trkpt>
      <trkpt lat="47.81469" lon="7.10107">
        <ele>414.2</ele>
        <time>2021-09-28T12:20:15.000Z</time>
      </trkpt>
      <trkpt lat="47.81461" lon="7.10113">
        <ele>411.7</ele>
        <time>2021-09-28T12:20:24.000Z</time>
      </trkpt>
      <trkpt lat="47.81468" lon="7.10104">
        <ele>413.9</ele>
        <time>2021-09-28T12:27:02.000Z</time>
      </trkpt>
      <trkpt lat="47.81455" lon="7.10104">
        <ele>409.8</ele>
        <time>2021-09-28T12:27:47.000Z</time>
      </trkpt>
      <trkpt lat="47.81371" lon="7.10138">
        <ele>379</ele>
        <time>2021-09-28T12:27:52.000Z</time>
      </trkpt>
      <trkpt lat="47.81382" lon="7.10122">
        <ele>382.3</ele>
        <time>2021-09-28T12:27:57.000Z</time>
      </trkpt>
      <trkpt lat="47.81396" lon="7.10123">
        <ele>389.4</ele>
        <time>2021-09-28T12:28:02.000Z</time>
      </trkpt>
      <trkpt lat="47.81413" lon="7.10118">
        <ele>397.2</ele>
        <time>2021-09-28T12:28:08.000Z</time>
      </trkpt>
      <trkpt lat="47.81431" lon="7.10109">
        <ele>402.8</ele>
        <time>2021-09-28T12:28:13.000Z</time>
      </trkpt>
      <trkpt lat="47.81447" lon="7.10105">
        <ele>407.5</ele>
        <time>2021-09-28T12:28:19.000Z</time>
      </trkpt>
      <trkpt lat="47.8146" lon="7.10106">
        <ele>411.5</ele>
        <time>2021-09-28T12:28:33.000Z</time>
      </trkpt>
      <trkpt lat="47.81469" lon="7.10105">
        <ele>414.3</ele>
        <time>2021-09-28T12:30:00.000Z</time>
      </trkpt>
      <trkpt lat="47.81478" lon="7.10099">
        <ele>417</ele>
        <time>2021-09-28T12:30:10.000Z</time>
      </trkpt>
      <trkpt lat="47.81481" lon="7.10086">
        <ele>418.5</ele>
        <time>2021-09-28T12:30:20.000Z</time>
      </trkpt>
      <trkpt lat="47.81476" lon="7.10073">
        <ele>414.5</ele>
        <time>2021-09-28T12:30:33.000Z</time>
      </trkpt>
      <trkpt lat="47.81475" lon="7.10059">
        <ele>411.1</ele>
        <time>2021-09-28T12:30:43.000Z</time>
      </trkpt>
      <trkpt lat="47.81478" lon="7.10046">
        <ele>409</ele>
        <time>2021-09-28T12:30:55.000Z</time>
      </trkpt>
      <trkpt lat="47.81482" lon="7.10032">
        <ele>407.1</ele>
        <time>2021-09-28T12:31:03.000Z</time>
      </trkpt>
      <trkpt lat="47.81474" lon="7.10039">
        <ele>406.1</ele>
        <time>2021-09-28T12:32:25.000Z</time>
      </trkpt>
      <trkpt lat="47.81468" lon="7.10049">
        <ele>406.2</ele>
        <time>2021-09-28T12:33:24.000Z</time>
      </trkpt>
      <trkpt lat="47.81475" lon="7.10038">
        <ele>406.1</ele>
        <time>2021-09-28T12:33:41.000Z</time>
      </trkpt>
      <trkpt lat="47.8148" lon="7.10048">
        <ele>410.4</ele>
        <time>2021-09-28T12:33:55.000Z</time>
      </trkpt>
      <trkpt lat="47.81476" lon="7.10062">
        <ele>412.1</ele>
        <time>2021-09-28T12:34:04.000Z</time>
      </trkpt>
      <trkpt lat="47.81478" lon="7.10076">
        <ele>415.9</ele>
        <time>2021-09-28T12:34:14.000Z</time>
      </trkpt>
      <trkpt lat="47.81485" lon="7.10086">
        <ele>419.8</ele>
        <time>2021-09-28T12:34:27.000Z</time>
      </trkpt>
      <trkpt lat="47.81494" lon="7.10086">
        <ele>422.8</ele>
        <time>2021-09-28T12:34:34.000Z</time>
      </trkpt>
      <trkpt lat="47.81504" lon="7.10085">
        <ele>424.5</ele>
        <time>2021-09-28T12:34:45.000Z</time>
      </trkpt>
      <trkpt lat="47.81509" lon="7.10097">
        <ele>423.4</ele>
        <time>2021-09-28T12:34:57.000Z</time>
      </trkpt>
      <trkpt lat="47.81515" lon="7.10107">
        <ele>422.4</ele>
        <time>2021-09-28T12:35:05.000Z</time>
      </trkpt>
      <trkpt lat="47.81523" lon="7.10116">
        <ele>421.6</ele>
        <time>2021-09-28T12:35:17.000Z</time>
      </trkpt>
      <trkpt lat="47.81529" lon="7.10104">
        <ele>421.4</ele>
        <time>2021-09-28T12:35:28.000Z</time>
      </trkpt>
      <trkpt lat="47.8153" lon="7.1009">
        <ele>421.7</ele>
        <time>2021-09-28T12:35:36.000Z</time>
      </trkpt>
      <trkpt lat="47.81538" lon="7.10093">
        <ele>420.8</ele>
        <time>2021-09-28T12:35:50.000Z</time>
      </trkpt>
      <trkpt lat="47.81538" lon="7.10107">
        <ele>420.7</ele>
        <time>2021-09-28T12:35:58.000Z</time>
      </trkpt>
      <trkpt lat="47.81538" lon="7.10122">
        <ele>420.5</ele>
        <time>2021-09-28T12:36:06.000Z</time>
      </trkpt>
      <trkpt lat="47.81537" lon="7.10136">
        <ele>420.4</ele>
        <time>2021-09-28T12:36:13.000Z</time>
      </trkpt>
      <trkpt lat="47.81535" lon="7.1015">
        <ele>420.2</ele>
        <time>2021-09-28T12:36:21.000Z</time>
      </trkpt>
      <trkpt lat="47.81527" lon="7.1016">
        <ele>420.2</ele>
        <time>2021-09-28T12:36:28.000Z</time>
      </trkpt>
      <trkpt lat="47.8152" lon="7.1017">
        <ele>419.2</ele>
        <time>2021-09-28T12:36:35.000Z</time>
      </trkpt>
      <trkpt lat="47.81511" lon="7.10178">
        <ele>416.7</ele>
        <time>2021-09-28T12:36:43.000Z</time>
      </trkpt>
      <trkpt lat="47.81522" lon="7.10179">
        <ele>416.7</ele>
        <time>2021-09-28T12:37:33.000Z</time>
      </trkpt>
      <trkpt lat="47.81531" lon="7.10181">
        <ele>416.5</ele>
        <time>2021-09-28T12:37:39.000Z</time>
      </trkpt>
      <trkpt lat="47.81538" lon="7.10191">
        <ele>414.2</ele>
        <time>2021-09-28T12:37:48.000Z</time>
      </trkpt>
      <trkpt lat="47.81544" lon="7.10202">
        <ele>412.2</ele>
        <time>2021-09-28T12:37:57.000Z</time>
      </trkpt>
      <trkpt lat="47.81549" lon="7.10213">
        <ele>410.2</ele>
        <time>2021-09-28T12:38:08.000Z</time>
      </trkpt>
      <trkpt lat="47.81557" lon="7.10222">
        <ele>409.2</ele>
        <time>2021-09-28T12:38:15.000Z</time>
      </trkpt>
      <trkpt lat="47.81563" lon="7.10235">
        <ele>407.4</ele>
        <time>2021-09-28T12:38:20.000Z</time>
      </trkpt>
      <trkpt lat="47.81569" lon="7.10245">
        <ele>406.4</ele>
        <time>2021-09-28T12:38:27.000Z</time>
      </trkpt>
      <trkpt lat="47.81574" lon="7.10257">
        <ele>405</ele>
        <time>2021-09-28T12:38:34.000Z</time>
      </trkpt>
      <trkpt lat="47.81581" lon="7.10267">
        <ele>403.9</ele>
        <time>2021-09-28T12:38:42.000Z</time>
      </trkpt>
      <trkpt lat="47.81588" lon="7.10276">
        <ele>403.4</ele>
        <time>2021-09-28T12:38:49.000Z</time>
      </trkpt>
      <trkpt lat="47.81596" lon="7.10284">
        <ele>403.6</ele>
        <time>2021-09-28T12:38:58.000Z</time>
      </trkpt>
      <trkpt lat="47.81603" lon="7.10295">
        <ele>403</ele>
        <time>2021-09-28T12:39:07.000Z</time>
      </trkpt>
      <trkpt lat="47.8161" lon="7.10304">
        <ele>402.6</ele>
        <time>2021-09-28T12:39:14.000Z</time>
      </trkpt>
      <trkpt lat="47.81615" lon="7.10316">
        <ele>401.1</ele>
        <time>2021-09-28T12:39:22.000Z</time>
      </trkpt>
      <trkpt lat="47.81617" lon="7.1033">
        <ele>398.4</ele>
        <time>2021-09-28T12:39:32.000Z</time>
      </trkpt>
      <trkpt lat="47.81618" lon="7.10345">
        <ele>395.3</ele>
        <time>2021-09-28T12:39:40.000Z</time>
      </trkpt>
      <trkpt lat="47.81609" lon="7.10343">
        <ele>393.5</ele>
        <time>2021-09-28T12:39:58.000Z</time>
      </trkpt>
      <trkpt lat="47.816" lon="7.10336">
        <ele>393.3</ele>
        <time>2021-09-28T12:40:05.000Z</time>
      </trkpt>
      <trkpt lat="47.81591" lon="7.10332">
        <ele>392</ele>
        <time>2021-09-28T12:40:15.000Z</time>
      </trkpt>
      <trkpt lat="47.81581" lon="7.10328">
        <ele>390.4</ele>
        <time>2021-09-28T12:40:25.000Z</time>
      </trkpt>
      <trkpt lat="47.8157" lon="7.10326">
        <ele>388.4</ele>
        <time>2021-09-28T12:40:34.000Z</time>
      </trkpt>
      <trkpt lat="47.8156" lon="7.10323">
        <ele>386.7</ele>
        <time>2021-09-28T12:40:41.000Z</time>
      </trkpt>
      <trkpt lat="47.81551" lon="7.1032">
        <ele>385</ele>
        <time>2021-09-28T12:40:49.000Z</time>
      </trkpt>
      <trkpt lat="47.81541" lon="7.1032">
        <ele>382.9</ele>
        <time>2021-09-28T12:40:57.000Z</time>
      </trkpt>
      <trkpt lat="47.81532" lon="7.10319">
        <ele>380.9</ele>
        <time>2021-09-28T12:41:04.000Z</time>
      </trkpt>
      <trkpt lat="47.81523" lon="7.1032">
        <ele>378.4</ele>
        <time>2021-09-28T12:41:12.000Z</time>
      </trkpt>
      <trkpt lat="47.81513" lon="7.10322">
        <ele>375.6</ele>
        <time>2021-09-28T12:41:21.000Z</time>
      </trkpt>
      <trkpt lat="47.81504" lon="7.1032">
        <ele>373.8</ele>
        <time>2021-09-28T12:41:27.000Z</time>
      </trkpt>
      <trkpt lat="47.81494" lon="7.10322">
        <ele>371.8</ele>
        <time>2021-09-28T12:41:35.000Z</time>
      </trkpt>
      <trkpt lat="47.81485" lon="7.10326">
        <ele>369.4</ele>
        <time>2021-09-28T12:41:43.000Z</time>
      </trkpt>
      <trkpt lat="47.81475" lon="7.10327">
        <ele>368</ele>
        <time>2021-09-28T12:41:50.000Z</time>
      </trkpt>
      <trkpt lat="47.81466" lon="7.10328">
        <ele>366.7</ele>
        <time>2021-09-28T12:41:58.000Z</time>
      </trkpt>
      <trkpt lat="47.81458" lon="7.10332">
        <ele>364.4</ele>
        <time>2021-09-28T12:42:05.000Z</time>
      </trkpt>
      <trkpt lat="47.81448" lon="7.10333">
        <ele>362.9</ele>
        <time>2021-09-28T12:42:15.000Z</time>
      </trkpt>
      <trkpt lat="47.81439" lon="7.10337">
        <ele>361.2</ele>
        <time>2021-09-28T12:42:22.000Z</time>
      </trkpt>
      <trkpt lat="47.81431" lon="7.10345">
        <ele>359.2</ele>
        <time>2021-09-28T12:42:31.000Z</time>
      </trkpt>
      <trkpt lat="47.81423" lon="7.10352">
        <ele>357.4</ele>
        <time>2021-09-28T12:42:40.000Z</time>
      </trkpt>
      <trkpt lat="47.81414" lon="7.1036">
        <ele>355.4</ele>
        <time>2021-09-28T12:42:50.000Z</time>
      </trkpt>
      <trkpt lat="47.81408" lon="7.10371">
        <ele>353.3</ele>
        <time>2021-09-28T12:42:57.000Z</time>
      </trkpt>
      <trkpt lat="47.81398" lon="7.10372">
        <ele>351.9</ele>
        <time>2021-09-28T12:43:08.000Z</time>
      </trkpt>
      <trkpt lat="47.81388" lon="7.10375">
        <ele>350.4</ele>
        <time>2021-09-28T12:43:18.000Z</time>
      </trkpt>
      <trkpt lat="47.81377" lon="7.1038">
        <ele>348.6</ele>
        <time>2021-09-28T12:43:23.000Z</time>
      </trkpt>
      <trkpt lat="47.81367" lon="7.10379">
        <ele>347.5</ele>
        <time>2021-09-28T12:43:32.000Z</time>
      </trkpt>
      <trkpt lat="47.81358" lon="7.10377">
        <ele>346.5</ele>
        <time>2021-09-28T12:43:40.000Z</time>
      </trkpt>
      <trkpt lat="47.81348" lon="7.10371">
        <ele>345.6</ele>
        <time>2021-09-28T12:43:48.000Z</time>
      </trkpt>
      <trkpt lat="47.81339" lon="7.10366">
        <ele>344.8</ele>
        <time>2021-09-28T12:43:53.000Z</time>
      </trkpt>
      <trkpt lat="47.8133" lon="7.10363">
        <ele>343.9</ele>
        <time>2021-09-28T12:44:02.000Z</time>
      </trkpt>
      <trkpt lat="47.8132" lon="7.10361">
        <ele>343.2</ele>
        <time>2021-09-28T12:44:09.000Z</time>
      </trkpt>
      <trkpt lat="47.81313" lon="7.10352">
        <ele>343.1</ele>
        <time>2021-09-28T12:44:14.000Z</time>
      </trkpt>
      <trkpt lat="47.81307" lon="7.1034">
        <ele>343.1</ele>
        <time>2021-09-28T12:44:21.000Z</time>
      </trkpt>
      <trkpt lat="47.81308" lon="7.10326">
        <ele>344.5</ele>
        <time>2021-09-28T12:44:27.000Z</time>
      </trkpt>
      <trkpt lat="47.81303" lon="7.10313">
        <ele>345.9</ele>
        <time>2021-09-28T12:44:36.000Z</time>
      </trkpt>
      <trkpt lat="47.81297" lon="7.10301">
        <ele>346.5</ele>
        <time>2021-09-28T12:44:44.000Z</time>
      </trkpt>
      <trkpt lat="47.81293" lon="7.10287">
        <ele>347.5</ele>
        <time>2021-09-28T12:44:55.000Z</time>
      </trkpt>
      <trkpt lat="47.81287" lon="7.10277">
        <ele>347.4</ele>
        <time>2021-09-28T12:45:00.000Z</time>
      </trkpt>
      <trkpt lat="47.8128" lon="7.10266">
        <ele>347.1</ele>
        <time>2021-09-28T12:45:05.000Z</time>
      </trkpt>
      <trkpt lat="47.81278" lon="7.10253">
        <ele>347.8</ele>
        <time>2021-09-28T12:45:16.000Z</time>
      </trkpt>
      <trkpt lat="47.81279" lon="7.10239">
        <ele>348.1</ele>
        <time>2021-09-28T12:45:24.000Z</time>
      </trkpt>
      <trkpt lat="47.81278" lon="7.10225">
        <ele>347.9</ele>
        <time>2021-09-28T12:45:34.000Z</time>
      </trkpt>
      <trkpt lat="47.8128" lon="7.1021">
        <ele>348.2</ele>
        <time>2021-09-28T12:45:42.000Z</time>
      </trkpt>
      <trkpt lat="47.81279" lon="7.10196">
        <ele>347.8</ele>
        <time>2021-09-28T12:45:48.000Z</time>
      </trkpt>
      <trkpt lat="47.81275" lon="7.10183">
        <ele>346.3</ele>
        <time>2021-09-28T12:45:54.000Z</time>
      </trkpt>
      <trkpt lat="47.81264" lon="7.10177">
        <ele>342.7</ele>
        <time>2021-09-28T12:45:59.000Z</time>
      </trkpt>
      <trkpt lat="47.81254" lon="7.10174">
        <ele>339.4</ele>
        <time>2021-09-28T12:46:05.000Z</time>
      </trkpt>
      <trkpt lat="47.81243" lon="7.10172">
        <ele>338.3</ele>
        <time>2021-09-28T12:46:13.000Z</time>
      </trkpt>
      <trkpt lat="47.81236" lon="7.10182">
        <ele>338.7</ele>
        <time>2021-09-28T12:46:57.000Z</time>
      </trkpt>
      <trkpt lat="47.81227" lon="7.10179">
        <ele>338.8</ele>
        <time>2021-09-28T12:47:04.000Z</time>
      </trkpt>
      <trkpt lat="47.81219" lon="7.1017">
        <ele>338.8</ele>
        <time>2021-09-28T12:47:11.000Z</time>
      </trkpt>
      <trkpt lat="47.81209" lon="7.1017">
        <ele>339</ele>
        <time>2021-09-28T12:47:18.000Z</time>
      </trkpt>
      <trkpt lat="47.81199" lon="7.10166">
        <ele>339.2</ele>
        <time>2021-09-28T12:47:26.000Z</time>
      </trkpt>
      <trkpt lat="47.81189" lon="7.10163">
        <ele>339.5</ele>
        <time>2021-09-28T12:47:33.000Z</time>
      </trkpt>
      <trkpt lat="47.8118" lon="7.10161">
        <ele>339.7</ele>
        <time>2021-09-28T12:47:39.000Z</time>
      </trkpt>
      <trkpt lat="47.81171" lon="7.10162">
        <ele>340</ele>
        <time>2021-09-28T12:47:45.000Z</time>
      </trkpt>
      <trkpt lat="47.81161" lon="7.10162">
        <ele>340.1</ele>
        <time>2021-09-28T12:47:53.000Z</time>
      </trkpt>
      <trkpt lat="47.81151" lon="7.10161">
        <ele>340.1</ele>
        <time>2021-09-28T12:48:01.000Z</time>
      </trkpt>
      <trkpt lat="47.81143" lon="7.10168">
        <ele>340</ele>
        <time>2021-09-28T12:48:08.000Z</time>
      </trkpt>
      <trkpt lat="47.81134" lon="7.10172">
        <ele>339.9</ele>
        <time>2021-09-28T12:48:16.000Z</time>
      </trkpt>
      <trkpt lat="47.81124" lon="7.10172">
        <ele>339.9</ele>
        <time>2021-09-28T12:48:25.000Z</time>
      </trkpt>
      <trkpt lat="47.81115" lon="7.10176">
        <ele>339.8</ele>
        <time>2021-09-28T12:48:30.000Z</time>
      </trkpt>
      <trkpt lat="47.81108" lon="7.10184">
        <ele>339.6</ele>
        <time>2021-09-28T12:48:39.000Z</time>
      </trkpt>
      <trkpt lat="47.81107" lon="7.10198">
        <ele>339.4</ele>
        <time>2021-09-28T12:48:48.000Z</time>
      </trkpt>
      <trkpt lat="47.81099" lon="7.10206">
        <ele>339.1</ele>
        <time>2021-09-28T12:48:57.000Z</time>
      </trkpt>
      <trkpt lat="47.81093" lon="7.10218">
        <ele>338.8</ele>
        <time>2021-09-28T12:49:08.000Z</time>
      </trkpt>
      <trkpt lat="47.81088" lon="7.10229">
        <ele>338.5</ele>
        <time>2021-09-28T12:49:14.000Z</time>
      </trkpt>
      <trkpt lat="47.81083" lon="7.10241">
        <ele>338.2</ele>
        <time>2021-09-28T12:49:19.000Z</time>
      </trkpt>
      <trkpt lat="47.81078" lon="7.10252">
        <ele>338</ele>
        <time>2021-09-28T12:49:26.000Z</time>
      </trkpt>
      <trkpt lat="47.81072" lon="7.10264">
        <ele>337.8</ele>
        <time>2021-09-28T12:49:34.000Z</time>
      </trkpt>
      <trkpt lat="47.81064" lon="7.10275">
        <ele>337.6</ele>
        <time>2021-09-28T12:49:46.000Z</time>
      </trkpt>
      <trkpt lat="47.81058" lon="7.10287">
        <ele>337.4</ele>
        <time>2021-09-28T12:49:52.000Z</time>
      </trkpt>
      <trkpt lat="47.81053" lon="7.10299">
        <ele>337.2</ele>
        <time>2021-09-28T12:50:00.000Z</time>
      </trkpt>
      <trkpt lat="47.81047" lon="7.10312">
        <ele>336.9</ele>
        <time>2021-09-28T12:50:07.000Z</time>
      </trkpt>
      <trkpt lat="47.81037" lon="7.10317">
        <ele>336.8</ele>
        <time>2021-09-28T12:50:13.000Z</time>
      </trkpt>
      <trkpt lat="47.8103" lon="7.10325">
        <ele>336.5</ele>
        <time>2021-09-28T12:50:19.000Z</time>
      </trkpt>
      <trkpt lat="47.81021" lon="7.10331">
        <ele>336.3</ele>
        <time>2021-09-28T12:50:26.000Z</time>
      </trkpt>
      <trkpt lat="47.81012" lon="7.10336">
        <ele>336.1</ele>
        <time>2021-09-28T12:50:33.000Z</time>
      </trkpt>
      <trkpt lat="47.81004" lon="7.10345">
        <ele>335.9</ele>
        <time>2021-09-28T12:50:42.000Z</time>
      </trkpt>
      <trkpt lat="47.80996" lon="7.10351">
        <ele>335.9</ele>
        <time>2021-09-28T12:50:50.000Z</time>
      </trkpt>
      <trkpt lat="47.80988" lon="7.10356">
        <ele>336.1</ele>
        <time>2021-09-28T12:50:57.000Z</time>
      </trkpt>
      <trkpt lat="47.8098" lon="7.10365">
        <ele>336.2</ele>
        <time>2021-09-28T12:51:04.000Z</time>
      </trkpt>
      <trkpt lat="47.80974" lon="7.10374">
        <ele>336.1</ele>
        <time>2021-09-28T12:51:12.000Z</time>
      </trkpt>
      <trkpt lat="47.80967" lon="7.10383">
        <ele>336.1</ele>
        <time>2021-09-28T12:51:18.000Z</time>
      </trkpt>
      <trkpt lat="47.8096" lon="7.10392">
        <ele>336.1</ele>
        <time>2021-09-28T12:51:25.000Z</time>
      </trkpt>
      <trkpt lat="47.80952" lon="7.10402">
        <ele>336</ele>
        <time>2021-09-28T12:51:33.000Z</time>
      </trkpt>
      <trkpt lat="47.80946" lon="7.10412">
        <ele>335.8</ele>
        <time>2021-09-28T12:51:40.000Z</time>
      </trkpt>
      <trkpt lat="47.80938" lon="7.10418">
        <ele>335.7</ele>
        <time>2021-09-28T12:51:47.000Z</time>
      </trkpt>
      <trkpt lat="47.80932" lon="7.10429">
        <ele>335.7</ele>
        <time>2021-09-28T12:51:54.000Z</time>
      </trkpt>
      <trkpt lat="47.80926" lon="7.10439">
        <ele>335.7</ele>
        <time>2021-09-28T12:52:01.000Z</time>
      </trkpt>
      <trkpt lat="47.80918" lon="7.10446">
        <ele>335.6</ele>
        <time>2021-09-28T12:52:07.000Z</time>
      </trkpt>
      <trkpt lat="47.80912" lon="7.10459">
        <ele>335.6</ele>
        <time>2021-09-28T12:52:13.000Z</time>
      </trkpt>
      <trkpt lat="47.80909" lon="7.10472">
        <ele>335.6</ele>
        <time>2021-09-28T12:52:20.000Z</time>
      </trkpt>
      <trkpt lat="47.80905" lon="7.10486">
        <ele>335.5</ele>
        <time>2021-09-28T12:52:29.000Z</time>
      </trkpt>
      <trkpt lat="47.809" lon="7.10498">
        <ele>335.4</ele>
        <time>2021-09-28T12:52:38.000Z</time>
      </trkpt>
      <trkpt lat="47.80896" lon="7.10511">
        <ele>335.3</ele>
        <time>2021-09-28T12:52:44.000Z</time>
      </trkpt>
      <trkpt lat="47.80895" lon="7.10525">
        <ele>335</ele>
        <time>2021-09-28T12:52:51.000Z</time>
      </trkpt>
      <trkpt lat="47.80891" lon="7.10538">
        <ele>334.8</ele>
        <time>2021-09-28T12:52:59.000Z</time>
      </trkpt>
      <trkpt lat="47.80887" lon="7.10552">
        <ele>334.7</ele>
        <time>2021-09-28T12:53:06.000Z</time>
      </trkpt>
      <trkpt lat="47.80886" lon="7.10567">
        <ele>334.5</ele>
        <time>2021-09-28T12:53:14.000Z</time>
      </trkpt>
      <trkpt lat="47.80883" lon="7.10581">
        <ele>334.3</ele>
        <time>2021-09-28T12:53:22.000Z</time>
      </trkpt>
      <trkpt lat="47.80883" lon="7.10594">
        <ele>334.3</ele>
        <time>2021-09-28T12:53:29.000Z</time>
      </trkpt>
      <trkpt lat="47.80881" lon="7.10608">
        <ele>334.4</ele>
        <time>2021-09-28T12:53:36.000Z</time>
      </trkpt>
      <trkpt lat="47.80878" lon="7.10622">
        <ele>334.6</ele>
        <time>2021-09-28T12:53:44.000Z</time>
      </trkpt>
      <trkpt lat="47.80877" lon="7.10636">
        <ele>334.7</ele>
        <time>2021-09-28T12:53:51.000Z</time>
      </trkpt>
      <trkpt lat="47.80881" lon="7.1065">
        <ele>334.6</ele>
        <time>2021-09-28T12:53:58.000Z</time>
      </trkpt>
      <trkpt lat="47.80887" lon="7.10661">
        <ele>334.4</ele>
        <time>2021-09-28T12:54:06.000Z</time>
      </trkpt>
      <trkpt lat="47.80893" lon="7.10672">
        <ele>334.2</ele>
        <time>2021-09-28T12:54:17.000Z</time>
      </trkpt>
      <trkpt lat="47.80898" lon="7.10685">
        <ele>334</ele>
        <time>2021-09-28T12:54:25.000Z</time>
      </trkpt>
      <trkpt lat="47.80901" lon="7.10699">
        <ele>333.9</ele>
        <time>2021-09-28T12:54:34.000Z</time>
      </trkpt>
      <trkpt lat="47.80905" lon="7.10706">
        <ele>333.8</ele>
        <time>2021-09-28T12:55:05.000Z</time>
      </trkpt>
    </trkseg>
  </trk>
</gpx>